<?xml version="1.0" encoding="UTF-8" standalone="no" ?>
<gpx xmlns="http://www.topografix.com/GPX/1/1" xmlns:xsi="http://www.w3.org/2001/XMLSchema-instance" xsi:schemaLocation="http://www.topografix.com/GPX/1/1 http://www.topografix.com/GPX/1/1/gpx.xsd" version="1.1" creator="VisuGPX - https://www.visugpx.com">
  <metadata>
    <name>Forêt de Pont de l Arche</name>
    <desc><![CDATA[Beaucoup de lignes droites sur chemin carrossable et peu de monotrace]]></desc>
  </metadata>
  <trk>
    <name><![CDATA[Forêt de Pont de l Arche_1]]></name>
    <desc><![CDATA[]]></desc>
    <extensions>
      <line xmlns="http://www.topografix.com/GPX/gpx_style/0/2">
        <color>0000FF</color>
        <width>4</width>
      </line>
    </extensions>
    <trkseg>
      <trkpt lat="49.30251" lon="1.14098">
        <ele>-6.9</ele>
        <time>2025-03-26T13:37:11.000Z</time>
      </trkpt>
      <trkpt lat="49.30251" lon="1.14098">
        <ele>-6.9</ele>
        <time>2025-03-26T13:37:11.000Z</time>
      </trkpt>
      <trkpt lat="49.30251" lon="1.14098">
        <ele>-6.9</ele>
        <time>2025-03-26T13:37:12.000Z</time>
      </trkpt>
      <trkpt lat="49.30251" lon="1.14098">
        <ele>-6.9</ele>
        <time>2025-03-26T13:37:13.000Z</time>
      </trkpt>
      <trkpt lat="49.30251" lon="1.14098">
        <ele>-7.1</ele>
        <time>2025-03-26T13:37:17.000Z</time>
      </trkpt>
      <trkpt lat="49.30251" lon="1.14098">
        <ele>-7.1</ele>
        <time>2025-03-26T13:37:18.000Z</time>
      </trkpt>
      <trkpt lat="49.30251" lon="1.14098">
        <ele>-7.1</ele>
        <time>2025-03-26T13:37:19.000Z</time>
      </trkpt>
      <trkpt lat="49.30251" lon="1.14098">
        <ele>-7.2</ele>
        <time>2025-03-26T13:37:20.000Z</time>
      </trkpt>
      <trkpt lat="49.30251" lon="1.14098">
        <ele>-7.2</ele>
        <time>2025-03-26T13:37:21.000Z</time>
      </trkpt>
      <trkpt lat="49.30251" lon="1.14098">
        <ele>-7.2</ele>
        <time>2025-03-26T13:37:22.000Z</time>
      </trkpt>
      <trkpt lat="49.30249" lon="1.14098">
        <ele>-7.5</ele>
        <time>2025-03-26T13:37:53.000Z</time>
      </trkpt>
      <trkpt lat="49.30248" lon="1.14096">
        <ele>-7.2</ele>
        <time>2025-03-26T13:38:00.000Z</time>
      </trkpt>
      <trkpt lat="49.30248" lon="1.14096">
        <ele>-7.2</ele>
        <time>2025-03-26T13:38:01.000Z</time>
      </trkpt>
      <trkpt lat="49.30247" lon="1.14092">
        <ele>-6.7</ele>
        <time>2025-03-26T13:38:37.000Z</time>
      </trkpt>
      <trkpt lat="49.30247" lon="1.1409">
        <ele>-6.7</ele>
        <time>2025-03-26T13:38:38.000Z</time>
      </trkpt>
      <trkpt lat="49.30247" lon="1.14089">
        <ele>-6.7</ele>
        <time>2025-03-26T13:38:39.000Z</time>
      </trkpt>
      <trkpt lat="49.30244" lon="1.14071">
        <ele>-6.7</ele>
        <time>2025-03-26T13:38:45.000Z</time>
      </trkpt>
      <trkpt lat="49.30243" lon="1.14055">
        <ele>-6.7</ele>
        <time>2025-03-26T13:38:48.000Z</time>
      </trkpt>
      <trkpt lat="49.3024" lon="1.14037">
        <ele>-6.7</ele>
        <time>2025-03-26T13:38:51.000Z</time>
      </trkpt>
      <trkpt lat="49.30236" lon="1.14024">
        <ele>-6.7</ele>
        <time>2025-03-26T13:38:53.000Z</time>
      </trkpt>
      <trkpt lat="49.30233" lon="1.14011">
        <ele>-6.6</ele>
        <time>2025-03-26T13:38:55.000Z</time>
      </trkpt>
      <trkpt lat="49.30227" lon="1.13992">
        <ele>-6.5</ele>
        <time>2025-03-26T13:38:58.000Z</time>
      </trkpt>
      <trkpt lat="49.30224" lon="1.13977">
        <ele>-6.5</ele>
        <time>2025-03-26T13:39:00.000Z</time>
      </trkpt>
      <trkpt lat="49.30219" lon="1.13962">
        <ele>-6.4</ele>
        <time>2025-03-26T13:39:02.000Z</time>
      </trkpt>
      <trkpt lat="49.30215" lon="1.13945">
        <ele>-6.4</ele>
        <time>2025-03-26T13:39:04.000Z</time>
      </trkpt>
      <trkpt lat="49.30212" lon="1.13926">
        <ele>-6.4</ele>
        <time>2025-03-26T13:39:06.000Z</time>
      </trkpt>
      <trkpt lat="49.3021" lon="1.13906">
        <ele>-6.5</ele>
        <time>2025-03-26T13:39:08.000Z</time>
      </trkpt>
      <trkpt lat="49.3021" lon="1.13885">
        <ele>-6.7</ele>
        <time>2025-03-26T13:39:10.000Z</time>
      </trkpt>
      <trkpt lat="49.30209" lon="1.13864">
        <ele>-6.9</ele>
        <time>2025-03-26T13:39:12.000Z</time>
      </trkpt>
      <trkpt lat="49.30208" lon="1.13842">
        <ele>-7.1</ele>
        <time>2025-03-26T13:39:14.000Z</time>
      </trkpt>
      <trkpt lat="49.30206" lon="1.1382">
        <ele>-7.3</ele>
        <time>2025-03-26T13:39:16.000Z</time>
      </trkpt>
      <trkpt lat="49.30203" lon="1.13799">
        <ele>-7.5</ele>
        <time>2025-03-26T13:39:18.000Z</time>
      </trkpt>
      <trkpt lat="49.30201" lon="1.13779">
        <ele>-8</ele>
        <time>2025-03-26T13:39:20.000Z</time>
      </trkpt>
      <trkpt lat="49.30198" lon="1.13762">
        <ele>-8.5</ele>
        <time>2025-03-26T13:39:22.000Z</time>
      </trkpt>
      <trkpt lat="49.30195" lon="1.13746">
        <ele>-8.9</ele>
        <time>2025-03-26T13:39:24.000Z</time>
      </trkpt>
      <trkpt lat="49.30193" lon="1.13729">
        <ele>-9.2</ele>
        <time>2025-03-26T13:39:26.000Z</time>
      </trkpt>
      <trkpt lat="49.3019" lon="1.13713">
        <ele>-9.4</ele>
        <time>2025-03-26T13:39:28.000Z</time>
      </trkpt>
      <trkpt lat="49.30187" lon="1.13697">
        <ele>-9.3</ele>
        <time>2025-03-26T13:39:30.000Z</time>
      </trkpt>
      <trkpt lat="49.30185" lon="1.13682">
        <ele>-9.1</ele>
        <time>2025-03-26T13:39:32.000Z</time>
      </trkpt>
      <trkpt lat="49.3018" lon="1.13668">
        <ele>-8.8</ele>
        <time>2025-03-26T13:39:35.000Z</time>
      </trkpt>
      <trkpt lat="49.3017" lon="1.13671">
        <ele>-8.3</ele>
        <time>2025-03-26T13:39:39.000Z</time>
      </trkpt>
      <trkpt lat="49.30159" lon="1.13675">
        <ele>-8</ele>
        <time>2025-03-26T13:39:42.000Z</time>
      </trkpt>
      <trkpt lat="49.30146" lon="1.13675">
        <ele>-7.7</ele>
        <time>2025-03-26T13:39:45.000Z</time>
      </trkpt>
      <trkpt lat="49.30136" lon="1.13675">
        <ele>-7.2</ele>
        <time>2025-03-26T13:39:47.000Z</time>
      </trkpt>
      <trkpt lat="49.30125" lon="1.13674">
        <ele>-6.8</ele>
        <time>2025-03-26T13:39:49.000Z</time>
      </trkpt>
      <trkpt lat="49.30114" lon="1.13673">
        <ele>-6.5</ele>
        <time>2025-03-26T13:39:51.000Z</time>
      </trkpt>
      <trkpt lat="49.30104" lon="1.13671">
        <ele>-6.1</ele>
        <time>2025-03-26T13:39:53.000Z</time>
      </trkpt>
      <trkpt lat="49.30093" lon="1.13669">
        <ele>-5.6</ele>
        <time>2025-03-26T13:39:55.000Z</time>
      </trkpt>
      <trkpt lat="49.30082" lon="1.13667">
        <ele>-5.1</ele>
        <time>2025-03-26T13:39:57.000Z</time>
      </trkpt>
      <trkpt lat="49.30072" lon="1.13666">
        <ele>-4.9</ele>
        <time>2025-03-26T13:39:59.000Z</time>
      </trkpt>
      <trkpt lat="49.30061" lon="1.13665">
        <ele>-4.5</ele>
        <time>2025-03-26T13:40:01.000Z</time>
      </trkpt>
      <trkpt lat="49.30051" lon="1.13663">
        <ele>-4.2</ele>
        <time>2025-03-26T13:40:03.000Z</time>
      </trkpt>
      <trkpt lat="49.3004" lon="1.13659">
        <ele>-3.8</ele>
        <time>2025-03-26T13:40:05.000Z</time>
      </trkpt>
      <trkpt lat="49.30028" lon="1.13656">
        <ele>-3.5</ele>
        <time>2025-03-26T13:40:07.000Z</time>
      </trkpt>
      <trkpt lat="49.30018" lon="1.13653">
        <ele>-3.1</ele>
        <time>2025-03-26T13:40:09.000Z</time>
      </trkpt>
      <trkpt lat="49.30008" lon="1.13649">
        <ele>-2.6</ele>
        <time>2025-03-26T13:40:11.000Z</time>
      </trkpt>
      <trkpt lat="49.29997" lon="1.13645">
        <ele>-2.1</ele>
        <time>2025-03-26T13:40:13.000Z</time>
      </trkpt>
      <trkpt lat="49.29987" lon="1.13643">
        <ele>-1.8</ele>
        <time>2025-03-26T13:40:15.000Z</time>
      </trkpt>
      <trkpt lat="49.29977" lon="1.13646">
        <ele>-1.4</ele>
        <time>2025-03-26T13:40:17.000Z</time>
      </trkpt>
      <trkpt lat="49.29967" lon="1.13656">
        <ele>-1</ele>
        <time>2025-03-26T13:40:19.000Z</time>
      </trkpt>
      <trkpt lat="49.29958" lon="1.13669">
        <ele>-0.5</ele>
        <time>2025-03-26T13:40:21.000Z</time>
      </trkpt>
      <trkpt lat="49.29948" lon="1.13684">
        <ele>-0.3</ele>
        <time>2025-03-26T13:40:23.000Z</time>
      </trkpt>
      <trkpt lat="49.29939" lon="1.137">
        <ele>-0.4</ele>
        <time>2025-03-26T13:40:25.000Z</time>
      </trkpt>
      <trkpt lat="49.2993" lon="1.13718">
        <ele>-0.6</ele>
        <time>2025-03-26T13:40:27.000Z</time>
      </trkpt>
      <trkpt lat="49.29924" lon="1.13733">
        <ele>-0.8</ele>
        <time>2025-03-26T13:40:29.000Z</time>
      </trkpt>
      <trkpt lat="49.29917" lon="1.13746">
        <ele>-1.2</ele>
        <time>2025-03-26T13:40:32.000Z</time>
      </trkpt>
      <trkpt lat="49.29908" lon="1.13738">
        <ele>-1.9</ele>
        <time>2025-03-26T13:40:36.000Z</time>
      </trkpt>
      <trkpt lat="49.29892" lon="1.13713">
        <ele>-2.1</ele>
        <time>2025-03-26T13:40:44.000Z</time>
      </trkpt>
      <trkpt lat="49.29886" lon="1.13711">
        <ele>-2</ele>
        <time>2025-03-26T13:40:45.000Z</time>
      </trkpt>
      <trkpt lat="49.29876" lon="1.13714">
        <ele>-2</ele>
        <time>2025-03-26T13:40:47.000Z</time>
      </trkpt>
      <trkpt lat="49.29868" lon="1.13723">
        <ele>-2</ele>
        <time>2025-03-26T13:40:49.000Z</time>
      </trkpt>
      <trkpt lat="49.29859" lon="1.13736">
        <ele>-1.9</ele>
        <time>2025-03-26T13:40:51.000Z</time>
      </trkpt>
      <trkpt lat="49.29849" lon="1.13749">
        <ele>-1.9</ele>
        <time>2025-03-26T13:40:53.000Z</time>
      </trkpt>
      <trkpt lat="49.2984" lon="1.13763">
        <ele>-2</ele>
        <time>2025-03-26T13:40:55.000Z</time>
      </trkpt>
      <trkpt lat="49.29832" lon="1.13778">
        <ele>-2</ele>
        <time>2025-03-26T13:40:57.000Z</time>
      </trkpt>
      <trkpt lat="49.29825" lon="1.13793">
        <ele>-2.1</ele>
        <time>2025-03-26T13:41:00.000Z</time>
      </trkpt>
      <trkpt lat="49.29814" lon="1.13787">
        <ele>-2.3</ele>
        <time>2025-03-26T13:41:04.000Z</time>
      </trkpt>
      <trkpt lat="49.29808" lon="1.13777">
        <ele>-2.4</ele>
        <time>2025-03-26T13:41:06.000Z</time>
      </trkpt>
      <trkpt lat="49.29801" lon="1.13768">
        <ele>-2.5</ele>
        <time>2025-03-26T13:41:09.000Z</time>
      </trkpt>
      <trkpt lat="49.29793" lon="1.13754">
        <ele>-2.5</ele>
        <time>2025-03-26T13:41:14.000Z</time>
      </trkpt>
      <trkpt lat="49.29783" lon="1.13743">
        <ele>-2.3</ele>
        <time>2025-03-26T13:41:18.000Z</time>
      </trkpt>
      <trkpt lat="49.29775" lon="1.13734">
        <ele>-2</ele>
        <time>2025-03-26T13:41:21.000Z</time>
      </trkpt>
      <trkpt lat="49.29768" lon="1.13723">
        <ele>-1.5</ele>
        <time>2025-03-26T13:41:24.000Z</time>
      </trkpt>
      <trkpt lat="49.29759" lon="1.13713">
        <ele>1.2</ele>
        <time>2025-03-26T13:41:28.000Z</time>
      </trkpt>
      <trkpt lat="49.29751" lon="1.13701">
        <ele>1.7</ele>
        <time>2025-03-26T13:41:32.000Z</time>
      </trkpt>
      <trkpt lat="49.29742" lon="1.13693">
        <ele>3</ele>
        <time>2025-03-26T13:41:35.000Z</time>
      </trkpt>
      <trkpt lat="49.29732" lon="1.13693">
        <ele>4.1</ele>
        <time>2025-03-26T13:41:39.000Z</time>
      </trkpt>
      <trkpt lat="49.29725" lon="1.13707">
        <ele>5</ele>
        <time>2025-03-26T13:41:42.000Z</time>
      </trkpt>
      <trkpt lat="49.29719" lon="1.13717">
        <ele>5.5</ele>
        <time>2025-03-26T13:41:44.000Z</time>
      </trkpt>
      <trkpt lat="49.29713" lon="1.13729">
        <ele>5.8</ele>
        <time>2025-03-26T13:41:46.000Z</time>
      </trkpt>
      <trkpt lat="49.29706" lon="1.13742">
        <ele>6.1</ele>
        <time>2025-03-26T13:41:48.000Z</time>
      </trkpt>
      <trkpt lat="49.297" lon="1.13754">
        <ele>6.3</ele>
        <time>2025-03-26T13:41:50.000Z</time>
      </trkpt>
      <trkpt lat="49.29694" lon="1.13767">
        <ele>6.4</ele>
        <time>2025-03-26T13:41:52.000Z</time>
      </trkpt>
      <trkpt lat="49.29688" lon="1.13777">
        <ele>6.6</ele>
        <time>2025-03-26T13:41:54.000Z</time>
      </trkpt>
      <trkpt lat="49.29682" lon="1.13789">
        <ele>6.8</ele>
        <time>2025-03-26T13:41:56.000Z</time>
      </trkpt>
      <trkpt lat="49.29675" lon="1.13802">
        <ele>7</ele>
        <time>2025-03-26T13:41:58.000Z</time>
      </trkpt>
      <trkpt lat="49.29668" lon="1.13817">
        <ele>7.3</ele>
        <time>2025-03-26T13:42:00.000Z</time>
      </trkpt>
      <trkpt lat="49.29661" lon="1.13831">
        <ele>7.5</ele>
        <time>2025-03-26T13:42:02.000Z</time>
      </trkpt>
      <trkpt lat="49.29653" lon="1.13844">
        <ele>7.5</ele>
        <time>2025-03-26T13:42:04.000Z</time>
      </trkpt>
      <trkpt lat="49.29646" lon="1.13858">
        <ele>7.7</ele>
        <time>2025-03-26T13:42:06.000Z</time>
      </trkpt>
      <trkpt lat="49.29639" lon="1.13872">
        <ele>7.7</ele>
        <time>2025-03-26T13:42:08.000Z</time>
      </trkpt>
      <trkpt lat="49.29633" lon="1.13886">
        <ele>7.6</ele>
        <time>2025-03-26T13:42:10.000Z</time>
      </trkpt>
      <trkpt lat="49.29627" lon="1.13901">
        <ele>7.5</ele>
        <time>2025-03-26T13:42:12.000Z</time>
      </trkpt>
      <trkpt lat="49.29621" lon="1.13915">
        <ele>7.5</ele>
        <time>2025-03-26T13:42:14.000Z</time>
      </trkpt>
      <trkpt lat="49.29614" lon="1.1393">
        <ele>7.3</ele>
        <time>2025-03-26T13:42:16.000Z</time>
      </trkpt>
      <trkpt lat="49.29608" lon="1.13941">
        <ele>7</ele>
        <time>2025-03-26T13:42:18.000Z</time>
      </trkpt>
      <trkpt lat="49.29599" lon="1.13951">
        <ele>6.4</ele>
        <time>2025-03-26T13:42:21.000Z</time>
      </trkpt>
      <trkpt lat="49.29589" lon="1.13956">
        <ele>6.1</ele>
        <time>2025-03-26T13:42:23.000Z</time>
      </trkpt>
      <trkpt lat="49.29578" lon="1.13959">
        <ele>5.8</ele>
        <time>2025-03-26T13:42:25.000Z</time>
      </trkpt>
      <trkpt lat="49.29567" lon="1.13962">
        <ele>5.6</ele>
        <time>2025-03-26T13:42:27.000Z</time>
      </trkpt>
      <trkpt lat="49.29556" lon="1.13962">
        <ele>5.6</ele>
        <time>2025-03-26T13:42:29.000Z</time>
      </trkpt>
      <trkpt lat="49.29544" lon="1.13963">
        <ele>5.6</ele>
        <time>2025-03-26T13:42:31.000Z</time>
      </trkpt>
      <trkpt lat="49.29532" lon="1.13965">
        <ele>5.6</ele>
        <time>2025-03-26T13:42:33.000Z</time>
      </trkpt>
      <trkpt lat="49.29521" lon="1.13968">
        <ele>5.7</ele>
        <time>2025-03-26T13:42:35.000Z</time>
      </trkpt>
      <trkpt lat="49.2951" lon="1.13971">
        <ele>5.8</ele>
        <time>2025-03-26T13:42:37.000Z</time>
      </trkpt>
      <trkpt lat="49.295" lon="1.13973">
        <ele>5.8</ele>
        <time>2025-03-26T13:42:39.000Z</time>
      </trkpt>
      <trkpt lat="49.29488" lon="1.13977">
        <ele>5.9</ele>
        <time>2025-03-26T13:42:42.000Z</time>
      </trkpt>
      <trkpt lat="49.29474" lon="1.13983">
        <ele>5.9</ele>
        <time>2025-03-26T13:42:45.000Z</time>
      </trkpt>
      <trkpt lat="49.29464" lon="1.13987">
        <ele>6</ele>
        <time>2025-03-26T13:42:47.000Z</time>
      </trkpt>
      <trkpt lat="49.29455" lon="1.1399">
        <ele>6</ele>
        <time>2025-03-26T13:42:49.000Z</time>
      </trkpt>
      <trkpt lat="49.29444" lon="1.13999">
        <ele>6.1</ele>
        <time>2025-03-26T13:42:52.000Z</time>
      </trkpt>
      <trkpt lat="49.29435" lon="1.14009">
        <ele>6.2</ele>
        <time>2025-03-26T13:42:55.000Z</time>
      </trkpt>
      <trkpt lat="49.29426" lon="1.1402">
        <ele>6.4</ele>
        <time>2025-03-26T13:42:58.000Z</time>
      </trkpt>
      <trkpt lat="49.29417" lon="1.14035">
        <ele>6.5</ele>
        <time>2025-03-26T13:43:01.000Z</time>
      </trkpt>
      <trkpt lat="49.2941" lon="1.14046">
        <ele>6.6</ele>
        <time>2025-03-26T13:43:03.000Z</time>
      </trkpt>
      <trkpt lat="49.29404" lon="1.14059">
        <ele>6.7</ele>
        <time>2025-03-26T13:43:05.000Z</time>
      </trkpt>
      <trkpt lat="49.29399" lon="1.14072">
        <ele>6.9</ele>
        <time>2025-03-26T13:43:07.000Z</time>
      </trkpt>
      <trkpt lat="49.29394" lon="1.14085">
        <ele>7</ele>
        <time>2025-03-26T13:43:09.000Z</time>
      </trkpt>
      <trkpt lat="49.29391" lon="1.14098">
        <ele>7.1</ele>
        <time>2025-03-26T13:43:12.000Z</time>
      </trkpt>
      <trkpt lat="49.29397" lon="1.14112">
        <ele>7.3</ele>
        <time>2025-03-26T13:43:15.000Z</time>
      </trkpt>
      <trkpt lat="49.29406" lon="1.14126">
        <ele>7.5</ele>
        <time>2025-03-26T13:43:18.000Z</time>
      </trkpt>
      <trkpt lat="49.29415" lon="1.14136">
        <ele>7.5</ele>
        <time>2025-03-26T13:43:20.000Z</time>
      </trkpt>
      <trkpt lat="49.29424" lon="1.14145">
        <ele>7.4</ele>
        <time>2025-03-26T13:43:22.000Z</time>
      </trkpt>
      <trkpt lat="49.29433" lon="1.14155">
        <ele>7.3</ele>
        <time>2025-03-26T13:43:24.000Z</time>
      </trkpt>
      <trkpt lat="49.29441" lon="1.14164">
        <ele>7.2</ele>
        <time>2025-03-26T13:43:26.000Z</time>
      </trkpt>
      <trkpt lat="49.29449" lon="1.14173">
        <ele>7</ele>
        <time>2025-03-26T13:43:28.000Z</time>
      </trkpt>
      <trkpt lat="49.29458" lon="1.14182">
        <ele>6.8</ele>
        <time>2025-03-26T13:43:30.000Z</time>
      </trkpt>
      <trkpt lat="49.29467" lon="1.14195">
        <ele>6.8</ele>
        <time>2025-03-26T13:43:33.000Z</time>
      </trkpt>
      <trkpt lat="49.29475" lon="1.14205">
        <ele>7</ele>
        <time>2025-03-26T13:43:36.000Z</time>
      </trkpt>
      <trkpt lat="49.29484" lon="1.14215">
        <ele>7.4</ele>
        <time>2025-03-26T13:43:39.000Z</time>
      </trkpt>
      <trkpt lat="49.29492" lon="1.14225">
        <ele>8.6</ele>
        <time>2025-03-26T13:43:42.000Z</time>
      </trkpt>
      <trkpt lat="49.29502" lon="1.14236">
        <ele>10.3</ele>
        <time>2025-03-26T13:43:45.000Z</time>
      </trkpt>
      <trkpt lat="49.29512" lon="1.14247">
        <ele>12.1</ele>
        <time>2025-03-26T13:43:48.000Z</time>
      </trkpt>
      <trkpt lat="49.29522" lon="1.14257">
        <ele>13.6</ele>
        <time>2025-03-26T13:43:51.000Z</time>
      </trkpt>
      <trkpt lat="49.29531" lon="1.14268">
        <ele>14.7</ele>
        <time>2025-03-26T13:43:54.000Z</time>
      </trkpt>
      <trkpt lat="49.29541" lon="1.1428">
        <ele>15.9</ele>
        <time>2025-03-26T13:43:57.000Z</time>
      </trkpt>
      <trkpt lat="49.2955" lon="1.14293">
        <ele>17</ele>
        <time>2025-03-26T13:44:00.000Z</time>
      </trkpt>
      <trkpt lat="49.2956" lon="1.14305">
        <ele>17.7</ele>
        <time>2025-03-26T13:44:03.000Z</time>
      </trkpt>
      <trkpt lat="49.29569" lon="1.14316">
        <ele>18.3</ele>
        <time>2025-03-26T13:44:06.000Z</time>
      </trkpt>
      <trkpt lat="49.2958" lon="1.14328">
        <ele>19.2</ele>
        <time>2025-03-26T13:44:09.000Z</time>
      </trkpt>
      <trkpt lat="49.29587" lon="1.14336">
        <ele>19.6</ele>
        <time>2025-03-26T13:44:11.000Z</time>
      </trkpt>
      <trkpt lat="49.29595" lon="1.14347">
        <ele>20.5</ele>
        <time>2025-03-26T13:44:14.000Z</time>
      </trkpt>
      <trkpt lat="49.29595" lon="1.14362">
        <ele>21.1</ele>
        <time>2025-03-26T13:44:18.000Z</time>
      </trkpt>
      <trkpt lat="49.29588" lon="1.14375">
        <ele>21.5</ele>
        <time>2025-03-26T13:44:21.000Z</time>
      </trkpt>
      <trkpt lat="49.29582" lon="1.1439">
        <ele>22</ele>
        <time>2025-03-26T13:44:24.000Z</time>
      </trkpt>
      <trkpt lat="49.29575" lon="1.14405">
        <ele>22.5</ele>
        <time>2025-03-26T13:44:27.000Z</time>
      </trkpt>
      <trkpt lat="49.29569" lon="1.14417">
        <ele>23</ele>
        <time>2025-03-26T13:44:29.000Z</time>
      </trkpt>
      <trkpt lat="49.29562" lon="1.14428">
        <ele>23.4</ele>
        <time>2025-03-26T13:44:31.000Z</time>
      </trkpt>
      <trkpt lat="49.29555" lon="1.14439">
        <ele>23.8</ele>
        <time>2025-03-26T13:44:33.000Z</time>
      </trkpt>
      <trkpt lat="49.29549" lon="1.14452">
        <ele>24.1</ele>
        <time>2025-03-26T13:44:35.000Z</time>
      </trkpt>
      <trkpt lat="49.29542" lon="1.14464">
        <ele>24.5</ele>
        <time>2025-03-26T13:44:37.000Z</time>
      </trkpt>
      <trkpt lat="49.29536" lon="1.14475">
        <ele>25</ele>
        <time>2025-03-26T13:44:39.000Z</time>
      </trkpt>
      <trkpt lat="49.29529" lon="1.14486">
        <ele>25.5</ele>
        <time>2025-03-26T13:44:41.000Z</time>
      </trkpt>
      <trkpt lat="49.29523" lon="1.14498">
        <ele>26</ele>
        <time>2025-03-26T13:44:43.000Z</time>
      </trkpt>
      <trkpt lat="49.29517" lon="1.1451">
        <ele>26.5</ele>
        <time>2025-03-26T13:44:45.000Z</time>
      </trkpt>
      <trkpt lat="49.29511" lon="1.14523">
        <ele>26.8</ele>
        <time>2025-03-26T13:44:47.000Z</time>
      </trkpt>
      <trkpt lat="49.29505" lon="1.14537">
        <ele>27</ele>
        <time>2025-03-26T13:44:49.000Z</time>
      </trkpt>
      <trkpt lat="49.29497" lon="1.1455">
        <ele>27.3</ele>
        <time>2025-03-26T13:44:51.000Z</time>
      </trkpt>
      <trkpt lat="49.2949" lon="1.14564">
        <ele>27.7</ele>
        <time>2025-03-26T13:44:53.000Z</time>
      </trkpt>
      <trkpt lat="49.29483" lon="1.14578">
        <ele>28.1</ele>
        <time>2025-03-26T13:44:55.000Z</time>
      </trkpt>
      <trkpt lat="49.29476" lon="1.1459">
        <ele>28.1</ele>
        <time>2025-03-26T13:44:57.000Z</time>
      </trkpt>
      <trkpt lat="49.2947" lon="1.14602">
        <ele>28.1</ele>
        <time>2025-03-26T13:44:59.000Z</time>
      </trkpt>
      <trkpt lat="49.29463" lon="1.14615">
        <ele>28.2</ele>
        <time>2025-03-26T13:45:01.000Z</time>
      </trkpt>
      <trkpt lat="49.29457" lon="1.14629">
        <ele>28.2</ele>
        <time>2025-03-26T13:45:03.000Z</time>
      </trkpt>
      <trkpt lat="49.2945" lon="1.14643">
        <ele>28.3</ele>
        <time>2025-03-26T13:45:05.000Z</time>
      </trkpt>
      <trkpt lat="49.29443" lon="1.14658">
        <ele>28.4</ele>
        <time>2025-03-26T13:45:07.000Z</time>
      </trkpt>
      <trkpt lat="49.29435" lon="1.14674">
        <ele>28.4</ele>
        <time>2025-03-26T13:45:09.000Z</time>
      </trkpt>
      <trkpt lat="49.29427" lon="1.14687">
        <ele>28.4</ele>
        <time>2025-03-26T13:45:11.000Z</time>
      </trkpt>
      <trkpt lat="49.2942" lon="1.147">
        <ele>28.4</ele>
        <time>2025-03-26T13:45:13.000Z</time>
      </trkpt>
      <trkpt lat="49.29413" lon="1.14714">
        <ele>28.4</ele>
        <time>2025-03-26T13:45:15.000Z</time>
      </trkpt>
      <trkpt lat="49.29407" lon="1.14726">
        <ele>28.3</ele>
        <time>2025-03-26T13:45:17.000Z</time>
      </trkpt>
      <trkpt lat="49.294" lon="1.1474">
        <ele>28.3</ele>
        <time>2025-03-26T13:45:19.000Z</time>
      </trkpt>
      <trkpt lat="49.29393" lon="1.14754">
        <ele>28.2</ele>
        <time>2025-03-26T13:45:21.000Z</time>
      </trkpt>
      <trkpt lat="49.29385" lon="1.14768">
        <ele>28.1</ele>
        <time>2025-03-26T13:45:23.000Z</time>
      </trkpt>
      <trkpt lat="49.29378" lon="1.14781">
        <ele>28.1</ele>
        <time>2025-03-26T13:45:25.000Z</time>
      </trkpt>
      <trkpt lat="49.29372" lon="1.14794">
        <ele>28</ele>
        <time>2025-03-26T13:45:27.000Z</time>
      </trkpt>
      <trkpt lat="49.29368" lon="1.14806">
        <ele>27.8</ele>
        <time>2025-03-26T13:45:30.000Z</time>
      </trkpt>
      <trkpt lat="49.2936" lon="1.14818">
        <ele>27.5</ele>
        <time>2025-03-26T13:45:35.000Z</time>
      </trkpt>
      <trkpt lat="49.29356" lon="1.14832">
        <ele>27.1</ele>
        <time>2025-03-26T13:45:39.000Z</time>
      </trkpt>
      <trkpt lat="49.29356" lon="1.14848">
        <ele>26.7</ele>
        <time>2025-03-26T13:45:44.000Z</time>
      </trkpt>
      <trkpt lat="49.29363" lon="1.14861">
        <ele>26.5</ele>
        <time>2025-03-26T13:45:48.000Z</time>
      </trkpt>
      <trkpt lat="49.29363" lon="1.14877">
        <ele>26.5</ele>
        <time>2025-03-26T13:45:52.000Z</time>
      </trkpt>
      <trkpt lat="49.29357" lon="1.14889">
        <ele>26.4</ele>
        <time>2025-03-26T13:45:57.000Z</time>
      </trkpt>
      <trkpt lat="49.29355" lon="1.14888">
        <ele>26.6</ele>
        <time>2025-03-26T13:46:12.000Z</time>
      </trkpt>
      <trkpt lat="49.29354" lon="1.14888">
        <ele>26.6</ele>
        <time>2025-03-26T13:46:13.000Z</time>
      </trkpt>
      <trkpt lat="49.29348" lon="1.14895">
        <ele>27</ele>
        <time>2025-03-26T13:46:30.000Z</time>
      </trkpt>
      <trkpt lat="49.29348" lon="1.14895">
        <ele>27</ele>
        <time>2025-03-26T13:46:31.000Z</time>
      </trkpt>
      <trkpt lat="49.29348" lon="1.14895">
        <ele>27.1</ele>
        <time>2025-03-26T13:46:32.000Z</time>
      </trkpt>
      <trkpt lat="49.29348" lon="1.14895">
        <ele>27.1</ele>
        <time>2025-03-26T13:46:33.000Z</time>
      </trkpt>
      <trkpt lat="49.29348" lon="1.14895">
        <ele>27.1</ele>
        <time>2025-03-26T13:46:34.000Z</time>
      </trkpt>
      <trkpt lat="49.29348" lon="1.14895">
        <ele>27.2</ele>
        <time>2025-03-26T13:46:35.000Z</time>
      </trkpt>
      <trkpt lat="49.29348" lon="1.14895">
        <ele>27.2</ele>
        <time>2025-03-26T13:46:36.000Z</time>
      </trkpt>
      <trkpt lat="49.29345" lon="1.149">
        <ele>27.3</ele>
        <time>2025-03-26T13:46:39.000Z</time>
      </trkpt>
      <trkpt lat="49.29345" lon="1.14903">
        <ele>27.3</ele>
        <time>2025-03-26T13:46:40.000Z</time>
      </trkpt>
      <trkpt lat="49.2934" lon="1.14916">
        <ele>27.4</ele>
        <time>2025-03-26T13:46:47.000Z</time>
      </trkpt>
      <trkpt lat="49.29335" lon="1.14928">
        <ele>27.6</ele>
        <time>2025-03-26T13:46:52.000Z</time>
      </trkpt>
      <trkpt lat="49.29332" lon="1.14943">
        <ele>27.9</ele>
        <time>2025-03-26T13:46:58.000Z</time>
      </trkpt>
      <trkpt lat="49.29325" lon="1.14953">
        <ele>28.3</ele>
        <time>2025-03-26T13:47:03.000Z</time>
      </trkpt>
      <trkpt lat="49.29315" lon="1.14958">
        <ele>28.6</ele>
        <time>2025-03-26T13:47:07.000Z</time>
      </trkpt>
      <trkpt lat="49.29304" lon="1.1496">
        <ele>29</ele>
        <time>2025-03-26T13:47:11.000Z</time>
      </trkpt>
      <trkpt lat="49.29291" lon="1.14957">
        <ele>29.3</ele>
        <time>2025-03-26T13:47:14.000Z</time>
      </trkpt>
      <trkpt lat="49.29281" lon="1.14954">
        <ele>29.4</ele>
        <time>2025-03-26T13:47:16.000Z</time>
      </trkpt>
      <trkpt lat="49.29269" lon="1.14951">
        <ele>29.4</ele>
        <time>2025-03-26T13:47:18.000Z</time>
      </trkpt>
      <trkpt lat="49.29258" lon="1.14948">
        <ele>29.5</ele>
        <time>2025-03-26T13:47:20.000Z</time>
      </trkpt>
      <trkpt lat="49.29247" lon="1.14945">
        <ele>29.5</ele>
        <time>2025-03-26T13:47:22.000Z</time>
      </trkpt>
      <trkpt lat="49.29236" lon="1.14941">
        <ele>29.6</ele>
        <time>2025-03-26T13:47:24.000Z</time>
      </trkpt>
      <trkpt lat="49.29226" lon="1.14938">
        <ele>29.7</ele>
        <time>2025-03-26T13:47:26.000Z</time>
      </trkpt>
      <trkpt lat="49.29216" lon="1.14936">
        <ele>29.7</ele>
        <time>2025-03-26T13:47:28.000Z</time>
      </trkpt>
      <trkpt lat="49.29206" lon="1.14933">
        <ele>29.7</ele>
        <time>2025-03-26T13:47:30.000Z</time>
      </trkpt>
      <trkpt lat="49.29197" lon="1.14931">
        <ele>29.6</ele>
        <time>2025-03-26T13:47:32.000Z</time>
      </trkpt>
      <trkpt lat="49.29186" lon="1.14928">
        <ele>29.5</ele>
        <time>2025-03-26T13:47:34.000Z</time>
      </trkpt>
      <trkpt lat="49.29174" lon="1.14925">
        <ele>29.4</ele>
        <time>2025-03-26T13:47:36.000Z</time>
      </trkpt>
      <trkpt lat="49.29162" lon="1.14922">
        <ele>29.3</ele>
        <time>2025-03-26T13:47:38.000Z</time>
      </trkpt>
      <trkpt lat="49.2915" lon="1.14919">
        <ele>29.3</ele>
        <time>2025-03-26T13:47:40.000Z</time>
      </trkpt>
      <trkpt lat="49.29137" lon="1.14914">
        <ele>29.1</ele>
        <time>2025-03-26T13:47:42.000Z</time>
      </trkpt>
      <trkpt lat="49.29125" lon="1.1491">
        <ele>29</ele>
        <time>2025-03-26T13:47:44.000Z</time>
      </trkpt>
      <trkpt lat="49.29112" lon="1.14906">
        <ele>28.6</ele>
        <time>2025-03-26T13:47:46.000Z</time>
      </trkpt>
      <trkpt lat="49.29099" lon="1.14903">
        <ele>28.3</ele>
        <time>2025-03-26T13:47:48.000Z</time>
      </trkpt>
      <trkpt lat="49.29087" lon="1.149">
        <ele>27.7</ele>
        <time>2025-03-26T13:47:50.000Z</time>
      </trkpt>
      <trkpt lat="49.29076" lon="1.14897">
        <ele>27.3</ele>
        <time>2025-03-26T13:47:52.000Z</time>
      </trkpt>
      <trkpt lat="49.29068" lon="1.14895">
        <ele>26.9</ele>
        <time>2025-03-26T13:47:54.000Z</time>
      </trkpt>
      <trkpt lat="49.29056" lon="1.14891">
        <ele>26.7</ele>
        <time>2025-03-26T13:47:57.000Z</time>
      </trkpt>
      <trkpt lat="49.29045" lon="1.14888">
        <ele>26.9</ele>
        <time>2025-03-26T13:48:00.000Z</time>
      </trkpt>
      <trkpt lat="49.29037" lon="1.14886">
        <ele>27.6</ele>
        <time>2025-03-26T13:48:12.000Z</time>
      </trkpt>
      <trkpt lat="49.29037" lon="1.14886">
        <ele>27.7</ele>
        <time>2025-03-26T13:48:13.000Z</time>
      </trkpt>
      <trkpt lat="49.29037" lon="1.14886">
        <ele>27.7</ele>
        <time>2025-03-26T13:48:14.000Z</time>
      </trkpt>
      <trkpt lat="49.29037" lon="1.14886">
        <ele>27.8</ele>
        <time>2025-03-26T13:48:15.000Z</time>
      </trkpt>
      <trkpt lat="49.29037" lon="1.14886">
        <ele>27.8</ele>
        <time>2025-03-26T13:48:16.000Z</time>
      </trkpt>
      <trkpt lat="49.29037" lon="1.14886">
        <ele>27.8</ele>
        <time>2025-03-26T13:48:17.000Z</time>
      </trkpt>
      <trkpt lat="49.29037" lon="1.14886">
        <ele>27.9</ele>
        <time>2025-03-26T13:48:18.000Z</time>
      </trkpt>
      <trkpt lat="49.29037" lon="1.14886">
        <ele>27.9</ele>
        <time>2025-03-26T13:48:19.000Z</time>
      </trkpt>
      <trkpt lat="49.29035" lon="1.14884">
        <ele>28.1</ele>
        <time>2025-03-26T13:48:25.000Z</time>
      </trkpt>
      <trkpt lat="49.29035" lon="1.14884">
        <ele>28.1</ele>
        <time>2025-03-26T13:48:26.000Z</time>
      </trkpt>
      <trkpt lat="49.29038" lon="1.14868">
        <ele>28.3</ele>
        <time>2025-03-26T13:48:31.000Z</time>
      </trkpt>
      <trkpt lat="49.2904" lon="1.14852">
        <ele>28.3</ele>
        <time>2025-03-26T13:48:34.000Z</time>
      </trkpt>
      <trkpt lat="49.29042" lon="1.14833">
        <ele>28.3</ele>
        <time>2025-03-26T13:48:37.000Z</time>
      </trkpt>
      <trkpt lat="49.29045" lon="1.14813">
        <ele>28.4</ele>
        <time>2025-03-26T13:48:40.000Z</time>
      </trkpt>
      <trkpt lat="49.29048" lon="1.14794">
        <ele>28.4</ele>
        <time>2025-03-26T13:48:43.000Z</time>
      </trkpt>
      <trkpt lat="49.29049" lon="1.14776">
        <ele>28.4</ele>
        <time>2025-03-26T13:48:46.000Z</time>
      </trkpt>
      <trkpt lat="49.2905" lon="1.14761">
        <ele>28.5</ele>
        <time>2025-03-26T13:48:49.000Z</time>
      </trkpt>
      <trkpt lat="49.29052" lon="1.14745">
        <ele>28.6</ele>
        <time>2025-03-26T13:48:52.000Z</time>
      </trkpt>
      <trkpt lat="49.29054" lon="1.14725">
        <ele>28.8</ele>
        <time>2025-03-26T13:48:55.000Z</time>
      </trkpt>
      <trkpt lat="49.29053" lon="1.14708">
        <ele>29</ele>
        <time>2025-03-26T13:48:58.000Z</time>
      </trkpt>
      <trkpt lat="49.29044" lon="1.14703">
        <ele>29.1</ele>
        <time>2025-03-26T13:49:01.000Z</time>
      </trkpt>
      <trkpt lat="49.29032" lon="1.14707">
        <ele>29.2</ele>
        <time>2025-03-26T13:49:04.000Z</time>
      </trkpt>
      <trkpt lat="49.29019" lon="1.14714">
        <ele>29.3</ele>
        <time>2025-03-26T13:49:07.000Z</time>
      </trkpt>
      <trkpt lat="49.2901" lon="1.14718">
        <ele>29.4</ele>
        <time>2025-03-26T13:49:09.000Z</time>
      </trkpt>
      <trkpt lat="49.29001" lon="1.14722">
        <ele>29.5</ele>
        <time>2025-03-26T13:49:11.000Z</time>
      </trkpt>
      <trkpt lat="49.28992" lon="1.14725">
        <ele>29.6</ele>
        <time>2025-03-26T13:49:13.000Z</time>
      </trkpt>
      <trkpt lat="49.2898" lon="1.14727">
        <ele>30</ele>
        <time>2025-03-26T13:49:16.000Z</time>
      </trkpt>
      <trkpt lat="49.2897" lon="1.14729">
        <ele>30.6</ele>
        <time>2025-03-26T13:49:20.000Z</time>
      </trkpt>
      <trkpt lat="49.28961" lon="1.1473">
        <ele>31.2</ele>
        <time>2025-03-26T13:49:23.000Z</time>
      </trkpt>
      <trkpt lat="49.28952" lon="1.1473">
        <ele>31.7</ele>
        <time>2025-03-26T13:49:26.000Z</time>
      </trkpt>
      <trkpt lat="49.28951" lon="1.14732">
        <ele>32.5</ele>
        <time>2025-03-26T13:49:33.000Z</time>
      </trkpt>
      <trkpt lat="49.28951" lon="1.14732">
        <ele>32.6</ele>
        <time>2025-03-26T13:49:34.000Z</time>
      </trkpt>
      <trkpt lat="49.28951" lon="1.14732">
        <ele>32.6</ele>
        <time>2025-03-26T13:49:35.000Z</time>
      </trkpt>
      <trkpt lat="49.28949" lon="1.14732">
        <ele>33</ele>
        <time>2025-03-26T13:49:45.000Z</time>
      </trkpt>
      <trkpt lat="49.28948" lon="1.14732">
        <ele>33</ele>
        <time>2025-03-26T13:49:46.000Z</time>
      </trkpt>
      <trkpt lat="49.28938" lon="1.14732">
        <ele>33.2</ele>
        <time>2025-03-26T13:49:50.000Z</time>
      </trkpt>
      <trkpt lat="49.28929" lon="1.14731">
        <ele>33.3</ele>
        <time>2025-03-26T13:49:52.000Z</time>
      </trkpt>
      <trkpt lat="49.2892" lon="1.14728">
        <ele>33.3</ele>
        <time>2025-03-26T13:49:54.000Z</time>
      </trkpt>
      <trkpt lat="49.2891" lon="1.14723">
        <ele>33.3</ele>
        <time>2025-03-26T13:49:56.000Z</time>
      </trkpt>
      <trkpt lat="49.28899" lon="1.1472">
        <ele>33.4</ele>
        <time>2025-03-26T13:49:58.000Z</time>
      </trkpt>
      <trkpt lat="49.28887" lon="1.14722">
        <ele>33.5</ele>
        <time>2025-03-26T13:50:00.000Z</time>
      </trkpt>
      <trkpt lat="49.28876" lon="1.14729">
        <ele>33.6</ele>
        <time>2025-03-26T13:50:02.000Z</time>
      </trkpt>
      <trkpt lat="49.28869" lon="1.14738">
        <ele>33.7</ele>
        <time>2025-03-26T13:50:04.000Z</time>
      </trkpt>
      <trkpt lat="49.28862" lon="1.14747">
        <ele>33.9</ele>
        <time>2025-03-26T13:50:06.000Z</time>
      </trkpt>
      <trkpt lat="49.28853" lon="1.14754">
        <ele>34.1</ele>
        <time>2025-03-26T13:50:08.000Z</time>
      </trkpt>
      <trkpt lat="49.28844" lon="1.1476">
        <ele>34.4</ele>
        <time>2025-03-26T13:50:10.000Z</time>
      </trkpt>
      <trkpt lat="49.28834" lon="1.14766">
        <ele>34.7</ele>
        <time>2025-03-26T13:50:12.000Z</time>
      </trkpt>
      <trkpt lat="49.28824" lon="1.14774">
        <ele>35.1</ele>
        <time>2025-03-26T13:50:14.000Z</time>
      </trkpt>
      <trkpt lat="49.28814" lon="1.14784">
        <ele>35.4</ele>
        <time>2025-03-26T13:50:16.000Z</time>
      </trkpt>
      <trkpt lat="49.28806" lon="1.14796">
        <ele>35.6</ele>
        <time>2025-03-26T13:50:18.000Z</time>
      </trkpt>
      <trkpt lat="49.28798" lon="1.14807">
        <ele>36</ele>
        <time>2025-03-26T13:50:20.000Z</time>
      </trkpt>
      <trkpt lat="49.28789" lon="1.14816">
        <ele>36.5</ele>
        <time>2025-03-26T13:50:22.000Z</time>
      </trkpt>
      <trkpt lat="49.28778" lon="1.14821">
        <ele>37</ele>
        <time>2025-03-26T13:50:24.000Z</time>
      </trkpt>
      <trkpt lat="49.28767" lon="1.14824">
        <ele>37.2</ele>
        <time>2025-03-26T13:50:26.000Z</time>
      </trkpt>
      <trkpt lat="49.28756" lon="1.14827">
        <ele>37.5</ele>
        <time>2025-03-26T13:50:28.000Z</time>
      </trkpt>
      <trkpt lat="49.28744" lon="1.14831">
        <ele>37.8</ele>
        <time>2025-03-26T13:50:30.000Z</time>
      </trkpt>
      <trkpt lat="49.28733" lon="1.14834">
        <ele>38</ele>
        <time>2025-03-26T13:50:32.000Z</time>
      </trkpt>
      <trkpt lat="49.28722" lon="1.14838">
        <ele>38.1</ele>
        <time>2025-03-26T13:50:34.000Z</time>
      </trkpt>
      <trkpt lat="49.28711" lon="1.14842">
        <ele>38.4</ele>
        <time>2025-03-26T13:50:36.000Z</time>
      </trkpt>
      <trkpt lat="49.287" lon="1.14845">
        <ele>38.6</ele>
        <time>2025-03-26T13:50:38.000Z</time>
      </trkpt>
      <trkpt lat="49.28688" lon="1.14847">
        <ele>38.7</ele>
        <time>2025-03-26T13:50:40.000Z</time>
      </trkpt>
      <trkpt lat="49.28677" lon="1.14847">
        <ele>39.2</ele>
        <time>2025-03-26T13:50:42.000Z</time>
      </trkpt>
      <trkpt lat="49.28666" lon="1.14845">
        <ele>39.7</ele>
        <time>2025-03-26T13:50:44.000Z</time>
      </trkpt>
      <trkpt lat="49.28655" lon="1.1484">
        <ele>40.2</ele>
        <time>2025-03-26T13:50:46.000Z</time>
      </trkpt>
      <trkpt lat="49.28644" lon="1.14834">
        <ele>40.5</ele>
        <time>2025-03-26T13:50:48.000Z</time>
      </trkpt>
      <trkpt lat="49.28633" lon="1.14828">
        <ele>40.7</ele>
        <time>2025-03-26T13:50:50.000Z</time>
      </trkpt>
      <trkpt lat="49.28622" lon="1.14821">
        <ele>40.9</ele>
        <time>2025-03-26T13:50:52.000Z</time>
      </trkpt>
      <trkpt lat="49.28612" lon="1.14815">
        <ele>41</ele>
        <time>2025-03-26T13:50:54.000Z</time>
      </trkpt>
      <trkpt lat="49.28601" lon="1.14811">
        <ele>41.1</ele>
        <time>2025-03-26T13:50:56.000Z</time>
      </trkpt>
      <trkpt lat="49.28591" lon="1.14805">
        <ele>41.1</ele>
        <time>2025-03-26T13:50:58.000Z</time>
      </trkpt>
      <trkpt lat="49.28581" lon="1.148">
        <ele>41.3</ele>
        <time>2025-03-26T13:51:00.000Z</time>
      </trkpt>
      <trkpt lat="49.28571" lon="1.14794">
        <ele>41.5</ele>
        <time>2025-03-26T13:51:02.000Z</time>
      </trkpt>
      <trkpt lat="49.28561" lon="1.1479">
        <ele>41.6</ele>
        <time>2025-03-26T13:51:04.000Z</time>
      </trkpt>
      <trkpt lat="49.28551" lon="1.14786">
        <ele>41.9</ele>
        <time>2025-03-26T13:51:06.000Z</time>
      </trkpt>
      <trkpt lat="49.28541" lon="1.14782">
        <ele>42.3</ele>
        <time>2025-03-26T13:51:08.000Z</time>
      </trkpt>
      <trkpt lat="49.28532" lon="1.14776">
        <ele>42.6</ele>
        <time>2025-03-26T13:51:10.000Z</time>
      </trkpt>
      <trkpt lat="49.28523" lon="1.14768">
        <ele>42.9</ele>
        <time>2025-03-26T13:51:12.000Z</time>
      </trkpt>
      <trkpt lat="49.28514" lon="1.1476">
        <ele>43.3</ele>
        <time>2025-03-26T13:51:14.000Z</time>
      </trkpt>
      <trkpt lat="49.28505" lon="1.14751">
        <ele>43.9</ele>
        <time>2025-03-26T13:51:16.000Z</time>
      </trkpt>
      <trkpt lat="49.28496" lon="1.14743">
        <ele>44.4</ele>
        <time>2025-03-26T13:51:18.000Z</time>
      </trkpt>
      <trkpt lat="49.28486" lon="1.14735">
        <ele>45</ele>
        <time>2025-03-26T13:51:20.000Z</time>
      </trkpt>
      <trkpt lat="49.28476" lon="1.14727">
        <ele>45.4</ele>
        <time>2025-03-26T13:51:22.000Z</time>
      </trkpt>
      <trkpt lat="49.28466" lon="1.14719">
        <ele>45.6</ele>
        <time>2025-03-26T13:51:24.000Z</time>
      </trkpt>
      <trkpt lat="49.28456" lon="1.14712">
        <ele>46</ele>
        <time>2025-03-26T13:51:26.000Z</time>
      </trkpt>
      <trkpt lat="49.28446" lon="1.14705">
        <ele>46.4</ele>
        <time>2025-03-26T13:51:28.000Z</time>
      </trkpt>
      <trkpt lat="49.28437" lon="1.14699">
        <ele>47</ele>
        <time>2025-03-26T13:51:30.000Z</time>
      </trkpt>
      <trkpt lat="49.28428" lon="1.14692">
        <ele>47.5</ele>
        <time>2025-03-26T13:51:32.000Z</time>
      </trkpt>
      <trkpt lat="49.28418" lon="1.14681">
        <ele>48.3</ele>
        <time>2025-03-26T13:51:35.000Z</time>
      </trkpt>
      <trkpt lat="49.2841" lon="1.14671">
        <ele>48.9</ele>
        <time>2025-03-26T13:51:38.000Z</time>
      </trkpt>
      <trkpt lat="49.284" lon="1.14659">
        <ele>49.5</ele>
        <time>2025-03-26T13:51:41.000Z</time>
      </trkpt>
      <trkpt lat="49.28392" lon="1.14645">
        <ele>50.1</ele>
        <time>2025-03-26T13:51:44.000Z</time>
      </trkpt>
      <trkpt lat="49.28383" lon="1.14629">
        <ele>50.9</ele>
        <time>2025-03-26T13:51:47.000Z</time>
      </trkpt>
      <trkpt lat="49.28375" lon="1.14615">
        <ele>51.6</ele>
        <time>2025-03-26T13:51:50.000Z</time>
      </trkpt>
      <trkpt lat="49.28368" lon="1.14602">
        <ele>52.2</ele>
        <time>2025-03-26T13:51:53.000Z</time>
      </trkpt>
      <trkpt lat="49.28362" lon="1.14588">
        <ele>52.8</ele>
        <time>2025-03-26T13:51:56.000Z</time>
      </trkpt>
      <trkpt lat="49.28356" lon="1.14574">
        <ele>53.3</ele>
        <time>2025-03-26T13:51:59.000Z</time>
      </trkpt>
      <trkpt lat="49.28351" lon="1.14562">
        <ele>53.8</ele>
        <time>2025-03-26T13:52:02.000Z</time>
      </trkpt>
      <trkpt lat="49.28346" lon="1.1455">
        <ele>54.2</ele>
        <time>2025-03-26T13:52:05.000Z</time>
      </trkpt>
      <trkpt lat="49.28338" lon="1.14537">
        <ele>54.6</ele>
        <time>2025-03-26T13:52:08.000Z</time>
      </trkpt>
      <trkpt lat="49.2833" lon="1.14524">
        <ele>54.9</ele>
        <time>2025-03-26T13:52:11.000Z</time>
      </trkpt>
      <trkpt lat="49.28321" lon="1.14513">
        <ele>55.2</ele>
        <time>2025-03-26T13:52:14.000Z</time>
      </trkpt>
      <trkpt lat="49.28314" lon="1.145">
        <ele>55.7</ele>
        <time>2025-03-26T13:52:18.000Z</time>
      </trkpt>
      <trkpt lat="49.28311" lon="1.14498">
        <ele>57.7</ele>
        <time>2025-03-26T13:52:58.000Z</time>
      </trkpt>
      <trkpt lat="49.28311" lon="1.14498">
        <ele>57.7</ele>
        <time>2025-03-26T13:52:59.000Z</time>
      </trkpt>
      <trkpt lat="49.28306" lon="1.14495">
        <ele>58.1</ele>
        <time>2025-03-26T13:53:26.000Z</time>
      </trkpt>
      <trkpt lat="49.28298" lon="1.14484">
        <ele>58.3</ele>
        <time>2025-03-26T13:53:31.000Z</time>
      </trkpt>
      <trkpt lat="49.2829" lon="1.14474">
        <ele>58.4</ele>
        <time>2025-03-26T13:53:34.000Z</time>
      </trkpt>
      <trkpt lat="49.28281" lon="1.14464">
        <ele>58.7</ele>
        <time>2025-03-26T13:53:37.000Z</time>
      </trkpt>
      <trkpt lat="49.28271" lon="1.14451">
        <ele>59</ele>
        <time>2025-03-26T13:53:40.000Z</time>
      </trkpt>
      <trkpt lat="49.28265" lon="1.14441">
        <ele>59.4</ele>
        <time>2025-03-26T13:53:42.000Z</time>
      </trkpt>
      <trkpt lat="49.28256" lon="1.14427">
        <ele>60.1</ele>
        <time>2025-03-26T13:53:45.000Z</time>
      </trkpt>
      <trkpt lat="49.28245" lon="1.14416">
        <ele>60.6</ele>
        <time>2025-03-26T13:53:48.000Z</time>
      </trkpt>
      <trkpt lat="49.28238" lon="1.14408">
        <ele>60.9</ele>
        <time>2025-03-26T13:53:50.000Z</time>
      </trkpt>
      <trkpt lat="49.28229" lon="1.14401">
        <ele>61.2</ele>
        <time>2025-03-26T13:53:52.000Z</time>
      </trkpt>
      <trkpt lat="49.28221" lon="1.14396">
        <ele>61.6</ele>
        <time>2025-03-26T13:53:54.000Z</time>
      </trkpt>
      <trkpt lat="49.28208" lon="1.14388">
        <ele>62.4</ele>
        <time>2025-03-26T13:53:57.000Z</time>
      </trkpt>
      <trkpt lat="49.282" lon="1.14383">
        <ele>62.8</ele>
        <time>2025-03-26T13:53:59.000Z</time>
      </trkpt>
      <trkpt lat="49.28188" lon="1.14373">
        <ele>63.4</ele>
        <time>2025-03-26T13:54:02.000Z</time>
      </trkpt>
      <trkpt lat="49.28179" lon="1.14365">
        <ele>64</ele>
        <time>2025-03-26T13:54:04.000Z</time>
      </trkpt>
      <trkpt lat="49.28171" lon="1.14357">
        <ele>64.5</ele>
        <time>2025-03-26T13:54:06.000Z</time>
      </trkpt>
      <trkpt lat="49.28163" lon="1.14348">
        <ele>64.9</ele>
        <time>2025-03-26T13:54:08.000Z</time>
      </trkpt>
      <trkpt lat="49.28154" lon="1.1434">
        <ele>65.3</ele>
        <time>2025-03-26T13:54:10.000Z</time>
      </trkpt>
      <trkpt lat="49.28146" lon="1.14333">
        <ele>65.8</ele>
        <time>2025-03-26T13:54:12.000Z</time>
      </trkpt>
      <trkpt lat="49.28138" lon="1.14326">
        <ele>66</ele>
        <time>2025-03-26T13:54:14.000Z</time>
      </trkpt>
      <trkpt lat="49.2813" lon="1.14317">
        <ele>66.4</ele>
        <time>2025-03-26T13:54:16.000Z</time>
      </trkpt>
      <trkpt lat="49.28122" lon="1.14308">
        <ele>66.7</ele>
        <time>2025-03-26T13:54:18.000Z</time>
      </trkpt>
      <trkpt lat="49.28114" lon="1.143">
        <ele>67.1</ele>
        <time>2025-03-26T13:54:20.000Z</time>
      </trkpt>
      <trkpt lat="49.28104" lon="1.1429">
        <ele>67.7</ele>
        <time>2025-03-26T13:54:22.000Z</time>
      </trkpt>
      <trkpt lat="49.28095" lon="1.1428">
        <ele>68.3</ele>
        <time>2025-03-26T13:54:24.000Z</time>
      </trkpt>
      <trkpt lat="49.28087" lon="1.1427">
        <ele>68.9</ele>
        <time>2025-03-26T13:54:26.000Z</time>
      </trkpt>
      <trkpt lat="49.28079" lon="1.14261">
        <ele>69.4</ele>
        <time>2025-03-26T13:54:28.000Z</time>
      </trkpt>
      <trkpt lat="49.28072" lon="1.14252">
        <ele>69.7</ele>
        <time>2025-03-26T13:54:30.000Z</time>
      </trkpt>
      <trkpt lat="49.28065" lon="1.14243">
        <ele>70</ele>
        <time>2025-03-26T13:54:32.000Z</time>
      </trkpt>
      <trkpt lat="49.28057" lon="1.14233">
        <ele>70.4</ele>
        <time>2025-03-26T13:54:34.000Z</time>
      </trkpt>
      <trkpt lat="49.2805" lon="1.14223">
        <ele>70.9</ele>
        <time>2025-03-26T13:54:36.000Z</time>
      </trkpt>
      <trkpt lat="49.28042" lon="1.14213">
        <ele>71.3</ele>
        <time>2025-03-26T13:54:38.000Z</time>
      </trkpt>
      <trkpt lat="49.28035" lon="1.14204">
        <ele>71.7</ele>
        <time>2025-03-26T13:54:40.000Z</time>
      </trkpt>
      <trkpt lat="49.28029" lon="1.14195">
        <ele>72</ele>
        <time>2025-03-26T13:54:42.000Z</time>
      </trkpt>
      <trkpt lat="49.28019" lon="1.14184">
        <ele>72.6</ele>
        <time>2025-03-26T13:54:45.000Z</time>
      </trkpt>
      <trkpt lat="49.28011" lon="1.14173">
        <ele>73.2</ele>
        <time>2025-03-26T13:54:48.000Z</time>
      </trkpt>
      <trkpt lat="49.28003" lon="1.14166">
        <ele>73.7</ele>
        <time>2025-03-26T13:54:50.000Z</time>
      </trkpt>
      <trkpt lat="49.27993" lon="1.14155">
        <ele>74.5</ele>
        <time>2025-03-26T13:54:53.000Z</time>
      </trkpt>
      <trkpt lat="49.27986" lon="1.14146">
        <ele>75</ele>
        <time>2025-03-26T13:54:55.000Z</time>
      </trkpt>
      <trkpt lat="49.27975" lon="1.14136">
        <ele>75.6</ele>
        <time>2025-03-26T13:54:58.000Z</time>
      </trkpt>
      <trkpt lat="49.27966" lon="1.14128">
        <ele>75.9</ele>
        <time>2025-03-26T13:55:00.000Z</time>
      </trkpt>
      <trkpt lat="49.27957" lon="1.14121">
        <ele>76.6</ele>
        <time>2025-03-26T13:55:02.000Z</time>
      </trkpt>
      <trkpt lat="49.27949" lon="1.14115">
        <ele>77</ele>
        <time>2025-03-26T13:55:04.000Z</time>
      </trkpt>
      <trkpt lat="49.27938" lon="1.14109">
        <ele>77.9</ele>
        <time>2025-03-26T13:55:07.000Z</time>
      </trkpt>
      <trkpt lat="49.27929" lon="1.14106">
        <ele>78.3</ele>
        <time>2025-03-26T13:55:09.000Z</time>
      </trkpt>
      <trkpt lat="49.2792" lon="1.14104">
        <ele>78.7</ele>
        <time>2025-03-26T13:55:11.000Z</time>
      </trkpt>
      <trkpt lat="49.2791" lon="1.14102">
        <ele>79</ele>
        <time>2025-03-26T13:55:13.000Z</time>
      </trkpt>
      <trkpt lat="49.27901" lon="1.14099">
        <ele>79.4</ele>
        <time>2025-03-26T13:55:15.000Z</time>
      </trkpt>
      <trkpt lat="49.27891" lon="1.14097">
        <ele>80.1</ele>
        <time>2025-03-26T13:55:17.000Z</time>
      </trkpt>
      <trkpt lat="49.27881" lon="1.14096">
        <ele>80.3</ele>
        <time>2025-03-26T13:55:19.000Z</time>
      </trkpt>
      <trkpt lat="49.27871" lon="1.14094">
        <ele>80.6</ele>
        <time>2025-03-26T13:55:21.000Z</time>
      </trkpt>
      <trkpt lat="49.27861" lon="1.14092">
        <ele>81</ele>
        <time>2025-03-26T13:55:23.000Z</time>
      </trkpt>
      <trkpt lat="49.2785" lon="1.1409">
        <ele>81.2</ele>
        <time>2025-03-26T13:55:25.000Z</time>
      </trkpt>
      <trkpt lat="49.2784" lon="1.14087">
        <ele>81.5</ele>
        <time>2025-03-26T13:55:27.000Z</time>
      </trkpt>
      <trkpt lat="49.27829" lon="1.14084">
        <ele>81.6</ele>
        <time>2025-03-26T13:55:29.000Z</time>
      </trkpt>
      <trkpt lat="49.27818" lon="1.14083">
        <ele>81.9</ele>
        <time>2025-03-26T13:55:31.000Z</time>
      </trkpt>
      <trkpt lat="49.27808" lon="1.14082">
        <ele>82.3</ele>
        <time>2025-03-26T13:55:33.000Z</time>
      </trkpt>
      <trkpt lat="49.27797" lon="1.14081">
        <ele>82.6</ele>
        <time>2025-03-26T13:55:35.000Z</time>
      </trkpt>
      <trkpt lat="49.27787" lon="1.14081">
        <ele>83</ele>
        <time>2025-03-26T13:55:37.000Z</time>
      </trkpt>
      <trkpt lat="49.27774" lon="1.14082">
        <ele>83.6</ele>
        <time>2025-03-26T13:55:40.000Z</time>
      </trkpt>
      <trkpt lat="49.27761" lon="1.14083">
        <ele>84.4</ele>
        <time>2025-03-26T13:55:43.000Z</time>
      </trkpt>
      <trkpt lat="49.27748" lon="1.14085">
        <ele>85.5</ele>
        <time>2025-03-26T13:55:46.000Z</time>
      </trkpt>
      <trkpt lat="49.27736" lon="1.14086">
        <ele>86.2</ele>
        <time>2025-03-26T13:55:49.000Z</time>
      </trkpt>
      <trkpt lat="49.27722" lon="1.14085">
        <ele>87.1</ele>
        <time>2025-03-26T13:55:52.000Z</time>
      </trkpt>
      <trkpt lat="49.27713" lon="1.14085">
        <ele>87.6</ele>
        <time>2025-03-26T13:55:54.000Z</time>
      </trkpt>
      <trkpt lat="49.27703" lon="1.14084">
        <ele>88.2</ele>
        <time>2025-03-26T13:55:56.000Z</time>
      </trkpt>
      <trkpt lat="49.2769" lon="1.14083">
        <ele>89</ele>
        <time>2025-03-26T13:55:59.000Z</time>
      </trkpt>
      <trkpt lat="49.27677" lon="1.14089">
        <ele>89.6</ele>
        <time>2025-03-26T13:56:02.000Z</time>
      </trkpt>
      <trkpt lat="49.27665" lon="1.14096">
        <ele>90.3</ele>
        <time>2025-03-26T13:56:05.000Z</time>
      </trkpt>
      <trkpt lat="49.27654" lon="1.14102">
        <ele>90.8</ele>
        <time>2025-03-26T13:56:08.000Z</time>
      </trkpt>
      <trkpt lat="49.27642" lon="1.1411">
        <ele>91.5</ele>
        <time>2025-03-26T13:56:11.000Z</time>
      </trkpt>
      <trkpt lat="49.27632" lon="1.1412">
        <ele>92.3</ele>
        <time>2025-03-26T13:56:14.000Z</time>
      </trkpt>
      <trkpt lat="49.27623" lon="1.14131">
        <ele>93.2</ele>
        <time>2025-03-26T13:56:17.000Z</time>
      </trkpt>
      <trkpt lat="49.27617" lon="1.14146">
        <ele>94</ele>
        <time>2025-03-26T13:56:20.000Z</time>
      </trkpt>
      <trkpt lat="49.27611" lon="1.14162">
        <ele>94.9</ele>
        <time>2025-03-26T13:56:23.000Z</time>
      </trkpt>
      <trkpt lat="49.27604" lon="1.14175">
        <ele>96.1</ele>
        <time>2025-03-26T13:56:26.000Z</time>
      </trkpt>
      <trkpt lat="49.27595" lon="1.14185">
        <ele>97.4</ele>
        <time>2025-03-26T13:56:30.000Z</time>
      </trkpt>
      <trkpt lat="49.27587" lon="1.14191">
        <ele>98.4</ele>
        <time>2025-03-26T13:56:33.000Z</time>
      </trkpt>
      <trkpt lat="49.27577" lon="1.14193">
        <ele>99.7</ele>
        <time>2025-03-26T13:56:36.000Z</time>
      </trkpt>
      <trkpt lat="49.27568" lon="1.14193">
        <ele>100.7</ele>
        <time>2025-03-26T13:56:39.000Z</time>
      </trkpt>
      <trkpt lat="49.27559" lon="1.14191">
        <ele>101.9</ele>
        <time>2025-03-26T13:56:42.000Z</time>
      </trkpt>
      <trkpt lat="49.27549" lon="1.1419">
        <ele>102.9</ele>
        <time>2025-03-26T13:56:45.000Z</time>
      </trkpt>
      <trkpt lat="49.27538" lon="1.14187">
        <ele>104.3</ele>
        <time>2025-03-26T13:56:49.000Z</time>
      </trkpt>
      <trkpt lat="49.27529" lon="1.14182">
        <ele>105.2</ele>
        <time>2025-03-26T13:56:52.000Z</time>
      </trkpt>
      <trkpt lat="49.2752" lon="1.14179">
        <ele>106.1</ele>
        <time>2025-03-26T13:56:55.000Z</time>
      </trkpt>
      <trkpt lat="49.2751" lon="1.14176">
        <ele>106.9</ele>
        <time>2025-03-26T13:56:58.000Z</time>
      </trkpt>
      <trkpt lat="49.275" lon="1.14172">
        <ele>107.8</ele>
        <time>2025-03-26T13:57:01.000Z</time>
      </trkpt>
      <trkpt lat="49.2749" lon="1.14169">
        <ele>108.6</ele>
        <time>2025-03-26T13:57:04.000Z</time>
      </trkpt>
      <trkpt lat="49.2748" lon="1.14166">
        <ele>109.3</ele>
        <time>2025-03-26T13:57:07.000Z</time>
      </trkpt>
      <trkpt lat="49.27469" lon="1.14162">
        <ele>109.9</ele>
        <time>2025-03-26T13:57:10.000Z</time>
      </trkpt>
      <trkpt lat="49.27459" lon="1.14159">
        <ele>110.5</ele>
        <time>2025-03-26T13:57:13.000Z</time>
      </trkpt>
      <trkpt lat="49.27448" lon="1.14155">
        <ele>111.2</ele>
        <time>2025-03-26T13:57:16.000Z</time>
      </trkpt>
      <trkpt lat="49.27437" lon="1.14151">
        <ele>111.7</ele>
        <time>2025-03-26T13:57:19.000Z</time>
      </trkpt>
      <trkpt lat="49.27427" lon="1.14148">
        <ele>112.2</ele>
        <time>2025-03-26T13:57:23.000Z</time>
      </trkpt>
      <trkpt lat="49.27416" lon="1.14143">
        <ele>112.9</ele>
        <time>2025-03-26T13:57:27.000Z</time>
      </trkpt>
      <trkpt lat="49.27406" lon="1.14139">
        <ele>113.5</ele>
        <time>2025-03-26T13:57:30.000Z</time>
      </trkpt>
      <trkpt lat="49.27395" lon="1.14134">
        <ele>114</ele>
        <time>2025-03-26T13:57:33.000Z</time>
      </trkpt>
      <trkpt lat="49.27384" lon="1.14128">
        <ele>114.5</ele>
        <time>2025-03-26T13:57:36.000Z</time>
      </trkpt>
      <trkpt lat="49.27372" lon="1.14123">
        <ele>115.1</ele>
        <time>2025-03-26T13:57:39.000Z</time>
      </trkpt>
      <trkpt lat="49.2736" lon="1.14117">
        <ele>115.4</ele>
        <time>2025-03-26T13:57:42.000Z</time>
      </trkpt>
      <trkpt lat="49.27348" lon="1.14112">
        <ele>115.6</ele>
        <time>2025-03-26T13:57:45.000Z</time>
      </trkpt>
      <trkpt lat="49.27339" lon="1.14108">
        <ele>115.9</ele>
        <time>2025-03-26T13:57:47.000Z</time>
      </trkpt>
      <trkpt lat="49.2733" lon="1.14105">
        <ele>116</ele>
        <time>2025-03-26T13:57:49.000Z</time>
      </trkpt>
      <trkpt lat="49.27319" lon="1.14101">
        <ele>116.3</ele>
        <time>2025-03-26T13:57:51.000Z</time>
      </trkpt>
      <trkpt lat="49.27309" lon="1.14097">
        <ele>116.6</ele>
        <time>2025-03-26T13:57:53.000Z</time>
      </trkpt>
      <trkpt lat="49.27299" lon="1.14091">
        <ele>116.8</ele>
        <time>2025-03-26T13:57:55.000Z</time>
      </trkpt>
      <trkpt lat="49.27289" lon="1.14086">
        <ele>117</ele>
        <time>2025-03-26T13:57:57.000Z</time>
      </trkpt>
      <trkpt lat="49.27277" lon="1.14081">
        <ele>117.2</ele>
        <time>2025-03-26T13:57:59.000Z</time>
      </trkpt>
      <trkpt lat="49.27266" lon="1.14077">
        <ele>117.4</ele>
        <time>2025-03-26T13:58:01.000Z</time>
      </trkpt>
      <trkpt lat="49.27255" lon="1.14072">
        <ele>117.6</ele>
        <time>2025-03-26T13:58:03.000Z</time>
      </trkpt>
      <trkpt lat="49.27245" lon="1.14067">
        <ele>117.9</ele>
        <time>2025-03-26T13:58:05.000Z</time>
      </trkpt>
      <trkpt lat="49.27235" lon="1.14061">
        <ele>118.2</ele>
        <time>2025-03-26T13:58:07.000Z</time>
      </trkpt>
      <trkpt lat="49.27224" lon="1.14057">
        <ele>118.5</ele>
        <time>2025-03-26T13:58:09.000Z</time>
      </trkpt>
      <trkpt lat="49.27213" lon="1.14052">
        <ele>118.8</ele>
        <time>2025-03-26T13:58:11.000Z</time>
      </trkpt>
      <trkpt lat="49.27202" lon="1.14047">
        <ele>119</ele>
        <time>2025-03-26T13:58:13.000Z</time>
      </trkpt>
      <trkpt lat="49.27191" lon="1.14043">
        <ele>119.1</ele>
        <time>2025-03-26T13:58:15.000Z</time>
      </trkpt>
      <trkpt lat="49.2718" lon="1.1404">
        <ele>119.2</ele>
        <time>2025-03-26T13:58:17.000Z</time>
      </trkpt>
      <trkpt lat="49.2717" lon="1.14035">
        <ele>119.3</ele>
        <time>2025-03-26T13:58:19.000Z</time>
      </trkpt>
      <trkpt lat="49.27159" lon="1.14031">
        <ele>119.4</ele>
        <time>2025-03-26T13:58:21.000Z</time>
      </trkpt>
      <trkpt lat="49.27149" lon="1.14026">
        <ele>119.4</ele>
        <time>2025-03-26T13:58:23.000Z</time>
      </trkpt>
      <trkpt lat="49.27139" lon="1.14022">
        <ele>119.5</ele>
        <time>2025-03-26T13:58:25.000Z</time>
      </trkpt>
      <trkpt lat="49.27128" lon="1.14016">
        <ele>119.5</ele>
        <time>2025-03-26T13:58:27.000Z</time>
      </trkpt>
      <trkpt lat="49.27118" lon="1.14011">
        <ele>119.6</ele>
        <time>2025-03-26T13:58:29.000Z</time>
      </trkpt>
      <trkpt lat="49.27107" lon="1.14007">
        <ele>119.9</ele>
        <time>2025-03-26T13:58:31.000Z</time>
      </trkpt>
      <trkpt lat="49.27096" lon="1.14002">
        <ele>120.2</ele>
        <time>2025-03-26T13:58:33.000Z</time>
      </trkpt>
      <trkpt lat="49.27087" lon="1.13997">
        <ele>120.3</ele>
        <time>2025-03-26T13:58:35.000Z</time>
      </trkpt>
      <trkpt lat="49.27076" lon="1.13993">
        <ele>120.6</ele>
        <time>2025-03-26T13:58:37.000Z</time>
      </trkpt>
      <trkpt lat="49.27064" lon="1.13988">
        <ele>120.8</ele>
        <time>2025-03-26T13:58:39.000Z</time>
      </trkpt>
      <trkpt lat="49.27053" lon="1.13984">
        <ele>120.9</ele>
        <time>2025-03-26T13:58:41.000Z</time>
      </trkpt>
      <trkpt lat="49.27042" lon="1.13979">
        <ele>121.1</ele>
        <time>2025-03-26T13:58:43.000Z</time>
      </trkpt>
      <trkpt lat="49.27032" lon="1.13973">
        <ele>121.3</ele>
        <time>2025-03-26T13:58:45.000Z</time>
      </trkpt>
      <trkpt lat="49.27021" lon="1.13968">
        <ele>121.4</ele>
        <time>2025-03-26T13:58:47.000Z</time>
      </trkpt>
      <trkpt lat="49.27009" lon="1.13962">
        <ele>121.6</ele>
        <time>2025-03-26T13:58:49.000Z</time>
      </trkpt>
      <trkpt lat="49.26998" lon="1.13957">
        <ele>121.8</ele>
        <time>2025-03-26T13:58:51.000Z</time>
      </trkpt>
      <trkpt lat="49.26986" lon="1.13951">
        <ele>122</ele>
        <time>2025-03-26T13:58:53.000Z</time>
      </trkpt>
      <trkpt lat="49.26975" lon="1.13945">
        <ele>122.2</ele>
        <time>2025-03-26T13:58:55.000Z</time>
      </trkpt>
      <trkpt lat="49.26965" lon="1.13939">
        <ele>122.6</ele>
        <time>2025-03-26T13:58:57.000Z</time>
      </trkpt>
      <trkpt lat="49.26954" lon="1.13934">
        <ele>122.7</ele>
        <time>2025-03-26T13:58:59.000Z</time>
      </trkpt>
      <trkpt lat="49.26945" lon="1.1393">
        <ele>122.9</ele>
        <time>2025-03-26T13:59:01.000Z</time>
      </trkpt>
      <trkpt lat="49.26934" lon="1.13924">
        <ele>123</ele>
        <time>2025-03-26T13:59:04.000Z</time>
      </trkpt>
      <trkpt lat="49.26924" lon="1.1392">
        <ele>123.3</ele>
        <time>2025-03-26T13:59:07.000Z</time>
      </trkpt>
      <trkpt lat="49.26913" lon="1.13915">
        <ele>123.6</ele>
        <time>2025-03-26T13:59:10.000Z</time>
      </trkpt>
      <trkpt lat="49.26899" lon="1.13908">
        <ele>123.9</ele>
        <time>2025-03-26T13:59:13.000Z</time>
      </trkpt>
      <trkpt lat="49.26887" lon="1.13901">
        <ele>124</ele>
        <time>2025-03-26T13:59:16.000Z</time>
      </trkpt>
      <trkpt lat="49.26877" lon="1.13897">
        <ele>124.2</ele>
        <time>2025-03-26T13:59:19.000Z</time>
      </trkpt>
      <trkpt lat="49.26867" lon="1.13897">
        <ele>124.3</ele>
        <time>2025-03-26T13:59:22.000Z</time>
      </trkpt>
      <trkpt lat="49.26859" lon="1.13906">
        <ele>124.4</ele>
        <time>2025-03-26T13:59:25.000Z</time>
      </trkpt>
      <trkpt lat="49.26848" lon="1.13915">
        <ele>124.4</ele>
        <time>2025-03-26T13:59:28.000Z</time>
      </trkpt>
      <trkpt lat="49.26839" lon="1.13922">
        <ele>124.4</ele>
        <time>2025-03-26T13:59:30.000Z</time>
      </trkpt>
      <trkpt lat="49.26829" lon="1.13929">
        <ele>124.4</ele>
        <time>2025-03-26T13:59:32.000Z</time>
      </trkpt>
      <trkpt lat="49.2682" lon="1.13942">
        <ele>124.4</ele>
        <time>2025-03-26T13:59:35.000Z</time>
      </trkpt>
      <trkpt lat="49.26817" lon="1.13956">
        <ele>124.5</ele>
        <time>2025-03-26T13:59:38.000Z</time>
      </trkpt>
      <trkpt lat="49.26812" lon="1.13971">
        <ele>124.5</ele>
        <time>2025-03-26T13:59:41.000Z</time>
      </trkpt>
      <trkpt lat="49.26803" lon="1.13984">
        <ele>124.4</ele>
        <time>2025-03-26T13:59:45.000Z</time>
      </trkpt>
      <trkpt lat="49.26794" lon="1.13994">
        <ele>124.4</ele>
        <time>2025-03-26T13:59:48.000Z</time>
      </trkpt>
      <trkpt lat="49.26788" lon="1.14012">
        <ele>124.5</ele>
        <time>2025-03-26T13:59:51.000Z</time>
      </trkpt>
      <trkpt lat="49.26785" lon="1.14026">
        <ele>124.5</ele>
        <time>2025-03-26T13:59:53.000Z</time>
      </trkpt>
      <trkpt lat="49.2678" lon="1.1404">
        <ele>124.5</ele>
        <time>2025-03-26T13:59:55.000Z</time>
      </trkpt>
      <trkpt lat="49.26775" lon="1.14059">
        <ele>124.5</ele>
        <time>2025-03-26T13:59:58.000Z</time>
      </trkpt>
      <trkpt lat="49.26771" lon="1.14072">
        <ele>124.5</ele>
        <time>2025-03-26T14:00:00.000Z</time>
      </trkpt>
      <trkpt lat="49.26768" lon="1.14086">
        <ele>124.5</ele>
        <time>2025-03-26T14:00:02.000Z</time>
      </trkpt>
      <trkpt lat="49.26763" lon="1.141">
        <ele>124.5</ele>
        <time>2025-03-26T14:00:04.000Z</time>
      </trkpt>
      <trkpt lat="49.26758" lon="1.14112">
        <ele>124.6</ele>
        <time>2025-03-26T14:00:06.000Z</time>
      </trkpt>
      <trkpt lat="49.26752" lon="1.14123">
        <ele>124.6</ele>
        <time>2025-03-26T14:00:08.000Z</time>
      </trkpt>
      <trkpt lat="49.26748" lon="1.14137">
        <ele>124.7</ele>
        <time>2025-03-26T14:00:11.000Z</time>
      </trkpt>
      <trkpt lat="49.2674" lon="1.14153">
        <ele>124.6</ele>
        <time>2025-03-26T14:00:14.000Z</time>
      </trkpt>
      <trkpt lat="49.26734" lon="1.14163">
        <ele>124.6</ele>
        <time>2025-03-26T14:00:16.000Z</time>
      </trkpt>
      <trkpt lat="49.26727" lon="1.14177">
        <ele>124.5</ele>
        <time>2025-03-26T14:00:19.000Z</time>
      </trkpt>
      <trkpt lat="49.26718" lon="1.14189">
        <ele>124.5</ele>
        <time>2025-03-26T14:00:22.000Z</time>
      </trkpt>
      <trkpt lat="49.26711" lon="1.14217">
        <ele>124.3</ele>
        <time>2025-03-26T14:00:28.000Z</time>
      </trkpt>
      <trkpt lat="49.26711" lon="1.14233">
        <ele>124.1</ele>
        <time>2025-03-26T14:00:31.000Z</time>
      </trkpt>
      <trkpt lat="49.2671" lon="1.14249">
        <ele>124</ele>
        <time>2025-03-26T14:00:34.000Z</time>
      </trkpt>
      <trkpt lat="49.26706" lon="1.14268">
        <ele>125.8</ele>
        <time>2025-03-26T14:03:30.000Z</time>
      </trkpt>
      <trkpt lat="49.26705" lon="1.14282">
        <ele>126.1</ele>
        <time>2025-03-26T14:03:33.000Z</time>
      </trkpt>
      <trkpt lat="49.26703" lon="1.143">
        <ele>126.2</ele>
        <time>2025-03-26T14:03:36.000Z</time>
      </trkpt>
      <trkpt lat="49.267" lon="1.14317">
        <ele>126.2</ele>
        <time>2025-03-26T14:03:39.000Z</time>
      </trkpt>
      <trkpt lat="49.26697" lon="1.14331">
        <ele>126.2</ele>
        <time>2025-03-26T14:03:41.000Z</time>
      </trkpt>
      <trkpt lat="49.26694" lon="1.14344">
        <ele>126.1</ele>
        <time>2025-03-26T14:03:43.000Z</time>
      </trkpt>
      <trkpt lat="49.2669" lon="1.14358">
        <ele>126</ele>
        <time>2025-03-26T14:03:46.000Z</time>
      </trkpt>
      <trkpt lat="49.2669" lon="1.14362">
        <ele>125.8</ele>
        <time>2025-03-26T14:03:50.000Z</time>
      </trkpt>
      <trkpt lat="49.2669" lon="1.14362">
        <ele>125.7</ele>
        <time>2025-03-26T14:03:51.000Z</time>
      </trkpt>
      <trkpt lat="49.2669" lon="1.14362">
        <ele>125.3</ele>
        <time>2025-03-26T14:03:58.000Z</time>
      </trkpt>
      <trkpt lat="49.2669" lon="1.14362">
        <ele>125.3</ele>
        <time>2025-03-26T14:03:59.000Z</time>
      </trkpt>
      <trkpt lat="49.26689" lon="1.14368">
        <ele>125</ele>
        <time>2025-03-26T14:04:11.000Z</time>
      </trkpt>
      <trkpt lat="49.26688" lon="1.14368">
        <ele>125</ele>
        <time>2025-03-26T14:04:12.000Z</time>
      </trkpt>
      <trkpt lat="49.26688" lon="1.14369">
        <ele>125</ele>
        <time>2025-03-26T14:04:13.000Z</time>
      </trkpt>
      <trkpt lat="49.26688" lon="1.14369">
        <ele>125</ele>
        <time>2025-03-26T14:04:14.000Z</time>
      </trkpt>
      <trkpt lat="49.26683" lon="1.14382">
        <ele>124.9</ele>
        <time>2025-03-26T14:04:20.000Z</time>
      </trkpt>
      <trkpt lat="49.2668" lon="1.14396">
        <ele>124.8</ele>
        <time>2025-03-26T14:04:24.000Z</time>
      </trkpt>
      <trkpt lat="49.26677" lon="1.14412">
        <ele>124.6</ele>
        <time>2025-03-26T14:04:28.000Z</time>
      </trkpt>
      <trkpt lat="49.26674" lon="1.14427">
        <ele>124.5</ele>
        <time>2025-03-26T14:04:33.000Z</time>
      </trkpt>
      <trkpt lat="49.2667" lon="1.14442">
        <ele>124.4</ele>
        <time>2025-03-26T14:04:38.000Z</time>
      </trkpt>
      <trkpt lat="49.26667" lon="1.14458">
        <ele>124.3</ele>
        <time>2025-03-26T14:04:42.000Z</time>
      </trkpt>
      <trkpt lat="49.26663" lon="1.1447">
        <ele>124.2</ele>
        <time>2025-03-26T14:04:45.000Z</time>
      </trkpt>
      <trkpt lat="49.2666" lon="1.14484">
        <ele>124.1</ele>
        <time>2025-03-26T14:04:48.000Z</time>
      </trkpt>
      <trkpt lat="49.26658" lon="1.14498">
        <ele>124</ele>
        <time>2025-03-26T14:04:51.000Z</time>
      </trkpt>
      <trkpt lat="49.26655" lon="1.14514">
        <ele>123.8</ele>
        <time>2025-03-26T14:04:55.000Z</time>
      </trkpt>
      <trkpt lat="49.26654" lon="1.14528">
        <ele>123.7</ele>
        <time>2025-03-26T14:04:59.000Z</time>
      </trkpt>
      <trkpt lat="49.2665" lon="1.14544">
        <ele>123.4</ele>
        <time>2025-03-26T14:05:03.000Z</time>
      </trkpt>
      <trkpt lat="49.26648" lon="1.14562">
        <ele>123.4</ele>
        <time>2025-03-26T14:05:06.000Z</time>
      </trkpt>
      <trkpt lat="49.26644" lon="1.14579">
        <ele>123.5</ele>
        <time>2025-03-26T14:05:08.000Z</time>
      </trkpt>
      <trkpt lat="49.26641" lon="1.14596">
        <ele>123.6</ele>
        <time>2025-03-26T14:05:10.000Z</time>
      </trkpt>
      <trkpt lat="49.26638" lon="1.14613">
        <ele>123.4</ele>
        <time>2025-03-26T14:05:12.000Z</time>
      </trkpt>
      <trkpt lat="49.26635" lon="1.14628">
        <ele>123.3</ele>
        <time>2025-03-26T14:05:14.000Z</time>
      </trkpt>
      <trkpt lat="49.26631" lon="1.14647">
        <ele>123.2</ele>
        <time>2025-03-26T14:05:17.000Z</time>
      </trkpt>
      <trkpt lat="49.26627" lon="1.14663">
        <ele>123</ele>
        <time>2025-03-26T14:05:21.000Z</time>
      </trkpt>
      <trkpt lat="49.26615" lon="1.14661">
        <ele>123</ele>
        <time>2025-03-26T14:05:25.000Z</time>
      </trkpt>
      <trkpt lat="49.26605" lon="1.14657">
        <ele>123</ele>
        <time>2025-03-26T14:05:27.000Z</time>
      </trkpt>
      <trkpt lat="49.26594" lon="1.14651">
        <ele>123</ele>
        <time>2025-03-26T14:05:29.000Z</time>
      </trkpt>
      <trkpt lat="49.26581" lon="1.14646">
        <ele>123</ele>
        <time>2025-03-26T14:05:31.000Z</time>
      </trkpt>
      <trkpt lat="49.26568" lon="1.1464">
        <ele>123</ele>
        <time>2025-03-26T14:05:33.000Z</time>
      </trkpt>
      <trkpt lat="49.26554" lon="1.14633">
        <ele>122.9</ele>
        <time>2025-03-26T14:05:35.000Z</time>
      </trkpt>
      <trkpt lat="49.26541" lon="1.14626">
        <ele>122.8</ele>
        <time>2025-03-26T14:05:37.000Z</time>
      </trkpt>
      <trkpt lat="49.26527" lon="1.14619">
        <ele>122.7</ele>
        <time>2025-03-26T14:05:39.000Z</time>
      </trkpt>
      <trkpt lat="49.26514" lon="1.14613">
        <ele>122.6</ele>
        <time>2025-03-26T14:05:41.000Z</time>
      </trkpt>
      <trkpt lat="49.26501" lon="1.14607">
        <ele>122.6</ele>
        <time>2025-03-26T14:05:43.000Z</time>
      </trkpt>
      <trkpt lat="49.26489" lon="1.14601">
        <ele>122.4</ele>
        <time>2025-03-26T14:05:45.000Z</time>
      </trkpt>
      <trkpt lat="49.26478" lon="1.14595">
        <ele>122.4</ele>
        <time>2025-03-26T14:05:47.000Z</time>
      </trkpt>
      <trkpt lat="49.26466" lon="1.1459">
        <ele>122.3</ele>
        <time>2025-03-26T14:05:49.000Z</time>
      </trkpt>
      <trkpt lat="49.26454" lon="1.14583">
        <ele>122.2</ele>
        <time>2025-03-26T14:05:51.000Z</time>
      </trkpt>
      <trkpt lat="49.26442" lon="1.14578">
        <ele>122.2</ele>
        <time>2025-03-26T14:05:53.000Z</time>
      </trkpt>
      <trkpt lat="49.26429" lon="1.14572">
        <ele>122.2</ele>
        <time>2025-03-26T14:05:55.000Z</time>
      </trkpt>
      <trkpt lat="49.26417" lon="1.14567">
        <ele>122.2</ele>
        <time>2025-03-26T14:05:57.000Z</time>
      </trkpt>
      <trkpt lat="49.26405" lon="1.14561">
        <ele>122.3</ele>
        <time>2025-03-26T14:05:59.000Z</time>
      </trkpt>
      <trkpt lat="49.26393" lon="1.14556">
        <ele>122.3</ele>
        <time>2025-03-26T14:06:01.000Z</time>
      </trkpt>
      <trkpt lat="49.26381" lon="1.14551">
        <ele>122.4</ele>
        <time>2025-03-26T14:06:03.000Z</time>
      </trkpt>
      <trkpt lat="49.26369" lon="1.14546">
        <ele>122.5</ele>
        <time>2025-03-26T14:06:05.000Z</time>
      </trkpt>
      <trkpt lat="49.26357" lon="1.14541">
        <ele>122.5</ele>
        <time>2025-03-26T14:06:07.000Z</time>
      </trkpt>
      <trkpt lat="49.26345" lon="1.14536">
        <ele>122.5</ele>
        <time>2025-03-26T14:06:09.000Z</time>
      </trkpt>
      <trkpt lat="49.26332" lon="1.14531">
        <ele>122.6</ele>
        <time>2025-03-26T14:06:11.000Z</time>
      </trkpt>
      <trkpt lat="49.26321" lon="1.14525">
        <ele>122.6</ele>
        <time>2025-03-26T14:06:13.000Z</time>
      </trkpt>
      <trkpt lat="49.26309" lon="1.14518">
        <ele>122.6</ele>
        <time>2025-03-26T14:06:15.000Z</time>
      </trkpt>
      <trkpt lat="49.26297" lon="1.1451">
        <ele>122.6</ele>
        <time>2025-03-26T14:06:17.000Z</time>
      </trkpt>
      <trkpt lat="49.26286" lon="1.14499">
        <ele>122.5</ele>
        <time>2025-03-26T14:06:19.000Z</time>
      </trkpt>
      <trkpt lat="49.26275" lon="1.14485">
        <ele>122.4</ele>
        <time>2025-03-26T14:06:21.000Z</time>
      </trkpt>
      <trkpt lat="49.26265" lon="1.1447">
        <ele>122.3</ele>
        <time>2025-03-26T14:06:23.000Z</time>
      </trkpt>
      <trkpt lat="49.26256" lon="1.14455">
        <ele>122</ele>
        <time>2025-03-26T14:06:25.000Z</time>
      </trkpt>
      <trkpt lat="49.26247" lon="1.14442">
        <ele>121.8</ele>
        <time>2025-03-26T14:06:27.000Z</time>
      </trkpt>
      <trkpt lat="49.26237" lon="1.14428">
        <ele>121.7</ele>
        <time>2025-03-26T14:06:29.000Z</time>
      </trkpt>
      <trkpt lat="49.26229" lon="1.14415">
        <ele>121.5</ele>
        <time>2025-03-26T14:06:31.000Z</time>
      </trkpt>
      <trkpt lat="49.26224" lon="1.14409">
        <ele>121.4</ele>
        <time>2025-03-26T14:06:32.000Z</time>
      </trkpt>
      <trkpt lat="49.26217" lon="1.14399">
        <ele>121.1</ele>
        <time>2025-03-26T14:06:34.000Z</time>
      </trkpt>
      <trkpt lat="49.26212" lon="1.14388">
        <ele>120.8</ele>
        <time>2025-03-26T14:06:36.000Z</time>
      </trkpt>
      <trkpt lat="49.26206" lon="1.14377">
        <ele>120.6</ele>
        <time>2025-03-26T14:06:38.000Z</time>
      </trkpt>
      <trkpt lat="49.262" lon="1.14364">
        <ele>120.3</ele>
        <time>2025-03-26T14:06:41.000Z</time>
      </trkpt>
      <trkpt lat="49.26196" lon="1.14351">
        <ele>120.1</ele>
        <time>2025-03-26T14:06:45.000Z</time>
      </trkpt>
      <trkpt lat="49.26194" lon="1.14334">
        <ele>120.1</ele>
        <time>2025-03-26T14:06:48.000Z</time>
      </trkpt>
      <trkpt lat="49.26196" lon="1.14314">
        <ele>120</ele>
        <time>2025-03-26T14:06:51.000Z</time>
      </trkpt>
      <trkpt lat="49.26199" lon="1.14301">
        <ele>120</ele>
        <time>2025-03-26T14:06:53.000Z</time>
      </trkpt>
      <trkpt lat="49.26202" lon="1.14288">
        <ele>120</ele>
        <time>2025-03-26T14:06:55.000Z</time>
      </trkpt>
      <trkpt lat="49.26209" lon="1.14271">
        <ele>120.2</ele>
        <time>2025-03-26T14:06:58.000Z</time>
      </trkpt>
      <trkpt lat="49.26217" lon="1.14258">
        <ele>120.3</ele>
        <time>2025-03-26T14:07:01.000Z</time>
      </trkpt>
      <trkpt lat="49.26227" lon="1.14246">
        <ele>120.5</ele>
        <time>2025-03-26T14:07:04.000Z</time>
      </trkpt>
      <trkpt lat="49.26235" lon="1.14235">
        <ele>120.8</ele>
        <time>2025-03-26T14:07:06.000Z</time>
      </trkpt>
      <trkpt lat="49.26243" lon="1.14225">
        <ele>121.2</ele>
        <time>2025-03-26T14:07:08.000Z</time>
      </trkpt>
      <trkpt lat="49.2625" lon="1.14214">
        <ele>121.7</ele>
        <time>2025-03-26T14:07:10.000Z</time>
      </trkpt>
      <trkpt lat="49.26257" lon="1.14203">
        <ele>122.2</ele>
        <time>2025-03-26T14:07:12.000Z</time>
      </trkpt>
      <trkpt lat="49.26262" lon="1.14189">
        <ele>122.8</ele>
        <time>2025-03-26T14:07:14.000Z</time>
      </trkpt>
      <trkpt lat="49.26265" lon="1.14174">
        <ele>123.5</ele>
        <time>2025-03-26T14:07:16.000Z</time>
      </trkpt>
      <trkpt lat="49.26265" lon="1.14158">
        <ele>124.2</ele>
        <time>2025-03-26T14:07:18.000Z</time>
      </trkpt>
      <trkpt lat="49.26264" lon="1.14142">
        <ele>124.7</ele>
        <time>2025-03-26T14:07:20.000Z</time>
      </trkpt>
      <trkpt lat="49.26263" lon="1.14125">
        <ele>125.1</ele>
        <time>2025-03-26T14:07:22.000Z</time>
      </trkpt>
      <trkpt lat="49.26261" lon="1.14109">
        <ele>125.4</ele>
        <time>2025-03-26T14:07:24.000Z</time>
      </trkpt>
      <trkpt lat="49.26259" lon="1.14091">
        <ele>125.8</ele>
        <time>2025-03-26T14:07:26.000Z</time>
      </trkpt>
      <trkpt lat="49.26257" lon="1.14073">
        <ele>126.1</ele>
        <time>2025-03-26T14:07:28.000Z</time>
      </trkpt>
      <trkpt lat="49.26256" lon="1.14056">
        <ele>126.2</ele>
        <time>2025-03-26T14:07:30.000Z</time>
      </trkpt>
      <trkpt lat="49.26255" lon="1.14041">
        <ele>126.4</ele>
        <time>2025-03-26T14:07:32.000Z</time>
      </trkpt>
      <trkpt lat="49.26254" lon="1.14026">
        <ele>126.5</ele>
        <time>2025-03-26T14:07:34.000Z</time>
      </trkpt>
      <trkpt lat="49.26254" lon="1.14007">
        <ele>126.7</ele>
        <time>2025-03-26T14:07:37.000Z</time>
      </trkpt>
      <trkpt lat="49.26252" lon="1.13987">
        <ele>126.8</ele>
        <time>2025-03-26T14:07:40.000Z</time>
      </trkpt>
      <trkpt lat="49.26251" lon="1.13972">
        <ele>126.9</ele>
        <time>2025-03-26T14:07:42.000Z</time>
      </trkpt>
      <trkpt lat="49.2625" lon="1.13956">
        <ele>126.9</ele>
        <time>2025-03-26T14:07:44.000Z</time>
      </trkpt>
      <trkpt lat="49.26249" lon="1.1394">
        <ele>127</ele>
        <time>2025-03-26T14:07:46.000Z</time>
      </trkpt>
      <trkpt lat="49.26248" lon="1.13923">
        <ele>127.1</ele>
        <time>2025-03-26T14:07:48.000Z</time>
      </trkpt>
      <trkpt lat="49.26246" lon="1.13907">
        <ele>127.1</ele>
        <time>2025-03-26T14:07:50.000Z</time>
      </trkpt>
      <trkpt lat="49.26245" lon="1.13892">
        <ele>127.1</ele>
        <time>2025-03-26T14:07:52.000Z</time>
      </trkpt>
      <trkpt lat="49.26243" lon="1.1387">
        <ele>127.2</ele>
        <time>2025-03-26T14:07:55.000Z</time>
      </trkpt>
      <trkpt lat="49.26242" lon="1.13854">
        <ele>127.3</ele>
        <time>2025-03-26T14:07:57.000Z</time>
      </trkpt>
      <trkpt lat="49.26239" lon="1.13836">
        <ele>127.3</ele>
        <time>2025-03-26T14:07:59.000Z</time>
      </trkpt>
      <trkpt lat="49.26238" lon="1.13816">
        <ele>127.4</ele>
        <time>2025-03-26T14:08:01.000Z</time>
      </trkpt>
      <trkpt lat="49.26236" lon="1.13797">
        <ele>127.4</ele>
        <time>2025-03-26T14:08:03.000Z</time>
      </trkpt>
      <trkpt lat="49.26235" lon="1.13778">
        <ele>127.5</ele>
        <time>2025-03-26T14:08:05.000Z</time>
      </trkpt>
      <trkpt lat="49.26234" lon="1.13758">
        <ele>127.5</ele>
        <time>2025-03-26T14:08:07.000Z</time>
      </trkpt>
      <trkpt lat="49.26232" lon="1.13739">
        <ele>127.5</ele>
        <time>2025-03-26T14:08:09.000Z</time>
      </trkpt>
      <trkpt lat="49.26231" lon="1.1372">
        <ele>127.5</ele>
        <time>2025-03-26T14:08:11.000Z</time>
      </trkpt>
      <trkpt lat="49.2623" lon="1.137">
        <ele>127.6</ele>
        <time>2025-03-26T14:08:13.000Z</time>
      </trkpt>
      <trkpt lat="49.26228" lon="1.13681">
        <ele>127.6</ele>
        <time>2025-03-26T14:08:15.000Z</time>
      </trkpt>
      <trkpt lat="49.26227" lon="1.13662">
        <ele>127.6</ele>
        <time>2025-03-26T14:08:17.000Z</time>
      </trkpt>
      <trkpt lat="49.26225" lon="1.13643">
        <ele>127.6</ele>
        <time>2025-03-26T14:08:19.000Z</time>
      </trkpt>
      <trkpt lat="49.26224" lon="1.13623">
        <ele>127.6</ele>
        <time>2025-03-26T14:08:21.000Z</time>
      </trkpt>
      <trkpt lat="49.26223" lon="1.13604">
        <ele>127.6</ele>
        <time>2025-03-26T14:08:23.000Z</time>
      </trkpt>
      <trkpt lat="49.26221" lon="1.13585">
        <ele>127.6</ele>
        <time>2025-03-26T14:08:25.000Z</time>
      </trkpt>
      <trkpt lat="49.2622" lon="1.13566">
        <ele>127.6</ele>
        <time>2025-03-26T14:08:27.000Z</time>
      </trkpt>
      <trkpt lat="49.26219" lon="1.13547">
        <ele>127.6</ele>
        <time>2025-03-26T14:08:29.000Z</time>
      </trkpt>
      <trkpt lat="49.26218" lon="1.13528">
        <ele>127.7</ele>
        <time>2025-03-26T14:08:31.000Z</time>
      </trkpt>
      <trkpt lat="49.26217" lon="1.13509">
        <ele>127.7</ele>
        <time>2025-03-26T14:08:33.000Z</time>
      </trkpt>
      <trkpt lat="49.26215" lon="1.13491">
        <ele>127.7</ele>
        <time>2025-03-26T14:08:35.000Z</time>
      </trkpt>
      <trkpt lat="49.26214" lon="1.13472">
        <ele>127.7</ele>
        <time>2025-03-26T14:08:37.000Z</time>
      </trkpt>
      <trkpt lat="49.26213" lon="1.13454">
        <ele>127.8</ele>
        <time>2025-03-26T14:08:39.000Z</time>
      </trkpt>
      <trkpt lat="49.26211" lon="1.13435">
        <ele>127.8</ele>
        <time>2025-03-26T14:08:41.000Z</time>
      </trkpt>
      <trkpt lat="49.2621" lon="1.13417">
        <ele>127.8</ele>
        <time>2025-03-26T14:08:43.000Z</time>
      </trkpt>
      <trkpt lat="49.26209" lon="1.13398">
        <ele>127.8</ele>
        <time>2025-03-26T14:08:45.000Z</time>
      </trkpt>
      <trkpt lat="49.26208" lon="1.13381">
        <ele>127.8</ele>
        <time>2025-03-26T14:08:47.000Z</time>
      </trkpt>
      <trkpt lat="49.26208" lon="1.13366">
        <ele>127.8</ele>
        <time>2025-03-26T14:08:49.000Z</time>
      </trkpt>
      <trkpt lat="49.26213" lon="1.13354">
        <ele>127.8</ele>
        <time>2025-03-26T14:08:51.000Z</time>
      </trkpt>
      <trkpt lat="49.26223" lon="1.13341">
        <ele>127.8</ele>
        <time>2025-03-26T14:08:54.000Z</time>
      </trkpt>
      <trkpt lat="49.26234" lon="1.13328">
        <ele>127.8</ele>
        <time>2025-03-26T14:08:57.000Z</time>
      </trkpt>
      <trkpt lat="49.26242" lon="1.1332">
        <ele>127.8</ele>
        <time>2025-03-26T14:08:59.000Z</time>
      </trkpt>
      <trkpt lat="49.26252" lon="1.13312">
        <ele>127.8</ele>
        <time>2025-03-26T14:09:01.000Z</time>
      </trkpt>
      <trkpt lat="49.26261" lon="1.13306">
        <ele>127.8</ele>
        <time>2025-03-26T14:09:03.000Z</time>
      </trkpt>
      <trkpt lat="49.26271" lon="1.133">
        <ele>127.8</ele>
        <time>2025-03-26T14:09:05.000Z</time>
      </trkpt>
      <trkpt lat="49.26283" lon="1.13297">
        <ele>127.8</ele>
        <time>2025-03-26T14:09:07.000Z</time>
      </trkpt>
      <trkpt lat="49.26295" lon="1.13294">
        <ele>127.9</ele>
        <time>2025-03-26T14:09:09.000Z</time>
      </trkpt>
      <trkpt lat="49.26307" lon="1.1329">
        <ele>128</ele>
        <time>2025-03-26T14:09:11.000Z</time>
      </trkpt>
      <trkpt lat="49.26319" lon="1.13287">
        <ele>128.1</ele>
        <time>2025-03-26T14:09:13.000Z</time>
      </trkpt>
      <trkpt lat="49.2633" lon="1.13284">
        <ele>128.2</ele>
        <time>2025-03-26T14:09:15.000Z</time>
      </trkpt>
      <trkpt lat="49.26343" lon="1.1328">
        <ele>128.2</ele>
        <time>2025-03-26T14:09:17.000Z</time>
      </trkpt>
      <trkpt lat="49.26355" lon="1.13275">
        <ele>128.3</ele>
        <time>2025-03-26T14:09:19.000Z</time>
      </trkpt>
      <trkpt lat="49.26367" lon="1.13269">
        <ele>128.4</ele>
        <time>2025-03-26T14:09:21.000Z</time>
      </trkpt>
      <trkpt lat="49.26378" lon="1.13265">
        <ele>128.5</ele>
        <time>2025-03-26T14:09:23.000Z</time>
      </trkpt>
      <trkpt lat="49.2639" lon="1.1326">
        <ele>128.5</ele>
        <time>2025-03-26T14:09:25.000Z</time>
      </trkpt>
      <trkpt lat="49.26401" lon="1.13256">
        <ele>128.7</ele>
        <time>2025-03-26T14:09:27.000Z</time>
      </trkpt>
      <trkpt lat="49.26411" lon="1.13254">
        <ele>128.8</ele>
        <time>2025-03-26T14:09:29.000Z</time>
      </trkpt>
      <trkpt lat="49.26421" lon="1.13252">
        <ele>128.8</ele>
        <time>2025-03-26T14:09:31.000Z</time>
      </trkpt>
      <trkpt lat="49.26433" lon="1.13254">
        <ele>128.9</ele>
        <time>2025-03-26T14:09:34.000Z</time>
      </trkpt>
      <trkpt lat="49.26445" lon="1.13259">
        <ele>129.1</ele>
        <time>2025-03-26T14:09:37.000Z</time>
      </trkpt>
      <trkpt lat="49.26454" lon="1.13263">
        <ele>129.3</ele>
        <time>2025-03-26T14:09:39.000Z</time>
      </trkpt>
      <trkpt lat="49.26463" lon="1.13268">
        <ele>129.5</ele>
        <time>2025-03-26T14:09:41.000Z</time>
      </trkpt>
      <trkpt lat="49.26474" lon="1.13272">
        <ele>129.8</ele>
        <time>2025-03-26T14:09:43.000Z</time>
      </trkpt>
      <trkpt lat="49.26485" lon="1.13277">
        <ele>129.9</ele>
        <time>2025-03-26T14:09:45.000Z</time>
      </trkpt>
      <trkpt lat="49.26495" lon="1.13282">
        <ele>130.1</ele>
        <time>2025-03-26T14:09:47.000Z</time>
      </trkpt>
      <trkpt lat="49.26506" lon="1.13288">
        <ele>130.3</ele>
        <time>2025-03-26T14:09:49.000Z</time>
      </trkpt>
      <trkpt lat="49.26518" lon="1.13293">
        <ele>130.5</ele>
        <time>2025-03-26T14:09:51.000Z</time>
      </trkpt>
      <trkpt lat="49.26529" lon="1.13298">
        <ele>130.8</ele>
        <time>2025-03-26T14:09:53.000Z</time>
      </trkpt>
      <trkpt lat="49.2654" lon="1.13302">
        <ele>131</ele>
        <time>2025-03-26T14:09:55.000Z</time>
      </trkpt>
      <trkpt lat="49.26552" lon="1.13308">
        <ele>131.3</ele>
        <time>2025-03-26T14:09:57.000Z</time>
      </trkpt>
      <trkpt lat="49.26563" lon="1.13314">
        <ele>131.7</ele>
        <time>2025-03-26T14:09:59.000Z</time>
      </trkpt>
      <trkpt lat="49.26575" lon="1.13319">
        <ele>132.1</ele>
        <time>2025-03-26T14:10:01.000Z</time>
      </trkpt>
      <trkpt lat="49.26586" lon="1.13324">
        <ele>132.5</ele>
        <time>2025-03-26T14:10:03.000Z</time>
      </trkpt>
      <trkpt lat="49.26597" lon="1.13329">
        <ele>132.9</ele>
        <time>2025-03-26T14:10:05.000Z</time>
      </trkpt>
      <trkpt lat="49.26609" lon="1.13334">
        <ele>133.1</ele>
        <time>2025-03-26T14:10:07.000Z</time>
      </trkpt>
      <trkpt lat="49.2662" lon="1.1334">
        <ele>133.5</ele>
        <time>2025-03-26T14:10:09.000Z</time>
      </trkpt>
      <trkpt lat="49.26632" lon="1.13345">
        <ele>133.9</ele>
        <time>2025-03-26T14:10:11.000Z</time>
      </trkpt>
      <trkpt lat="49.26643" lon="1.1335">
        <ele>134.2</ele>
        <time>2025-03-26T14:10:13.000Z</time>
      </trkpt>
      <trkpt lat="49.26655" lon="1.13356">
        <ele>134.2</ele>
        <time>2025-03-26T14:10:15.000Z</time>
      </trkpt>
      <trkpt lat="49.26666" lon="1.13361">
        <ele>134.4</ele>
        <time>2025-03-26T14:10:17.000Z</time>
      </trkpt>
      <trkpt lat="49.26678" lon="1.13366">
        <ele>134.6</ele>
        <time>2025-03-26T14:10:19.000Z</time>
      </trkpt>
      <trkpt lat="49.26689" lon="1.13371">
        <ele>134.8</ele>
        <time>2025-03-26T14:10:21.000Z</time>
      </trkpt>
      <trkpt lat="49.26701" lon="1.13376">
        <ele>135</ele>
        <time>2025-03-26T14:10:23.000Z</time>
      </trkpt>
      <trkpt lat="49.26712" lon="1.13381">
        <ele>135.3</ele>
        <time>2025-03-26T14:10:25.000Z</time>
      </trkpt>
      <trkpt lat="49.26724" lon="1.13387">
        <ele>135.6</ele>
        <time>2025-03-26T14:10:27.000Z</time>
      </trkpt>
      <trkpt lat="49.26736" lon="1.13393">
        <ele>135.7</ele>
        <time>2025-03-26T14:10:29.000Z</time>
      </trkpt>
      <trkpt lat="49.26749" lon="1.13399">
        <ele>135.9</ele>
        <time>2025-03-26T14:10:31.000Z</time>
      </trkpt>
      <trkpt lat="49.2676" lon="1.13405">
        <ele>136</ele>
        <time>2025-03-26T14:10:33.000Z</time>
      </trkpt>
      <trkpt lat="49.26772" lon="1.1341">
        <ele>136.1</ele>
        <time>2025-03-26T14:10:35.000Z</time>
      </trkpt>
      <trkpt lat="49.26784" lon="1.13415">
        <ele>136.4</ele>
        <time>2025-03-26T14:10:37.000Z</time>
      </trkpt>
      <trkpt lat="49.26796" lon="1.13421">
        <ele>136.6</ele>
        <time>2025-03-26T14:10:39.000Z</time>
      </trkpt>
      <trkpt lat="49.26807" lon="1.13426">
        <ele>136.9</ele>
        <time>2025-03-26T14:10:41.000Z</time>
      </trkpt>
      <trkpt lat="49.26819" lon="1.13431">
        <ele>137.1</ele>
        <time>2025-03-26T14:10:43.000Z</time>
      </trkpt>
      <trkpt lat="49.2683" lon="1.13436">
        <ele>137.3</ele>
        <time>2025-03-26T14:10:45.000Z</time>
      </trkpt>
      <trkpt lat="49.26842" lon="1.13441">
        <ele>137.3</ele>
        <time>2025-03-26T14:10:47.000Z</time>
      </trkpt>
      <trkpt lat="49.26854" lon="1.13447">
        <ele>137.4</ele>
        <time>2025-03-26T14:10:49.000Z</time>
      </trkpt>
      <trkpt lat="49.26865" lon="1.13453">
        <ele>137.5</ele>
        <time>2025-03-26T14:10:51.000Z</time>
      </trkpt>
      <trkpt lat="49.26877" lon="1.13458">
        <ele>137.7</ele>
        <time>2025-03-26T14:10:53.000Z</time>
      </trkpt>
      <trkpt lat="49.26887" lon="1.13463">
        <ele>137.9</ele>
        <time>2025-03-26T14:10:55.000Z</time>
      </trkpt>
      <trkpt lat="49.26899" lon="1.13468">
        <ele>138.1</ele>
        <time>2025-03-26T14:10:57.000Z</time>
      </trkpt>
      <trkpt lat="49.2691" lon="1.13474">
        <ele>138.2</ele>
        <time>2025-03-26T14:10:59.000Z</time>
      </trkpt>
      <trkpt lat="49.26922" lon="1.13477">
        <ele>138.3</ele>
        <time>2025-03-26T14:11:01.000Z</time>
      </trkpt>
      <trkpt lat="49.26934" lon="1.13476">
        <ele>138.3</ele>
        <time>2025-03-26T14:11:03.000Z</time>
      </trkpt>
      <trkpt lat="49.26945" lon="1.13473">
        <ele>138.3</ele>
        <time>2025-03-26T14:11:05.000Z</time>
      </trkpt>
      <trkpt lat="49.26956" lon="1.13471">
        <ele>138.2</ele>
        <time>2025-03-26T14:11:07.000Z</time>
      </trkpt>
      <trkpt lat="49.26966" lon="1.13466">
        <ele>138.2</ele>
        <time>2025-03-26T14:11:09.000Z</time>
      </trkpt>
      <trkpt lat="49.26977" lon="1.13461">
        <ele>138.3</ele>
        <time>2025-03-26T14:11:11.000Z</time>
      </trkpt>
      <trkpt lat="49.26989" lon="1.13456">
        <ele>138.3</ele>
        <time>2025-03-26T14:11:13.000Z</time>
      </trkpt>
      <trkpt lat="49.27001" lon="1.1345">
        <ele>138.3</ele>
        <time>2025-03-26T14:11:15.000Z</time>
      </trkpt>
      <trkpt lat="49.27012" lon="1.13445">
        <ele>138.3</ele>
        <time>2025-03-26T14:11:17.000Z</time>
      </trkpt>
      <trkpt lat="49.27023" lon="1.13438">
        <ele>138.2</ele>
        <time>2025-03-26T14:11:19.000Z</time>
      </trkpt>
      <trkpt lat="49.27034" lon="1.1343">
        <ele>138.1</ele>
        <time>2025-03-26T14:11:21.000Z</time>
      </trkpt>
      <trkpt lat="49.27042" lon="1.13422">
        <ele>138.1</ele>
        <time>2025-03-26T14:11:23.000Z</time>
      </trkpt>
      <trkpt lat="49.27053" lon="1.13413">
        <ele>138</ele>
        <time>2025-03-26T14:11:26.000Z</time>
      </trkpt>
      <trkpt lat="49.27064" lon="1.13404">
        <ele>137.8</ele>
        <time>2025-03-26T14:11:29.000Z</time>
      </trkpt>
      <trkpt lat="49.27074" lon="1.13396">
        <ele>137.7</ele>
        <time>2025-03-26T14:11:32.000Z</time>
      </trkpt>
      <trkpt lat="49.27085" lon="1.13387">
        <ele>137.5</ele>
        <time>2025-03-26T14:11:35.000Z</time>
      </trkpt>
      <trkpt lat="49.27094" lon="1.13377">
        <ele>137.3</ele>
        <time>2025-03-26T14:11:37.000Z</time>
      </trkpt>
      <trkpt lat="49.271" lon="1.13363">
        <ele>137.1</ele>
        <time>2025-03-26T14:11:39.000Z</time>
      </trkpt>
      <trkpt lat="49.27102" lon="1.13345">
        <ele>137.1</ele>
        <time>2025-03-26T14:11:41.000Z</time>
      </trkpt>
      <trkpt lat="49.27103" lon="1.13325">
        <ele>137</ele>
        <time>2025-03-26T14:11:43.000Z</time>
      </trkpt>
      <trkpt lat="49.27105" lon="1.13305">
        <ele>136.8</ele>
        <time>2025-03-26T14:11:45.000Z</time>
      </trkpt>
      <trkpt lat="49.27107" lon="1.13285">
        <ele>136.6</ele>
        <time>2025-03-26T14:11:47.000Z</time>
      </trkpt>
      <trkpt lat="49.27108" lon="1.13266">
        <ele>136.3</ele>
        <time>2025-03-26T14:11:49.000Z</time>
      </trkpt>
      <trkpt lat="49.2711" lon="1.13247">
        <ele>136.1</ele>
        <time>2025-03-26T14:11:51.000Z</time>
      </trkpt>
      <trkpt lat="49.27111" lon="1.13228">
        <ele>136</ele>
        <time>2025-03-26T14:11:53.000Z</time>
      </trkpt>
      <trkpt lat="49.27113" lon="1.13209">
        <ele>135.9</ele>
        <time>2025-03-26T14:11:55.000Z</time>
      </trkpt>
      <trkpt lat="49.27115" lon="1.1319">
        <ele>135.8</ele>
        <time>2025-03-26T14:11:57.000Z</time>
      </trkpt>
      <trkpt lat="49.27116" lon="1.13171">
        <ele>135.8</ele>
        <time>2025-03-26T14:11:59.000Z</time>
      </trkpt>
      <trkpt lat="49.27118" lon="1.13152">
        <ele>135.8</ele>
        <time>2025-03-26T14:12:01.000Z</time>
      </trkpt>
      <trkpt lat="49.27119" lon="1.13134">
        <ele>135.8</ele>
        <time>2025-03-26T14:12:03.000Z</time>
      </trkpt>
      <trkpt lat="49.27121" lon="1.13116">
        <ele>135.7</ele>
        <time>2025-03-26T14:12:05.000Z</time>
      </trkpt>
      <trkpt lat="49.27124" lon="1.13098">
        <ele>135.7</ele>
        <time>2025-03-26T14:12:07.000Z</time>
      </trkpt>
      <trkpt lat="49.27126" lon="1.13081">
        <ele>135.7</ele>
        <time>2025-03-26T14:12:09.000Z</time>
      </trkpt>
      <trkpt lat="49.27128" lon="1.13065">
        <ele>135.8</ele>
        <time>2025-03-26T14:12:11.000Z</time>
      </trkpt>
      <trkpt lat="49.2713" lon="1.13049">
        <ele>135.8</ele>
        <time>2025-03-26T14:12:13.000Z</time>
      </trkpt>
      <trkpt lat="49.27131" lon="1.13034">
        <ele>135.8</ele>
        <time>2025-03-26T14:12:15.000Z</time>
      </trkpt>
      <trkpt lat="49.27132" lon="1.13016">
        <ele>135.7</ele>
        <time>2025-03-26T14:12:18.000Z</time>
      </trkpt>
      <trkpt lat="49.27137" lon="1.12998">
        <ele>135.6</ele>
        <time>2025-03-26T14:12:21.000Z</time>
      </trkpt>
      <trkpt lat="49.27144" lon="1.12983">
        <ele>135.5</ele>
        <time>2025-03-26T14:12:24.000Z</time>
      </trkpt>
      <trkpt lat="49.2715" lon="1.1297">
        <ele>135.4</ele>
        <time>2025-03-26T14:12:26.000Z</time>
      </trkpt>
      <trkpt lat="49.27157" lon="1.12956">
        <ele>135.2</ele>
        <time>2025-03-26T14:12:28.000Z</time>
      </trkpt>
      <trkpt lat="49.27162" lon="1.12942">
        <ele>135.2</ele>
        <time>2025-03-26T14:12:31.000Z</time>
      </trkpt>
      <trkpt lat="49.27166" lon="1.12927">
        <ele>135</ele>
        <time>2025-03-26T14:12:36.000Z</time>
      </trkpt>
      <trkpt lat="49.27172" lon="1.1291">
        <ele>134.9</ele>
        <time>2025-03-26T14:12:40.000Z</time>
      </trkpt>
      <trkpt lat="49.27177" lon="1.12897">
        <ele>134.8</ele>
        <time>2025-03-26T14:12:42.000Z</time>
      </trkpt>
      <trkpt lat="49.27182" lon="1.12885">
        <ele>134.7</ele>
        <time>2025-03-26T14:12:44.000Z</time>
      </trkpt>
      <trkpt lat="49.27187" lon="1.12866">
        <ele>134.5</ele>
        <time>2025-03-26T14:12:47.000Z</time>
      </trkpt>
      <trkpt lat="49.2719" lon="1.12845">
        <ele>134.4</ele>
        <time>2025-03-26T14:12:50.000Z</time>
      </trkpt>
      <trkpt lat="49.2719" lon="1.12829">
        <ele>134.3</ele>
        <time>2025-03-26T14:12:52.000Z</time>
      </trkpt>
      <trkpt lat="49.27191" lon="1.12811">
        <ele>134.1</ele>
        <time>2025-03-26T14:12:54.000Z</time>
      </trkpt>
      <trkpt lat="49.27192" lon="1.12793">
        <ele>134.1</ele>
        <time>2025-03-26T14:12:56.000Z</time>
      </trkpt>
      <trkpt lat="49.27193" lon="1.12774">
        <ele>134.1</ele>
        <time>2025-03-26T14:12:58.000Z</time>
      </trkpt>
      <trkpt lat="49.27194" lon="1.12756">
        <ele>134.1</ele>
        <time>2025-03-26T14:13:00.000Z</time>
      </trkpt>
      <trkpt lat="49.27196" lon="1.12736">
        <ele>134</ele>
        <time>2025-03-26T14:13:02.000Z</time>
      </trkpt>
      <trkpt lat="49.27197" lon="1.12718">
        <ele>134</ele>
        <time>2025-03-26T14:13:04.000Z</time>
      </trkpt>
      <trkpt lat="49.27199" lon="1.127">
        <ele>133.9</ele>
        <time>2025-03-26T14:13:06.000Z</time>
      </trkpt>
      <trkpt lat="49.272" lon="1.12684">
        <ele>133.9</ele>
        <time>2025-03-26T14:13:08.000Z</time>
      </trkpt>
      <trkpt lat="49.27202" lon="1.12668">
        <ele>133.8</ele>
        <time>2025-03-26T14:13:10.000Z</time>
      </trkpt>
      <trkpt lat="49.27203" lon="1.12653">
        <ele>133.6</ele>
        <time>2025-03-26T14:13:12.000Z</time>
      </trkpt>
      <trkpt lat="49.27205" lon="1.12638">
        <ele>133.4</ele>
        <time>2025-03-26T14:13:14.000Z</time>
      </trkpt>
      <trkpt lat="49.27209" lon="1.12623">
        <ele>133</ele>
        <time>2025-03-26T14:13:16.000Z</time>
      </trkpt>
      <trkpt lat="49.27212" lon="1.12608">
        <ele>132.7</ele>
        <time>2025-03-26T14:13:18.000Z</time>
      </trkpt>
      <trkpt lat="49.27217" lon="1.12594">
        <ele>132.4</ele>
        <time>2025-03-26T14:13:20.000Z</time>
      </trkpt>
      <trkpt lat="49.27221" lon="1.12581">
        <ele>132</ele>
        <time>2025-03-26T14:13:22.000Z</time>
      </trkpt>
      <trkpt lat="49.27226" lon="1.12568">
        <ele>131.5</ele>
        <time>2025-03-26T14:13:24.000Z</time>
      </trkpt>
      <trkpt lat="49.2723" lon="1.12556">
        <ele>131</ele>
        <time>2025-03-26T14:13:26.000Z</time>
      </trkpt>
      <trkpt lat="49.27234" lon="1.12543">
        <ele>130.5</ele>
        <time>2025-03-26T14:13:28.000Z</time>
      </trkpt>
      <trkpt lat="49.27237" lon="1.1253">
        <ele>130</ele>
        <time>2025-03-26T14:13:30.000Z</time>
      </trkpt>
      <trkpt lat="49.27241" lon="1.12511">
        <ele>129.5</ele>
        <time>2025-03-26T14:13:33.000Z</time>
      </trkpt>
      <trkpt lat="49.27243" lon="1.12496">
        <ele>129.1</ele>
        <time>2025-03-26T14:13:36.000Z</time>
      </trkpt>
      <trkpt lat="49.27244" lon="1.12481">
        <ele>128.7</ele>
        <time>2025-03-26T14:13:42.000Z</time>
      </trkpt>
      <trkpt lat="49.27247" lon="1.12467">
        <ele>128.4</ele>
        <time>2025-03-26T14:13:45.000Z</time>
      </trkpt>
      <trkpt lat="49.27251" lon="1.12454">
        <ele>127.9</ele>
        <time>2025-03-26T14:13:53.000Z</time>
      </trkpt>
      <trkpt lat="49.27251" lon="1.12438">
        <ele>127.6</ele>
        <time>2025-03-26T14:13:59.000Z</time>
      </trkpt>
      <trkpt lat="49.27241" lon="1.12428">
        <ele>127.5</ele>
        <time>2025-03-26T14:14:02.000Z</time>
      </trkpt>
      <trkpt lat="49.27237" lon="1.12412">
        <ele>127.4</ele>
        <time>2025-03-26T14:14:05.000Z</time>
      </trkpt>
      <trkpt lat="49.27237" lon="1.12395">
        <ele>127.3</ele>
        <time>2025-03-26T14:14:08.000Z</time>
      </trkpt>
      <trkpt lat="49.27237" lon="1.12379">
        <ele>127.1</ele>
        <time>2025-03-26T14:14:11.000Z</time>
      </trkpt>
      <trkpt lat="49.27237" lon="1.12363">
        <ele>127</ele>
        <time>2025-03-26T14:14:14.000Z</time>
      </trkpt>
      <trkpt lat="49.27237" lon="1.12347">
        <ele>126.9</ele>
        <time>2025-03-26T14:14:17.000Z</time>
      </trkpt>
      <trkpt lat="49.27238" lon="1.12327">
        <ele>126.7</ele>
        <time>2025-03-26T14:14:20.000Z</time>
      </trkpt>
      <trkpt lat="49.2724" lon="1.12311">
        <ele>126.5</ele>
        <time>2025-03-26T14:14:22.000Z</time>
      </trkpt>
      <trkpt lat="49.27244" lon="1.12296">
        <ele>126.4</ele>
        <time>2025-03-26T14:14:24.000Z</time>
      </trkpt>
      <trkpt lat="49.2725" lon="1.1228">
        <ele>126.1</ele>
        <time>2025-03-26T14:14:26.000Z</time>
      </trkpt>
      <trkpt lat="49.27255" lon="1.12263">
        <ele>126</ele>
        <time>2025-03-26T14:14:28.000Z</time>
      </trkpt>
      <trkpt lat="49.27258" lon="1.12245">
        <ele>125.8</ele>
        <time>2025-03-26T14:14:30.000Z</time>
      </trkpt>
      <trkpt lat="49.2726" lon="1.12226">
        <ele>125.5</ele>
        <time>2025-03-26T14:14:32.000Z</time>
      </trkpt>
      <trkpt lat="49.27262" lon="1.12209">
        <ele>125.4</ele>
        <time>2025-03-26T14:14:34.000Z</time>
      </trkpt>
      <trkpt lat="49.27265" lon="1.12192">
        <ele>125.2</ele>
        <time>2025-03-26T14:14:36.000Z</time>
      </trkpt>
      <trkpt lat="49.27268" lon="1.12178">
        <ele>125</ele>
        <time>2025-03-26T14:14:38.000Z</time>
      </trkpt>
      <trkpt lat="49.27272" lon="1.12159">
        <ele>124.7</ele>
        <time>2025-03-26T14:14:41.000Z</time>
      </trkpt>
      <trkpt lat="49.27273" lon="1.12144">
        <ele>124.5</ele>
        <time>2025-03-26T14:14:43.000Z</time>
      </trkpt>
      <trkpt lat="49.27273" lon="1.12127">
        <ele>124.4</ele>
        <time>2025-03-26T14:14:45.000Z</time>
      </trkpt>
      <trkpt lat="49.27272" lon="1.12109">
        <ele>124.4</ele>
        <time>2025-03-26T14:14:47.000Z</time>
      </trkpt>
      <trkpt lat="49.2727" lon="1.12092">
        <ele>124.3</ele>
        <time>2025-03-26T14:14:49.000Z</time>
      </trkpt>
      <trkpt lat="49.27269" lon="1.12074">
        <ele>124.4</ele>
        <time>2025-03-26T14:14:51.000Z</time>
      </trkpt>
      <trkpt lat="49.27268" lon="1.12055">
        <ele>124.5</ele>
        <time>2025-03-26T14:14:53.000Z</time>
      </trkpt>
      <trkpt lat="49.27267" lon="1.12037">
        <ele>124.7</ele>
        <time>2025-03-26T14:14:55.000Z</time>
      </trkpt>
      <trkpt lat="49.27266" lon="1.12017">
        <ele>124.9</ele>
        <time>2025-03-26T14:14:57.000Z</time>
      </trkpt>
      <trkpt lat="49.27266" lon="1.11998">
        <ele>125</ele>
        <time>2025-03-26T14:14:59.000Z</time>
      </trkpt>
      <trkpt lat="49.27265" lon="1.1198">
        <ele>125</ele>
        <time>2025-03-26T14:15:01.000Z</time>
      </trkpt>
      <trkpt lat="49.27266" lon="1.11961">
        <ele>125</ele>
        <time>2025-03-26T14:15:03.000Z</time>
      </trkpt>
      <trkpt lat="49.27268" lon="1.11942">
        <ele>125.1</ele>
        <time>2025-03-26T14:15:05.000Z</time>
      </trkpt>
      <trkpt lat="49.27269" lon="1.11923">
        <ele>125.2</ele>
        <time>2025-03-26T14:15:07.000Z</time>
      </trkpt>
      <trkpt lat="49.27269" lon="1.11904">
        <ele>125.2</ele>
        <time>2025-03-26T14:15:09.000Z</time>
      </trkpt>
      <trkpt lat="49.2727" lon="1.11885">
        <ele>125.2</ele>
        <time>2025-03-26T14:15:11.000Z</time>
      </trkpt>
      <trkpt lat="49.2727" lon="1.11867">
        <ele>125.2</ele>
        <time>2025-03-26T14:15:13.000Z</time>
      </trkpt>
      <trkpt lat="49.27269" lon="1.1185">
        <ele>125.3</ele>
        <time>2025-03-26T14:15:15.000Z</time>
      </trkpt>
      <trkpt lat="49.27267" lon="1.11834">
        <ele>125.2</ele>
        <time>2025-03-26T14:15:17.000Z</time>
      </trkpt>
      <trkpt lat="49.27265" lon="1.11819">
        <ele>125.2</ele>
        <time>2025-03-26T14:15:19.000Z</time>
      </trkpt>
      <trkpt lat="49.27262" lon="1.11805">
        <ele>125.2</ele>
        <time>2025-03-26T14:15:21.000Z</time>
      </trkpt>
      <trkpt lat="49.2726" lon="1.1179">
        <ele>125.1</ele>
        <time>2025-03-26T14:15:23.000Z</time>
      </trkpt>
      <trkpt lat="49.27258" lon="1.11774">
        <ele>125.1</ele>
        <time>2025-03-26T14:15:25.000Z</time>
      </trkpt>
      <trkpt lat="49.27256" lon="1.11756">
        <ele>125.1</ele>
        <time>2025-03-26T14:15:27.000Z</time>
      </trkpt>
      <trkpt lat="49.27254" lon="1.11738">
        <ele>125.1</ele>
        <time>2025-03-26T14:15:29.000Z</time>
      </trkpt>
      <trkpt lat="49.27252" lon="1.1172">
        <ele>125.1</ele>
        <time>2025-03-26T14:15:31.000Z</time>
      </trkpt>
      <trkpt lat="49.27251" lon="1.11703">
        <ele>125.1</ele>
        <time>2025-03-26T14:15:33.000Z</time>
      </trkpt>
      <trkpt lat="49.2725" lon="1.11686">
        <ele>125.1</ele>
        <time>2025-03-26T14:15:35.000Z</time>
      </trkpt>
      <trkpt lat="49.27247" lon="1.11669">
        <ele>125.2</ele>
        <time>2025-03-26T14:15:37.000Z</time>
      </trkpt>
      <trkpt lat="49.27244" lon="1.11653">
        <ele>125.3</ele>
        <time>2025-03-26T14:15:39.000Z</time>
      </trkpt>
      <trkpt lat="49.27242" lon="1.11636">
        <ele>125.4</ele>
        <time>2025-03-26T14:15:41.000Z</time>
      </trkpt>
      <trkpt lat="49.2724" lon="1.1162">
        <ele>125.6</ele>
        <time>2025-03-26T14:15:43.000Z</time>
      </trkpt>
      <trkpt lat="49.27241" lon="1.11605">
        <ele>125.9</ele>
        <time>2025-03-26T14:15:45.000Z</time>
      </trkpt>
      <trkpt lat="49.27242" lon="1.11588">
        <ele>126.2</ele>
        <time>2025-03-26T14:15:47.000Z</time>
      </trkpt>
      <trkpt lat="49.27243" lon="1.11572">
        <ele>126.3</ele>
        <time>2025-03-26T14:15:49.000Z</time>
      </trkpt>
      <trkpt lat="49.27245" lon="1.11555">
        <ele>126.6</ele>
        <time>2025-03-26T14:15:51.000Z</time>
      </trkpt>
      <trkpt lat="49.27247" lon="1.11537">
        <ele>126.8</ele>
        <time>2025-03-26T14:15:53.000Z</time>
      </trkpt>
      <trkpt lat="49.27251" lon="1.1152">
        <ele>127</ele>
        <time>2025-03-26T14:15:55.000Z</time>
      </trkpt>
      <trkpt lat="49.27254" lon="1.11501">
        <ele>127.2</ele>
        <time>2025-03-26T14:15:57.000Z</time>
      </trkpt>
      <trkpt lat="49.27256" lon="1.11482">
        <ele>127.5</ele>
        <time>2025-03-26T14:15:59.000Z</time>
      </trkpt>
      <trkpt lat="49.2726" lon="1.11464">
        <ele>127.4</ele>
        <time>2025-03-26T14:16:01.000Z</time>
      </trkpt>
      <trkpt lat="49.27264" lon="1.11447">
        <ele>127.3</ele>
        <time>2025-03-26T14:16:03.000Z</time>
      </trkpt>
      <trkpt lat="49.27268" lon="1.11429">
        <ele>127.4</ele>
        <time>2025-03-26T14:16:05.000Z</time>
      </trkpt>
      <trkpt lat="49.27272" lon="1.11412">
        <ele>127.5</ele>
        <time>2025-03-26T14:16:07.000Z</time>
      </trkpt>
      <trkpt lat="49.27276" lon="1.11396">
        <ele>127.6</ele>
        <time>2025-03-26T14:16:09.000Z</time>
      </trkpt>
      <trkpt lat="49.27278" lon="1.11378">
        <ele>127.8</ele>
        <time>2025-03-26T14:16:11.000Z</time>
      </trkpt>
      <trkpt lat="49.2728" lon="1.11361">
        <ele>128</ele>
        <time>2025-03-26T14:16:13.000Z</time>
      </trkpt>
      <trkpt lat="49.2728" lon="1.11344">
        <ele>128.4</ele>
        <time>2025-03-26T14:16:15.000Z</time>
      </trkpt>
      <trkpt lat="49.27281" lon="1.11327">
        <ele>128.9</ele>
        <time>2025-03-26T14:16:17.000Z</time>
      </trkpt>
      <trkpt lat="49.27282" lon="1.1131">
        <ele>129.1</ele>
        <time>2025-03-26T14:16:19.000Z</time>
      </trkpt>
      <trkpt lat="49.27285" lon="1.11295">
        <ele>129.3</ele>
        <time>2025-03-26T14:16:21.000Z</time>
      </trkpt>
      <trkpt lat="49.27289" lon="1.11279">
        <ele>129.4</ele>
        <time>2025-03-26T14:16:23.000Z</time>
      </trkpt>
      <trkpt lat="49.27294" lon="1.11262">
        <ele>129.5</ele>
        <time>2025-03-26T14:16:25.000Z</time>
      </trkpt>
      <trkpt lat="49.27299" lon="1.11245">
        <ele>129.6</ele>
        <time>2025-03-26T14:16:27.000Z</time>
      </trkpt>
      <trkpt lat="49.27304" lon="1.11228">
        <ele>129.6</ele>
        <time>2025-03-26T14:16:29.000Z</time>
      </trkpt>
      <trkpt lat="49.27311" lon="1.11212">
        <ele>129.6</ele>
        <time>2025-03-26T14:16:31.000Z</time>
      </trkpt>
      <trkpt lat="49.2732" lon="1.11199">
        <ele>129.6</ele>
        <time>2025-03-26T14:16:33.000Z</time>
      </trkpt>
      <trkpt lat="49.2733" lon="1.11188">
        <ele>129.7</ele>
        <time>2025-03-26T14:16:35.000Z</time>
      </trkpt>
      <trkpt lat="49.27339" lon="1.11179">
        <ele>129.7</ele>
        <time>2025-03-26T14:16:37.000Z</time>
      </trkpt>
      <trkpt lat="49.27349" lon="1.11169">
        <ele>129.6</ele>
        <time>2025-03-26T14:16:39.000Z</time>
      </trkpt>
      <trkpt lat="49.27357" lon="1.11158">
        <ele>129.5</ele>
        <time>2025-03-26T14:16:41.000Z</time>
      </trkpt>
      <trkpt lat="49.27363" lon="1.11148">
        <ele>129.4</ele>
        <time>2025-03-26T14:16:43.000Z</time>
      </trkpt>
      <trkpt lat="49.27372" lon="1.11137">
        <ele>129</ele>
        <time>2025-03-26T14:16:48.000Z</time>
      </trkpt>
      <trkpt lat="49.27381" lon="1.11128">
        <ele>128.7</ele>
        <time>2025-03-26T14:16:52.000Z</time>
      </trkpt>
      <trkpt lat="49.27391" lon="1.11125">
        <ele>128.5</ele>
        <time>2025-03-26T14:16:55.000Z</time>
      </trkpt>
      <trkpt lat="49.27402" lon="1.11121">
        <ele>128.5</ele>
        <time>2025-03-26T14:16:58.000Z</time>
      </trkpt>
      <trkpt lat="49.27414" lon="1.11117">
        <ele>128.4</ele>
        <time>2025-03-26T14:17:01.000Z</time>
      </trkpt>
      <trkpt lat="49.27427" lon="1.11111">
        <ele>128.8</ele>
        <time>2025-03-26T14:17:04.000Z</time>
      </trkpt>
      <trkpt lat="49.27437" lon="1.11104">
        <ele>128.9</ele>
        <time>2025-03-26T14:17:06.000Z</time>
      </trkpt>
      <trkpt lat="49.27447" lon="1.11098">
        <ele>128.9</ele>
        <time>2025-03-26T14:17:08.000Z</time>
      </trkpt>
      <trkpt lat="49.27459" lon="1.11091">
        <ele>128.9</ele>
        <time>2025-03-26T14:17:11.000Z</time>
      </trkpt>
      <trkpt lat="49.2747" lon="1.11085">
        <ele>128.8</ele>
        <time>2025-03-26T14:17:14.000Z</time>
      </trkpt>
      <trkpt lat="49.2748" lon="1.11078">
        <ele>128.8</ele>
        <time>2025-03-26T14:17:17.000Z</time>
      </trkpt>
      <trkpt lat="49.27491" lon="1.1107">
        <ele>128.9</ele>
        <time>2025-03-26T14:17:20.000Z</time>
      </trkpt>
      <trkpt lat="49.27504" lon="1.11062">
        <ele>128.9</ele>
        <time>2025-03-26T14:17:23.000Z</time>
      </trkpt>
      <trkpt lat="49.27512" lon="1.11054">
        <ele>128.8</ele>
        <time>2025-03-26T14:17:26.000Z</time>
      </trkpt>
      <trkpt lat="49.27513" lon="1.11038">
        <ele>128.7</ele>
        <time>2025-03-26T14:17:31.000Z</time>
      </trkpt>
      <trkpt lat="49.27509" lon="1.11025">
        <ele>128.6</ele>
        <time>2025-03-26T14:17:34.000Z</time>
      </trkpt>
      <trkpt lat="49.27509" lon="1.11006">
        <ele>128.6</ele>
        <time>2025-03-26T14:17:37.000Z</time>
      </trkpt>
      <trkpt lat="49.27507" lon="1.10992">
        <ele>128.6</ele>
        <time>2025-03-26T14:17:39.000Z</time>
      </trkpt>
      <trkpt lat="49.27504" lon="1.10976">
        <ele>128.6</ele>
        <time>2025-03-26T14:17:41.000Z</time>
      </trkpt>
      <trkpt lat="49.27501" lon="1.10959">
        <ele>128.7</ele>
        <time>2025-03-26T14:17:43.000Z</time>
      </trkpt>
      <trkpt lat="49.27496" lon="1.10942">
        <ele>128.8</ele>
        <time>2025-03-26T14:17:45.000Z</time>
      </trkpt>
      <trkpt lat="49.27492" lon="1.10924">
        <ele>128.8</ele>
        <time>2025-03-26T14:17:47.000Z</time>
      </trkpt>
      <trkpt lat="49.27489" lon="1.10908">
        <ele>128.9</ele>
        <time>2025-03-26T14:17:49.000Z</time>
      </trkpt>
      <trkpt lat="49.27486" lon="1.10892">
        <ele>129</ele>
        <time>2025-03-26T14:17:51.000Z</time>
      </trkpt>
      <trkpt lat="49.27482" lon="1.10875">
        <ele>129.1</ele>
        <time>2025-03-26T14:17:53.000Z</time>
      </trkpt>
      <trkpt lat="49.27477" lon="1.10857">
        <ele>129.3</ele>
        <time>2025-03-26T14:17:55.000Z</time>
      </trkpt>
      <trkpt lat="49.27473" lon="1.10839">
        <ele>129.4</ele>
        <time>2025-03-26T14:17:57.000Z</time>
      </trkpt>
      <trkpt lat="49.27469" lon="1.10823">
        <ele>129.5</ele>
        <time>2025-03-26T14:17:59.000Z</time>
      </trkpt>
      <trkpt lat="49.27466" lon="1.10808">
        <ele>129.6</ele>
        <time>2025-03-26T14:18:01.000Z</time>
      </trkpt>
      <trkpt lat="49.27469" lon="1.10793">
        <ele>129.8</ele>
        <time>2025-03-26T14:18:04.000Z</time>
      </trkpt>
      <trkpt lat="49.27477" lon="1.10785">
        <ele>129.8</ele>
        <time>2025-03-26T14:18:07.000Z</time>
      </trkpt>
      <trkpt lat="49.27489" lon="1.1078">
        <ele>129.8</ele>
        <time>2025-03-26T14:18:11.000Z</time>
      </trkpt>
      <trkpt lat="49.27499" lon="1.10773">
        <ele>129.7</ele>
        <time>2025-03-26T14:18:14.000Z</time>
      </trkpt>
      <trkpt lat="49.27508" lon="1.10769">
        <ele>129.7</ele>
        <time>2025-03-26T14:18:16.000Z</time>
      </trkpt>
      <trkpt lat="49.27519" lon="1.10763">
        <ele>129.7</ele>
        <time>2025-03-26T14:18:18.000Z</time>
      </trkpt>
      <trkpt lat="49.27529" lon="1.10757">
        <ele>129.6</ele>
        <time>2025-03-26T14:18:20.000Z</time>
      </trkpt>
      <trkpt lat="49.27539" lon="1.10751">
        <ele>129.5</ele>
        <time>2025-03-26T14:18:22.000Z</time>
      </trkpt>
      <trkpt lat="49.27549" lon="1.10744">
        <ele>129.5</ele>
        <time>2025-03-26T14:18:24.000Z</time>
      </trkpt>
      <trkpt lat="49.27557" lon="1.10739">
        <ele>129.5</ele>
        <time>2025-03-26T14:18:26.000Z</time>
      </trkpt>
      <trkpt lat="49.27568" lon="1.10731">
        <ele>129.4</ele>
        <time>2025-03-26T14:18:29.000Z</time>
      </trkpt>
      <trkpt lat="49.2758" lon="1.10723">
        <ele>129.2</ele>
        <time>2025-03-26T14:18:32.000Z</time>
      </trkpt>
      <trkpt lat="49.27592" lon="1.10718">
        <ele>128.9</ele>
        <time>2025-03-26T14:18:35.000Z</time>
      </trkpt>
      <trkpt lat="49.27604" lon="1.10709">
        <ele>128.7</ele>
        <time>2025-03-26T14:18:38.000Z</time>
      </trkpt>
      <trkpt lat="49.27613" lon="1.10704">
        <ele>128.6</ele>
        <time>2025-03-26T14:18:40.000Z</time>
      </trkpt>
      <trkpt lat="49.27623" lon="1.10699">
        <ele>128.5</ele>
        <time>2025-03-26T14:18:42.000Z</time>
      </trkpt>
      <trkpt lat="49.27633" lon="1.10693">
        <ele>128.4</ele>
        <time>2025-03-26T14:18:45.000Z</time>
      </trkpt>
      <trkpt lat="49.27643" lon="1.10688">
        <ele>128.3</ele>
        <time>2025-03-26T14:18:48.000Z</time>
      </trkpt>
      <trkpt lat="49.27656" lon="1.1068">
        <ele>128.4</ele>
        <time>2025-03-26T14:18:51.000Z</time>
      </trkpt>
      <trkpt lat="49.27665" lon="1.10675">
        <ele>128.4</ele>
        <time>2025-03-26T14:18:53.000Z</time>
      </trkpt>
      <trkpt lat="49.27676" lon="1.10671">
        <ele>128.4</ele>
        <time>2025-03-26T14:18:55.000Z</time>
      </trkpt>
      <trkpt lat="49.27686" lon="1.10666">
        <ele>128.5</ele>
        <time>2025-03-26T14:18:57.000Z</time>
      </trkpt>
      <trkpt lat="49.27697" lon="1.10659">
        <ele>128.6</ele>
        <time>2025-03-26T14:18:59.000Z</time>
      </trkpt>
      <trkpt lat="49.27707" lon="1.10654">
        <ele>128.7</ele>
        <time>2025-03-26T14:19:01.000Z</time>
      </trkpt>
      <trkpt lat="49.27716" lon="1.10648">
        <ele>128.7</ele>
        <time>2025-03-26T14:19:03.000Z</time>
      </trkpt>
      <trkpt lat="49.27726" lon="1.10644">
        <ele>128.8</ele>
        <time>2025-03-26T14:19:05.000Z</time>
      </trkpt>
      <trkpt lat="49.27736" lon="1.10635">
        <ele>128.8</ele>
        <time>2025-03-26T14:19:08.000Z</time>
      </trkpt>
      <trkpt lat="49.27735" lon="1.1062">
        <ele>129</ele>
        <time>2025-03-26T14:19:14.000Z</time>
      </trkpt>
      <trkpt lat="49.27727" lon="1.1061">
        <ele>129.2</ele>
        <time>2025-03-26T14:19:18.000Z</time>
      </trkpt>
      <trkpt lat="49.27719" lon="1.10597">
        <ele>129.3</ele>
        <time>2025-03-26T14:19:21.000Z</time>
      </trkpt>
      <trkpt lat="49.2771" lon="1.10586">
        <ele>129.4</ele>
        <time>2025-03-26T14:19:23.000Z</time>
      </trkpt>
      <trkpt lat="49.27701" lon="1.10574">
        <ele>129.5</ele>
        <time>2025-03-26T14:19:25.000Z</time>
      </trkpt>
      <trkpt lat="49.27691" lon="1.10563">
        <ele>129.6</ele>
        <time>2025-03-26T14:19:27.000Z</time>
      </trkpt>
      <trkpt lat="49.27683" lon="1.1055">
        <ele>129.8</ele>
        <time>2025-03-26T14:19:29.000Z</time>
      </trkpt>
      <trkpt lat="49.27674" lon="1.10537">
        <ele>129.9</ele>
        <time>2025-03-26T14:19:31.000Z</time>
      </trkpt>
      <trkpt lat="49.27666" lon="1.10524">
        <ele>130.1</ele>
        <time>2025-03-26T14:19:33.000Z</time>
      </trkpt>
      <trkpt lat="49.27658" lon="1.10507">
        <ele>130.4</ele>
        <time>2025-03-26T14:19:35.000Z</time>
      </trkpt>
      <trkpt lat="49.2765" lon="1.10488">
        <ele>130.5</ele>
        <time>2025-03-26T14:19:37.000Z</time>
      </trkpt>
      <trkpt lat="49.27644" lon="1.10469">
        <ele>130.6</ele>
        <time>2025-03-26T14:19:39.000Z</time>
      </trkpt>
      <trkpt lat="49.27637" lon="1.10452">
        <ele>130.8</ele>
        <time>2025-03-26T14:19:41.000Z</time>
      </trkpt>
      <trkpt lat="49.2763" lon="1.10436">
        <ele>131</ele>
        <time>2025-03-26T14:19:43.000Z</time>
      </trkpt>
      <trkpt lat="49.27622" lon="1.1042">
        <ele>131.3</ele>
        <time>2025-03-26T14:19:45.000Z</time>
      </trkpt>
      <trkpt lat="49.27613" lon="1.10407">
        <ele>131.5</ele>
        <time>2025-03-26T14:19:47.000Z</time>
      </trkpt>
      <trkpt lat="49.27603" lon="1.10395">
        <ele>131.6</ele>
        <time>2025-03-26T14:19:49.000Z</time>
      </trkpt>
      <trkpt lat="49.27594" lon="1.10384">
        <ele>131.7</ele>
        <time>2025-03-26T14:19:51.000Z</time>
      </trkpt>
      <trkpt lat="49.27583" lon="1.10374">
        <ele>131.8</ele>
        <time>2025-03-26T14:19:53.000Z</time>
      </trkpt>
      <trkpt lat="49.27572" lon="1.10364">
        <ele>131.8</ele>
        <time>2025-03-26T14:19:55.000Z</time>
      </trkpt>
      <trkpt lat="49.27562" lon="1.10353">
        <ele>131.8</ele>
        <time>2025-03-26T14:19:57.000Z</time>
      </trkpt>
      <trkpt lat="49.27553" lon="1.10341">
        <ele>131.9</ele>
        <time>2025-03-26T14:19:59.000Z</time>
      </trkpt>
      <trkpt lat="49.27545" lon="1.10326">
        <ele>132</ele>
        <time>2025-03-26T14:20:01.000Z</time>
      </trkpt>
      <trkpt lat="49.27539" lon="1.10311">
        <ele>132.1</ele>
        <time>2025-03-26T14:20:03.000Z</time>
      </trkpt>
      <trkpt lat="49.27533" lon="1.10294">
        <ele>132.3</ele>
        <time>2025-03-26T14:20:05.000Z</time>
      </trkpt>
      <trkpt lat="49.27527" lon="1.10278">
        <ele>132.3</ele>
        <time>2025-03-26T14:20:07.000Z</time>
      </trkpt>
      <trkpt lat="49.27522" lon="1.10261">
        <ele>132.3</ele>
        <time>2025-03-26T14:20:09.000Z</time>
      </trkpt>
      <trkpt lat="49.27517" lon="1.10244">
        <ele>132.3</ele>
        <time>2025-03-26T14:20:11.000Z</time>
      </trkpt>
      <trkpt lat="49.27513" lon="1.10226">
        <ele>132.4</ele>
        <time>2025-03-26T14:20:13.000Z</time>
      </trkpt>
      <trkpt lat="49.2751" lon="1.10209">
        <ele>132.4</ele>
        <time>2025-03-26T14:20:15.000Z</time>
      </trkpt>
      <trkpt lat="49.27507" lon="1.10194">
        <ele>132.4</ele>
        <time>2025-03-26T14:20:17.000Z</time>
      </trkpt>
      <trkpt lat="49.27504" lon="1.10177">
        <ele>132.4</ele>
        <time>2025-03-26T14:20:19.000Z</time>
      </trkpt>
      <trkpt lat="49.275" lon="1.10159">
        <ele>132.5</ele>
        <time>2025-03-26T14:20:21.000Z</time>
      </trkpt>
      <trkpt lat="49.27497" lon="1.10141">
        <ele>132.5</ele>
        <time>2025-03-26T14:20:23.000Z</time>
      </trkpt>
      <trkpt lat="49.27493" lon="1.10123">
        <ele>132.5</ele>
        <time>2025-03-26T14:20:25.000Z</time>
      </trkpt>
      <trkpt lat="49.27488" lon="1.10105">
        <ele>132.5</ele>
        <time>2025-03-26T14:20:27.000Z</time>
      </trkpt>
      <trkpt lat="49.27482" lon="1.10088">
        <ele>132.5</ele>
        <time>2025-03-26T14:20:29.000Z</time>
      </trkpt>
      <trkpt lat="49.27475" lon="1.10076">
        <ele>132.5</ele>
        <time>2025-03-26T14:20:31.000Z</time>
      </trkpt>
      <trkpt lat="49.27466" lon="1.10064">
        <ele>132.4</ele>
        <time>2025-03-26T14:20:33.000Z</time>
      </trkpt>
      <trkpt lat="49.27455" lon="1.10053">
        <ele>132.4</ele>
        <time>2025-03-26T14:20:35.000Z</time>
      </trkpt>
      <trkpt lat="49.27444" lon="1.10044">
        <ele>132.4</ele>
        <time>2025-03-26T14:20:37.000Z</time>
      </trkpt>
      <trkpt lat="49.27433" lon="1.10034">
        <ele>132.4</ele>
        <time>2025-03-26T14:20:39.000Z</time>
      </trkpt>
      <trkpt lat="49.27422" lon="1.10025">
        <ele>132.3</ele>
        <time>2025-03-26T14:20:41.000Z</time>
      </trkpt>
      <trkpt lat="49.27411" lon="1.10015">
        <ele>132.3</ele>
        <time>2025-03-26T14:20:43.000Z</time>
      </trkpt>
      <trkpt lat="49.274" lon="1.10005">
        <ele>132.2</ele>
        <time>2025-03-26T14:20:45.000Z</time>
      </trkpt>
      <trkpt lat="49.2739" lon="1.09996">
        <ele>132.1</ele>
        <time>2025-03-26T14:20:47.000Z</time>
      </trkpt>
      <trkpt lat="49.2738" lon="1.09986">
        <ele>132</ele>
        <time>2025-03-26T14:20:49.000Z</time>
      </trkpt>
      <trkpt lat="49.27369" lon="1.09975">
        <ele>132</ele>
        <time>2025-03-26T14:20:51.000Z</time>
      </trkpt>
      <trkpt lat="49.27359" lon="1.09965">
        <ele>132</ele>
        <time>2025-03-26T14:20:53.000Z</time>
      </trkpt>
      <trkpt lat="49.2735" lon="1.09955">
        <ele>132</ele>
        <time>2025-03-26T14:20:55.000Z</time>
      </trkpt>
      <trkpt lat="49.27342" lon="1.09946">
        <ele>132.1</ele>
        <time>2025-03-26T14:20:57.000Z</time>
      </trkpt>
      <trkpt lat="49.27334" lon="1.09937">
        <ele>132</ele>
        <time>2025-03-26T14:20:59.000Z</time>
      </trkpt>
      <trkpt lat="49.27327" lon="1.09927">
        <ele>131.9</ele>
        <time>2025-03-26T14:21:01.000Z</time>
      </trkpt>
      <trkpt lat="49.27318" lon="1.09913">
        <ele>131.7</ele>
        <time>2025-03-26T14:21:04.000Z</time>
      </trkpt>
      <trkpt lat="49.2731" lon="1.09902">
        <ele>131.6</ele>
        <time>2025-03-26T14:21:07.000Z</time>
      </trkpt>
      <trkpt lat="49.27299" lon="1.09891">
        <ele>131.6</ele>
        <time>2025-03-26T14:21:10.000Z</time>
      </trkpt>
      <trkpt lat="49.27289" lon="1.09884">
        <ele>131.6</ele>
        <time>2025-03-26T14:21:12.000Z</time>
      </trkpt>
      <trkpt lat="49.2728" lon="1.09878">
        <ele>131.6</ele>
        <time>2025-03-26T14:21:14.000Z</time>
      </trkpt>
      <trkpt lat="49.27269" lon="1.09873">
        <ele>131.6</ele>
        <time>2025-03-26T14:21:16.000Z</time>
      </trkpt>
      <trkpt lat="49.27259" lon="1.0987">
        <ele>131.5</ele>
        <time>2025-03-26T14:21:18.000Z</time>
      </trkpt>
      <trkpt lat="49.27244" lon="1.0987">
        <ele>131.6</ele>
        <time>2025-03-26T14:21:20.000Z</time>
      </trkpt>
      <trkpt lat="49.27232" lon="1.0987">
        <ele>131.6</ele>
        <time>2025-03-26T14:21:22.000Z</time>
      </trkpt>
      <trkpt lat="49.2722" lon="1.09876">
        <ele>131.6</ele>
        <time>2025-03-26T14:21:24.000Z</time>
      </trkpt>
      <trkpt lat="49.27208" lon="1.09883">
        <ele>131.6</ele>
        <time>2025-03-26T14:21:26.000Z</time>
      </trkpt>
      <trkpt lat="49.27197" lon="1.09888">
        <ele>131.6</ele>
        <time>2025-03-26T14:21:28.000Z</time>
      </trkpt>
      <trkpt lat="49.27186" lon="1.09894">
        <ele>131.5</ele>
        <time>2025-03-26T14:21:30.000Z</time>
      </trkpt>
      <trkpt lat="49.27176" lon="1.09901">
        <ele>131.5</ele>
        <time>2025-03-26T14:21:32.000Z</time>
      </trkpt>
      <trkpt lat="49.27169" lon="1.0991">
        <ele>131.5</ele>
        <time>2025-03-26T14:21:34.000Z</time>
      </trkpt>
      <trkpt lat="49.27159" lon="1.09915">
        <ele>131.6</ele>
        <time>2025-03-26T14:21:37.000Z</time>
      </trkpt>
      <trkpt lat="49.27154" lon="1.09897">
        <ele>131.7</ele>
        <time>2025-03-26T14:21:41.000Z</time>
      </trkpt>
      <trkpt lat="49.27155" lon="1.09881">
        <ele>131.7</ele>
        <time>2025-03-26T14:21:43.000Z</time>
      </trkpt>
      <trkpt lat="49.27157" lon="1.09865">
        <ele>131.7</ele>
        <time>2025-03-26T14:21:45.000Z</time>
      </trkpt>
      <trkpt lat="49.27162" lon="1.09848">
        <ele>131.7</ele>
        <time>2025-03-26T14:21:47.000Z</time>
      </trkpt>
      <trkpt lat="49.27167" lon="1.09831">
        <ele>131.8</ele>
        <time>2025-03-26T14:21:49.000Z</time>
      </trkpt>
      <trkpt lat="49.27169" lon="1.09812">
        <ele>131.8</ele>
        <time>2025-03-26T14:21:51.000Z</time>
      </trkpt>
      <trkpt lat="49.27169" lon="1.09793">
        <ele>131.8</ele>
        <time>2025-03-26T14:21:53.000Z</time>
      </trkpt>
      <trkpt lat="49.2717" lon="1.09774">
        <ele>131.7</ele>
        <time>2025-03-26T14:21:55.000Z</time>
      </trkpt>
      <trkpt lat="49.27169" lon="1.09754">
        <ele>131.7</ele>
        <time>2025-03-26T14:21:57.000Z</time>
      </trkpt>
      <trkpt lat="49.27165" lon="1.09736">
        <ele>131.6</ele>
        <time>2025-03-26T14:21:59.000Z</time>
      </trkpt>
      <trkpt lat="49.27158" lon="1.09721">
        <ele>131.5</ele>
        <time>2025-03-26T14:22:01.000Z</time>
      </trkpt>
      <trkpt lat="49.27151" lon="1.09708">
        <ele>131.4</ele>
        <time>2025-03-26T14:22:03.000Z</time>
      </trkpt>
      <trkpt lat="49.27143" lon="1.09696">
        <ele>131.3</ele>
        <time>2025-03-26T14:22:05.000Z</time>
      </trkpt>
      <trkpt lat="49.27135" lon="1.09686">
        <ele>130.9</ele>
        <time>2025-03-26T14:22:08.000Z</time>
      </trkpt>
      <trkpt lat="49.27122" lon="1.09687">
        <ele>130.4</ele>
        <time>2025-03-26T14:22:12.000Z</time>
      </trkpt>
      <trkpt lat="49.2711" lon="1.09692">
        <ele>130.1</ele>
        <time>2025-03-26T14:22:15.000Z</time>
      </trkpt>
      <trkpt lat="49.27099" lon="1.09696">
        <ele>130</ele>
        <time>2025-03-26T14:22:17.000Z</time>
      </trkpt>
      <trkpt lat="49.27088" lon="1.09701">
        <ele>130.1</ele>
        <time>2025-03-26T14:22:19.000Z</time>
      </trkpt>
      <trkpt lat="49.27077" lon="1.09706">
        <ele>130.2</ele>
        <time>2025-03-26T14:22:21.000Z</time>
      </trkpt>
      <trkpt lat="49.27067" lon="1.0971">
        <ele>130.2</ele>
        <time>2025-03-26T14:22:23.000Z</time>
      </trkpt>
      <trkpt lat="49.27058" lon="1.09712">
        <ele>130.4</ele>
        <time>2025-03-26T14:22:25.000Z</time>
      </trkpt>
      <trkpt lat="49.27046" lon="1.09719">
        <ele>130.5</ele>
        <time>2025-03-26T14:22:27.000Z</time>
      </trkpt>
      <trkpt lat="49.27034" lon="1.09723">
        <ele>130.6</ele>
        <time>2025-03-26T14:22:29.000Z</time>
      </trkpt>
      <trkpt lat="49.27023" lon="1.09727">
        <ele>130.8</ele>
        <time>2025-03-26T14:22:31.000Z</time>
      </trkpt>
      <trkpt lat="49.27012" lon="1.0973">
        <ele>131.3</ele>
        <time>2025-03-26T14:22:33.000Z</time>
      </trkpt>
      <trkpt lat="49.27001" lon="1.09735">
        <ele>131.6</ele>
        <time>2025-03-26T14:22:35.000Z</time>
      </trkpt>
      <trkpt lat="49.26992" lon="1.0974">
        <ele>131.8</ele>
        <time>2025-03-26T14:22:37.000Z</time>
      </trkpt>
      <trkpt lat="49.26982" lon="1.09737">
        <ele>132.3</ele>
        <time>2025-03-26T14:22:40.000Z</time>
      </trkpt>
      <trkpt lat="49.26975" lon="1.09721">
        <ele>132.7</ele>
        <time>2025-03-26T14:22:43.000Z</time>
      </trkpt>
      <trkpt lat="49.26972" lon="1.09708">
        <ele>133</ele>
        <time>2025-03-26T14:22:45.000Z</time>
      </trkpt>
      <trkpt lat="49.26968" lon="1.09694">
        <ele>133</ele>
        <time>2025-03-26T14:22:47.000Z</time>
      </trkpt>
      <trkpt lat="49.26961" lon="1.09678">
        <ele>133.1</ele>
        <time>2025-03-26T14:22:50.000Z</time>
      </trkpt>
      <trkpt lat="49.26951" lon="1.09677">
        <ele>133</ele>
        <time>2025-03-26T14:22:53.000Z</time>
      </trkpt>
      <trkpt lat="49.26939" lon="1.09682">
        <ele>133.1</ele>
        <time>2025-03-26T14:22:56.000Z</time>
      </trkpt>
      <trkpt lat="49.2693" lon="1.09686">
        <ele>133.2</ele>
        <time>2025-03-26T14:22:58.000Z</time>
      </trkpt>
      <trkpt lat="49.26919" lon="1.0969">
        <ele>133.3</ele>
        <time>2025-03-26T14:23:00.000Z</time>
      </trkpt>
      <trkpt lat="49.26909" lon="1.09695">
        <ele>133.3</ele>
        <time>2025-03-26T14:23:02.000Z</time>
      </trkpt>
      <trkpt lat="49.26899" lon="1.09699">
        <ele>133.4</ele>
        <time>2025-03-26T14:23:04.000Z</time>
      </trkpt>
      <trkpt lat="49.26889" lon="1.09705">
        <ele>133.5</ele>
        <time>2025-03-26T14:23:06.000Z</time>
      </trkpt>
      <trkpt lat="49.2688" lon="1.09707">
        <ele>133.5</ele>
        <time>2025-03-26T14:23:08.000Z</time>
      </trkpt>
      <trkpt lat="49.26869" lon="1.0971">
        <ele>133.6</ele>
        <time>2025-03-26T14:23:10.000Z</time>
      </trkpt>
      <trkpt lat="49.26858" lon="1.09714">
        <ele>133.7</ele>
        <time>2025-03-26T14:23:12.000Z</time>
      </trkpt>
      <trkpt lat="49.26847" lon="1.09718">
        <ele>133.8</ele>
        <time>2025-03-26T14:23:14.000Z</time>
      </trkpt>
      <trkpt lat="49.26836" lon="1.09723">
        <ele>133.9</ele>
        <time>2025-03-26T14:23:16.000Z</time>
      </trkpt>
      <trkpt lat="49.26824" lon="1.09727">
        <ele>134.1</ele>
        <time>2025-03-26T14:23:18.000Z</time>
      </trkpt>
      <trkpt lat="49.26813" lon="1.09732">
        <ele>134.3</ele>
        <time>2025-03-26T14:23:20.000Z</time>
      </trkpt>
      <trkpt lat="49.26802" lon="1.09736">
        <ele>134.3</ele>
        <time>2025-03-26T14:23:22.000Z</time>
      </trkpt>
      <trkpt lat="49.26791" lon="1.09739">
        <ele>134.3</ele>
        <time>2025-03-26T14:23:24.000Z</time>
      </trkpt>
      <trkpt lat="49.26782" lon="1.09744">
        <ele>134.5</ele>
        <time>2025-03-26T14:23:26.000Z</time>
      </trkpt>
      <trkpt lat="49.26773" lon="1.09749">
        <ele>134.5</ele>
        <time>2025-03-26T14:23:28.000Z</time>
      </trkpt>
      <trkpt lat="49.26762" lon="1.09753">
        <ele>134.5</ele>
        <time>2025-03-26T14:23:31.000Z</time>
      </trkpt>
      <trkpt lat="49.26754" lon="1.09748">
        <ele>134.6</ele>
        <time>2025-03-26T14:23:34.000Z</time>
      </trkpt>
      <trkpt lat="49.26751" lon="1.0973">
        <ele>134.7</ele>
        <time>2025-03-26T14:23:37.000Z</time>
      </trkpt>
      <trkpt lat="49.26749" lon="1.09709">
        <ele>134.6</ele>
        <time>2025-03-26T14:23:40.000Z</time>
      </trkpt>
      <trkpt lat="49.26747" lon="1.09691">
        <ele>134.6</ele>
        <time>2025-03-26T14:23:42.000Z</time>
      </trkpt>
      <trkpt lat="49.26741" lon="1.09674">
        <ele>134.5</ele>
        <time>2025-03-26T14:23:44.000Z</time>
      </trkpt>
      <trkpt lat="49.26733" lon="1.09662">
        <ele>134.4</ele>
        <time>2025-03-26T14:23:46.000Z</time>
      </trkpt>
      <trkpt lat="49.26725" lon="1.09651">
        <ele>134.3</ele>
        <time>2025-03-26T14:23:48.000Z</time>
      </trkpt>
      <trkpt lat="49.26717" lon="1.0964">
        <ele>134.1</ele>
        <time>2025-03-26T14:23:50.000Z</time>
      </trkpt>
      <trkpt lat="49.26709" lon="1.0963">
        <ele>133.9</ele>
        <time>2025-03-26T14:23:52.000Z</time>
      </trkpt>
      <trkpt lat="49.26702" lon="1.0962">
        <ele>133.7</ele>
        <time>2025-03-26T14:23:54.000Z</time>
      </trkpt>
      <trkpt lat="49.26695" lon="1.0961">
        <ele>133.5</ele>
        <time>2025-03-26T14:23:56.000Z</time>
      </trkpt>
      <trkpt lat="49.26686" lon="1.09597">
        <ele>133.2</ele>
        <time>2025-03-26T14:23:59.000Z</time>
      </trkpt>
      <trkpt lat="49.26675" lon="1.09586">
        <ele>132.9</ele>
        <time>2025-03-26T14:24:02.000Z</time>
      </trkpt>
      <trkpt lat="49.26665" lon="1.09585">
        <ele>132.4</ele>
        <time>2025-03-26T14:24:06.000Z</time>
      </trkpt>
      <trkpt lat="49.26659" lon="1.09603">
        <ele>132</ele>
        <time>2025-03-26T14:24:10.000Z</time>
      </trkpt>
      <trkpt lat="49.26651" lon="1.0962">
        <ele>131.9</ele>
        <time>2025-03-26T14:24:13.000Z</time>
      </trkpt>
      <trkpt lat="49.26645" lon="1.09633">
        <ele>131.9</ele>
        <time>2025-03-26T14:24:15.000Z</time>
      </trkpt>
      <trkpt lat="49.26639" lon="1.09648">
        <ele>131.7</ele>
        <time>2025-03-26T14:24:17.000Z</time>
      </trkpt>
      <trkpt lat="49.26633" lon="1.09662">
        <ele>131.6</ele>
        <time>2025-03-26T14:24:19.000Z</time>
      </trkpt>
      <trkpt lat="49.26629" lon="1.09678">
        <ele>131.4</ele>
        <time>2025-03-26T14:24:21.000Z</time>
      </trkpt>
      <trkpt lat="49.26627" lon="1.09695">
        <ele>131.3</ele>
        <time>2025-03-26T14:24:23.000Z</time>
      </trkpt>
      <trkpt lat="49.26626" lon="1.09712">
        <ele>131.3</ele>
        <time>2025-03-26T14:24:25.000Z</time>
      </trkpt>
      <trkpt lat="49.26625" lon="1.09731">
        <ele>131.2</ele>
        <time>2025-03-26T14:24:27.000Z</time>
      </trkpt>
      <trkpt lat="49.26624" lon="1.0975">
        <ele>131.2</ele>
        <time>2025-03-26T14:24:29.000Z</time>
      </trkpt>
      <trkpt lat="49.26622" lon="1.09768">
        <ele>131.2</ele>
        <time>2025-03-26T14:24:31.000Z</time>
      </trkpt>
      <trkpt lat="49.2662" lon="1.09786">
        <ele>131.3</ele>
        <time>2025-03-26T14:24:33.000Z</time>
      </trkpt>
      <trkpt lat="49.26618" lon="1.09804">
        <ele>131.4</ele>
        <time>2025-03-26T14:24:35.000Z</time>
      </trkpt>
      <trkpt lat="49.26616" lon="1.09821">
        <ele>131.5</ele>
        <time>2025-03-26T14:24:37.000Z</time>
      </trkpt>
      <trkpt lat="49.26616" lon="1.09835">
        <ele>131.7</ele>
        <time>2025-03-26T14:24:39.000Z</time>
      </trkpt>
      <trkpt lat="49.26615" lon="1.09855">
        <ele>131.7</ele>
        <time>2025-03-26T14:24:42.000Z</time>
      </trkpt>
      <trkpt lat="49.26615" lon="1.0987">
        <ele>131.7</ele>
        <time>2025-03-26T14:24:44.000Z</time>
      </trkpt>
      <trkpt lat="49.26614" lon="1.09888">
        <ele>131.7</ele>
        <time>2025-03-26T14:24:46.000Z</time>
      </trkpt>
      <trkpt lat="49.26613" lon="1.09905">
        <ele>131.8</ele>
        <time>2025-03-26T14:24:48.000Z</time>
      </trkpt>
      <trkpt lat="49.2661" lon="1.09923">
        <ele>131.8</ele>
        <time>2025-03-26T14:24:50.000Z</time>
      </trkpt>
      <trkpt lat="49.26606" lon="1.09941">
        <ele>132</ele>
        <time>2025-03-26T14:24:52.000Z</time>
      </trkpt>
      <trkpt lat="49.26601" lon="1.09958">
        <ele>132.1</ele>
        <time>2025-03-26T14:24:54.000Z</time>
      </trkpt>
      <trkpt lat="49.26597" lon="1.09974">
        <ele>132.1</ele>
        <time>2025-03-26T14:24:56.000Z</time>
      </trkpt>
      <trkpt lat="49.26594" lon="1.09989">
        <ele>132.1</ele>
        <time>2025-03-26T14:24:58.000Z</time>
      </trkpt>
      <trkpt lat="49.26592" lon="1.10008">
        <ele>132.2</ele>
        <time>2025-03-26T14:25:01.000Z</time>
      </trkpt>
      <trkpt lat="49.2659" lon="1.10022">
        <ele>132.2</ele>
        <time>2025-03-26T14:25:04.000Z</time>
      </trkpt>
      <trkpt lat="49.26592" lon="1.10037">
        <ele>132.1</ele>
        <time>2025-03-26T14:25:09.000Z</time>
      </trkpt>
      <trkpt lat="49.26585" lon="1.10046">
        <ele>131.9</ele>
        <time>2025-03-26T14:25:18.000Z</time>
      </trkpt>
      <trkpt lat="49.26575" lon="1.10039">
        <ele>131.8</ele>
        <time>2025-03-26T14:25:21.000Z</time>
      </trkpt>
      <trkpt lat="49.26561" lon="1.10034">
        <ele>131.7</ele>
        <time>2025-03-26T14:25:24.000Z</time>
      </trkpt>
      <trkpt lat="49.26549" lon="1.10032">
        <ele>131.7</ele>
        <time>2025-03-26T14:25:26.000Z</time>
      </trkpt>
      <trkpt lat="49.26536" lon="1.1003">
        <ele>131.6</ele>
        <time>2025-03-26T14:25:28.000Z</time>
      </trkpt>
      <trkpt lat="49.26523" lon="1.10028">
        <ele>131.4</ele>
        <time>2025-03-26T14:25:30.000Z</time>
      </trkpt>
      <trkpt lat="49.26511" lon="1.10023">
        <ele>131.3</ele>
        <time>2025-03-26T14:25:32.000Z</time>
      </trkpt>
      <trkpt lat="49.26501" lon="1.10013">
        <ele>131.3</ele>
        <time>2025-03-26T14:25:34.000Z</time>
      </trkpt>
      <trkpt lat="49.26493" lon="1.10001">
        <ele>131.1</ele>
        <time>2025-03-26T14:25:36.000Z</time>
      </trkpt>
      <trkpt lat="49.26487" lon="1.09989">
        <ele>130.9</ele>
        <time>2025-03-26T14:25:38.000Z</time>
      </trkpt>
      <trkpt lat="49.26479" lon="1.09975">
        <ele>130.5</ele>
        <time>2025-03-26T14:25:41.000Z</time>
      </trkpt>
      <trkpt lat="49.2647" lon="1.09963">
        <ele>130.2</ele>
        <time>2025-03-26T14:25:44.000Z</time>
      </trkpt>
      <trkpt lat="49.26462" lon="1.09952">
        <ele>130.1</ele>
        <time>2025-03-26T14:25:46.000Z</time>
      </trkpt>
      <trkpt lat="49.26454" lon="1.09944">
        <ele>129.8</ele>
        <time>2025-03-26T14:25:48.000Z</time>
      </trkpt>
      <trkpt lat="49.26453" lon="1.09928">
        <ele>129.5</ele>
        <time>2025-03-26T14:25:52.000Z</time>
      </trkpt>
      <trkpt lat="49.26451" lon="1.09911">
        <ele>129.2</ele>
        <time>2025-03-26T14:25:55.000Z</time>
      </trkpt>
      <trkpt lat="49.26446" lon="1.09893">
        <ele>128.9</ele>
        <time>2025-03-26T14:25:58.000Z</time>
      </trkpt>
      <trkpt lat="49.26442" lon="1.09879">
        <ele>128.8</ele>
        <time>2025-03-26T14:26:00.000Z</time>
      </trkpt>
      <trkpt lat="49.26439" lon="1.09864">
        <ele>128.6</ele>
        <time>2025-03-26T14:26:02.000Z</time>
      </trkpt>
      <trkpt lat="49.26436" lon="1.09851">
        <ele>128.5</ele>
        <time>2025-03-26T14:26:04.000Z</time>
      </trkpt>
      <trkpt lat="49.26431" lon="1.09831">
        <ele>128.1</ele>
        <time>2025-03-26T14:26:07.000Z</time>
      </trkpt>
      <trkpt lat="49.26427" lon="1.09815">
        <ele>127.7</ele>
        <time>2025-03-26T14:26:09.000Z</time>
      </trkpt>
      <trkpt lat="49.26423" lon="1.098">
        <ele>127.2</ele>
        <time>2025-03-26T14:26:11.000Z</time>
      </trkpt>
      <trkpt lat="49.26419" lon="1.09784">
        <ele>126.4</ele>
        <time>2025-03-26T14:26:13.000Z</time>
      </trkpt>
      <trkpt lat="49.26417" lon="1.09765">
        <ele>126.2</ele>
        <time>2025-03-26T14:26:15.000Z</time>
      </trkpt>
      <trkpt lat="49.26415" lon="1.09745">
        <ele>125.7</ele>
        <time>2025-03-26T14:26:17.000Z</time>
      </trkpt>
      <trkpt lat="49.26412" lon="1.09721">
        <ele>125.3</ele>
        <time>2025-03-26T14:26:19.000Z</time>
      </trkpt>
      <trkpt lat="49.26409" lon="1.09697">
        <ele>124.8</ele>
        <time>2025-03-26T14:26:21.000Z</time>
      </trkpt>
      <trkpt lat="49.26407" lon="1.09675">
        <ele>124.3</ele>
        <time>2025-03-26T14:26:23.000Z</time>
      </trkpt>
      <trkpt lat="49.26405" lon="1.09653">
        <ele>123.4</ele>
        <time>2025-03-26T14:26:25.000Z</time>
      </trkpt>
      <trkpt lat="49.26403" lon="1.09632">
        <ele>122.3</ele>
        <time>2025-03-26T14:26:27.000Z</time>
      </trkpt>
      <trkpt lat="49.26402" lon="1.09611">
        <ele>121.3</ele>
        <time>2025-03-26T14:26:29.000Z</time>
      </trkpt>
      <trkpt lat="49.264" lon="1.09591">
        <ele>120.1</ele>
        <time>2025-03-26T14:26:31.000Z</time>
      </trkpt>
      <trkpt lat="49.264" lon="1.09569">
        <ele>119</ele>
        <time>2025-03-26T14:26:33.000Z</time>
      </trkpt>
      <trkpt lat="49.264" lon="1.09547">
        <ele>117.8</ele>
        <time>2025-03-26T14:26:35.000Z</time>
      </trkpt>
      <trkpt lat="49.26397" lon="1.09523">
        <ele>116.7</ele>
        <time>2025-03-26T14:26:37.000Z</time>
      </trkpt>
      <trkpt lat="49.26394" lon="1.09498">
        <ele>116.1</ele>
        <time>2025-03-26T14:26:39.000Z</time>
      </trkpt>
      <trkpt lat="49.26393" lon="1.09475">
        <ele>115.3</ele>
        <time>2025-03-26T14:26:41.000Z</time>
      </trkpt>
      <trkpt lat="49.26391" lon="1.09455">
        <ele>114.4</ele>
        <time>2025-03-26T14:26:43.000Z</time>
      </trkpt>
      <trkpt lat="49.26389" lon="1.09434">
        <ele>113.6</ele>
        <time>2025-03-26T14:26:45.000Z</time>
      </trkpt>
      <trkpt lat="49.26387" lon="1.09411">
        <ele>113</ele>
        <time>2025-03-26T14:26:47.000Z</time>
      </trkpt>
      <trkpt lat="49.26386" lon="1.09388">
        <ele>112.4</ele>
        <time>2025-03-26T14:26:49.000Z</time>
      </trkpt>
      <trkpt lat="49.26386" lon="1.09369">
        <ele>112.1</ele>
        <time>2025-03-26T14:26:51.000Z</time>
      </trkpt>
      <trkpt lat="49.26387" lon="1.09352">
        <ele>111.8</ele>
        <time>2025-03-26T14:26:53.000Z</time>
      </trkpt>
      <trkpt lat="49.26388" lon="1.09337">
        <ele>111.3</ele>
        <time>2025-03-26T14:26:55.000Z</time>
      </trkpt>
      <trkpt lat="49.26388" lon="1.09319">
        <ele>110.4</ele>
        <time>2025-03-26T14:26:58.000Z</time>
      </trkpt>
      <trkpt lat="49.26389" lon="1.09302">
        <ele>109.2</ele>
        <time>2025-03-26T14:27:02.000Z</time>
      </trkpt>
      <trkpt lat="49.26392" lon="1.09283">
        <ele>108.5</ele>
        <time>2025-03-26T14:27:05.000Z</time>
      </trkpt>
      <trkpt lat="49.26394" lon="1.09267">
        <ele>108.2</ele>
        <time>2025-03-26T14:27:07.000Z</time>
      </trkpt>
      <trkpt lat="49.26397" lon="1.09253">
        <ele>107.9</ele>
        <time>2025-03-26T14:27:09.000Z</time>
      </trkpt>
      <trkpt lat="49.264" lon="1.09234">
        <ele>107.6</ele>
        <time>2025-03-26T14:27:12.000Z</time>
      </trkpt>
      <trkpt lat="49.26405" lon="1.0922">
        <ele>107.5</ele>
        <time>2025-03-26T14:27:14.000Z</time>
      </trkpt>
      <trkpt lat="49.2641" lon="1.09205">
        <ele>107.3</ele>
        <time>2025-03-26T14:27:16.000Z</time>
      </trkpt>
      <trkpt lat="49.26416" lon="1.0919">
        <ele>107</ele>
        <time>2025-03-26T14:27:18.000Z</time>
      </trkpt>
      <trkpt lat="49.26423" lon="1.09175">
        <ele>106.8</ele>
        <time>2025-03-26T14:27:20.000Z</time>
      </trkpt>
      <trkpt lat="49.2643" lon="1.0916">
        <ele>106.4</ele>
        <time>2025-03-26T14:27:22.000Z</time>
      </trkpt>
      <trkpt lat="49.26437" lon="1.09145">
        <ele>105.9</ele>
        <time>2025-03-26T14:27:24.000Z</time>
      </trkpt>
      <trkpt lat="49.26447" lon="1.09131">
        <ele>105.1</ele>
        <time>2025-03-26T14:27:26.000Z</time>
      </trkpt>
      <trkpt lat="49.26457" lon="1.0912">
        <ele>104.1</ele>
        <time>2025-03-26T14:27:28.000Z</time>
      </trkpt>
      <trkpt lat="49.26468" lon="1.09113">
        <ele>103</ele>
        <time>2025-03-26T14:27:30.000Z</time>
      </trkpt>
      <trkpt lat="49.26479" lon="1.09105">
        <ele>102.2</ele>
        <time>2025-03-26T14:27:32.000Z</time>
      </trkpt>
      <trkpt lat="49.26488" lon="1.09097">
        <ele>101.6</ele>
        <time>2025-03-26T14:27:34.000Z</time>
      </trkpt>
      <trkpt lat="49.26496" lon="1.09089">
        <ele>101</ele>
        <time>2025-03-26T14:27:36.000Z</time>
      </trkpt>
      <trkpt lat="49.26507" lon="1.0908">
        <ele>100.2</ele>
        <time>2025-03-26T14:27:39.000Z</time>
      </trkpt>
      <trkpt lat="49.26518" lon="1.09072">
        <ele>99.9</ele>
        <time>2025-03-26T14:27:42.000Z</time>
      </trkpt>
      <trkpt lat="49.26527" lon="1.09066">
        <ele>99.7</ele>
        <time>2025-03-26T14:27:44.000Z</time>
      </trkpt>
      <trkpt lat="49.26536" lon="1.0906">
        <ele>99.6</ele>
        <time>2025-03-26T14:27:46.000Z</time>
      </trkpt>
      <trkpt lat="49.26549" lon="1.09051">
        <ele>99.7</ele>
        <time>2025-03-26T14:27:49.000Z</time>
      </trkpt>
      <trkpt lat="49.26559" lon="1.09042">
        <ele>99.8</ele>
        <time>2025-03-26T14:27:51.000Z</time>
      </trkpt>
      <trkpt lat="49.26567" lon="1.09035">
        <ele>99.9</ele>
        <time>2025-03-26T14:27:53.000Z</time>
      </trkpt>
      <trkpt lat="49.26578" lon="1.09026">
        <ele>100</ele>
        <time>2025-03-26T14:27:55.000Z</time>
      </trkpt>
      <trkpt lat="49.2659" lon="1.09014">
        <ele>100.1</ele>
        <time>2025-03-26T14:27:57.000Z</time>
      </trkpt>
      <trkpt lat="49.26601" lon="1.09002">
        <ele>100.1</ele>
        <time>2025-03-26T14:27:59.000Z</time>
      </trkpt>
      <trkpt lat="49.2661" lon="1.08991">
        <ele>100</ele>
        <time>2025-03-26T14:28:01.000Z</time>
      </trkpt>
      <trkpt lat="49.2662" lon="1.08978">
        <ele>99.4</ele>
        <time>2025-03-26T14:28:04.000Z</time>
      </trkpt>
      <trkpt lat="49.2663" lon="1.0897">
        <ele>98.6</ele>
        <time>2025-03-26T14:28:06.000Z</time>
      </trkpt>
      <trkpt lat="49.2664" lon="1.08964">
        <ele>97.8</ele>
        <time>2025-03-26T14:28:08.000Z</time>
      </trkpt>
      <trkpt lat="49.26653" lon="1.08958">
        <ele>96.5</ele>
        <time>2025-03-26T14:28:11.000Z</time>
      </trkpt>
      <trkpt lat="49.26661" lon="1.08955">
        <ele>95.8</ele>
        <time>2025-03-26T14:28:13.000Z</time>
      </trkpt>
      <trkpt lat="49.2667" lon="1.08953">
        <ele>95.2</ele>
        <time>2025-03-26T14:28:15.000Z</time>
      </trkpt>
      <trkpt lat="49.26682" lon="1.0895">
        <ele>94.7</ele>
        <time>2025-03-26T14:28:18.000Z</time>
      </trkpt>
      <trkpt lat="49.26692" lon="1.0895">
        <ele>94.3</ele>
        <time>2025-03-26T14:28:20.000Z</time>
      </trkpt>
      <trkpt lat="49.26701" lon="1.08949">
        <ele>93.7</ele>
        <time>2025-03-26T14:28:23.000Z</time>
      </trkpt>
      <trkpt lat="49.267" lon="1.08933">
        <ele>92.6</ele>
        <time>2025-03-26T14:28:30.000Z</time>
      </trkpt>
      <trkpt lat="49.26693" lon="1.08921">
        <ele>92.3</ele>
        <time>2025-03-26T14:28:34.000Z</time>
      </trkpt>
      <trkpt lat="49.26687" lon="1.08913">
        <ele>91.7</ele>
        <time>2025-03-26T14:28:45.000Z</time>
      </trkpt>
      <trkpt lat="49.26687" lon="1.08913">
        <ele>91.7</ele>
        <time>2025-03-26T14:28:46.000Z</time>
      </trkpt>
      <trkpt lat="49.26686" lon="1.0891">
        <ele>91.6</ele>
        <time>2025-03-26T14:28:50.000Z</time>
      </trkpt>
      <trkpt lat="49.26684" lon="1.08909">
        <ele>91.6</ele>
        <time>2025-03-26T14:28:51.000Z</time>
      </trkpt>
      <trkpt lat="49.26683" lon="1.08908">
        <ele>91.5</ele>
        <time>2025-03-26T14:28:52.000Z</time>
      </trkpt>
      <trkpt lat="49.26675" lon="1.089">
        <ele>91.4</ele>
        <time>2025-03-26T14:28:56.000Z</time>
      </trkpt>
      <trkpt lat="49.26666" lon="1.08892">
        <ele>91.3</ele>
        <time>2025-03-26T14:29:00.000Z</time>
      </trkpt>
      <trkpt lat="49.26659" lon="1.08882">
        <ele>91.5</ele>
        <time>2025-03-26T14:29:05.000Z</time>
      </trkpt>
      <trkpt lat="49.26651" lon="1.08874">
        <ele>91.8</ele>
        <time>2025-03-26T14:29:09.000Z</time>
      </trkpt>
      <trkpt lat="49.26644" lon="1.08862">
        <ele>93.9</ele>
        <time>2025-03-26T14:29:18.000Z</time>
      </trkpt>
      <trkpt lat="49.26636" lon="1.08853">
        <ele>95.7</ele>
        <time>2025-03-26T14:29:22.000Z</time>
      </trkpt>
      <trkpt lat="49.26627" lon="1.08846">
        <ele>97.4</ele>
        <time>2025-03-26T14:29:25.000Z</time>
      </trkpt>
      <trkpt lat="49.26619" lon="1.08835">
        <ele>99.9</ele>
        <time>2025-03-26T14:29:29.000Z</time>
      </trkpt>
      <trkpt lat="49.26613" lon="1.08826">
        <ele>102.6</ele>
        <time>2025-03-26T14:29:33.000Z</time>
      </trkpt>
      <trkpt lat="49.26605" lon="1.08815">
        <ele>105.1</ele>
        <time>2025-03-26T14:29:37.000Z</time>
      </trkpt>
      <trkpt lat="49.26598" lon="1.08804">
        <ele>107.6</ele>
        <time>2025-03-26T14:29:41.000Z</time>
      </trkpt>
      <trkpt lat="49.2659" lon="1.08794">
        <ele>110</ele>
        <time>2025-03-26T14:29:46.000Z</time>
      </trkpt>
      <trkpt lat="49.26582" lon="1.08785">
        <ele>111.6</ele>
        <time>2025-03-26T14:29:50.000Z</time>
      </trkpt>
      <trkpt lat="49.26574" lon="1.08776">
        <ele>112.9</ele>
        <time>2025-03-26T14:29:54.000Z</time>
      </trkpt>
      <trkpt lat="49.26565" lon="1.08765">
        <ele>113.8</ele>
        <time>2025-03-26T14:30:00.000Z</time>
      </trkpt>
      <trkpt lat="49.26558" lon="1.08755">
        <ele>114.1</ele>
        <time>2025-03-26T14:30:04.000Z</time>
      </trkpt>
      <trkpt lat="49.2655" lon="1.08747">
        <ele>114.2</ele>
        <time>2025-03-26T14:30:08.000Z</time>
      </trkpt>
      <trkpt lat="49.26543" lon="1.08736">
        <ele>114.4</ele>
        <time>2025-03-26T14:30:14.000Z</time>
      </trkpt>
      <trkpt lat="49.26534" lon="1.08728">
        <ele>114.9</ele>
        <time>2025-03-26T14:30:19.000Z</time>
      </trkpt>
      <trkpt lat="49.26527" lon="1.08718">
        <ele>115.7</ele>
        <time>2025-03-26T14:30:23.000Z</time>
      </trkpt>
      <trkpt lat="49.26519" lon="1.08706">
        <ele>117.2</ele>
        <time>2025-03-26T14:30:27.000Z</time>
      </trkpt>
      <trkpt lat="49.26512" lon="1.08696">
        <ele>118.3</ele>
        <time>2025-03-26T14:30:30.000Z</time>
      </trkpt>
      <trkpt lat="49.26505" lon="1.08686">
        <ele>119.9</ele>
        <time>2025-03-26T14:30:34.000Z</time>
      </trkpt>
      <trkpt lat="49.26497" lon="1.08675">
        <ele>121.3</ele>
        <time>2025-03-26T14:30:39.000Z</time>
      </trkpt>
      <trkpt lat="49.26488" lon="1.08664">
        <ele>122.3</ele>
        <time>2025-03-26T14:30:43.000Z</time>
      </trkpt>
      <trkpt lat="49.2648" lon="1.08655">
        <ele>122.9</ele>
        <time>2025-03-26T14:30:47.000Z</time>
      </trkpt>
      <trkpt lat="49.26473" lon="1.08646">
        <ele>123.6</ele>
        <time>2025-03-26T14:30:51.000Z</time>
      </trkpt>
      <trkpt lat="49.26465" lon="1.08637">
        <ele>124</ele>
        <time>2025-03-26T14:30:55.000Z</time>
      </trkpt>
      <trkpt lat="49.26457" lon="1.08628">
        <ele>124.7</ele>
        <time>2025-03-26T14:30:59.000Z</time>
      </trkpt>
      <trkpt lat="49.26449" lon="1.08616">
        <ele>125.3</ele>
        <time>2025-03-26T14:31:03.000Z</time>
      </trkpt>
      <trkpt lat="49.26442" lon="1.08607">
        <ele>125.8</ele>
        <time>2025-03-26T14:31:06.000Z</time>
      </trkpt>
      <trkpt lat="49.26434" lon="1.08598">
        <ele>126.2</ele>
        <time>2025-03-26T14:31:09.000Z</time>
      </trkpt>
      <trkpt lat="49.26427" lon="1.08589">
        <ele>126.4</ele>
        <time>2025-03-26T14:31:12.000Z</time>
      </trkpt>
      <trkpt lat="49.26419" lon="1.08579">
        <ele>126.9</ele>
        <time>2025-03-26T14:31:16.000Z</time>
      </trkpt>
      <trkpt lat="49.26411" lon="1.08569">
        <ele>127.2</ele>
        <time>2025-03-26T14:31:19.000Z</time>
      </trkpt>
      <trkpt lat="49.26402" lon="1.08558">
        <ele>127.5</ele>
        <time>2025-03-26T14:31:22.000Z</time>
      </trkpt>
      <trkpt lat="49.26394" lon="1.08548">
        <ele>127.8</ele>
        <time>2025-03-26T14:31:25.000Z</time>
      </trkpt>
      <trkpt lat="49.26386" lon="1.08539">
        <ele>128</ele>
        <time>2025-03-26T14:31:28.000Z</time>
      </trkpt>
      <trkpt lat="49.26378" lon="1.08529">
        <ele>128.2</ele>
        <time>2025-03-26T14:31:31.000Z</time>
      </trkpt>
      <trkpt lat="49.2637" lon="1.08518">
        <ele>128.5</ele>
        <time>2025-03-26T14:31:34.000Z</time>
      </trkpt>
      <trkpt lat="49.26361" lon="1.08506">
        <ele>128.7</ele>
        <time>2025-03-26T14:31:37.000Z</time>
      </trkpt>
      <trkpt lat="49.26351" lon="1.08494">
        <ele>129</ele>
        <time>2025-03-26T14:31:40.000Z</time>
      </trkpt>
      <trkpt lat="49.26342" lon="1.08484">
        <ele>129.3</ele>
        <time>2025-03-26T14:31:43.000Z</time>
      </trkpt>
      <trkpt lat="49.26333" lon="1.08472">
        <ele>129.6</ele>
        <time>2025-03-26T14:31:46.000Z</time>
      </trkpt>
      <trkpt lat="49.26324" lon="1.08461">
        <ele>129.8</ele>
        <time>2025-03-26T14:31:49.000Z</time>
      </trkpt>
      <trkpt lat="49.26317" lon="1.08452">
        <ele>130</ele>
        <time>2025-03-26T14:31:52.000Z</time>
      </trkpt>
      <trkpt lat="49.26312" lon="1.08437">
        <ele>130.5</ele>
        <time>2025-03-26T14:31:57.000Z</time>
      </trkpt>
      <trkpt lat="49.26318" lon="1.08426">
        <ele>130.7</ele>
        <time>2025-03-26T14:32:00.000Z</time>
      </trkpt>
      <trkpt lat="49.26328" lon="1.08417">
        <ele>131</ele>
        <time>2025-03-26T14:32:04.000Z</time>
      </trkpt>
      <trkpt lat="49.26337" lon="1.08411">
        <ele>131.1</ele>
        <time>2025-03-26T14:32:07.000Z</time>
      </trkpt>
      <trkpt lat="49.26348" lon="1.084">
        <ele>131.2</ele>
        <time>2025-03-26T14:32:10.000Z</time>
      </trkpt>
      <trkpt lat="49.26356" lon="1.08391">
        <ele>131.2</ele>
        <time>2025-03-26T14:32:12.000Z</time>
      </trkpt>
      <trkpt lat="49.26365" lon="1.0838">
        <ele>131.2</ele>
        <time>2025-03-26T14:32:14.000Z</time>
      </trkpt>
      <trkpt lat="49.26371" lon="1.08368">
        <ele>131.3</ele>
        <time>2025-03-26T14:32:16.000Z</time>
      </trkpt>
      <trkpt lat="49.26379" lon="1.08354">
        <ele>131.3</ele>
        <time>2025-03-26T14:32:19.000Z</time>
      </trkpt>
      <trkpt lat="49.26383" lon="1.08342">
        <ele>131.3</ele>
        <time>2025-03-26T14:32:22.000Z</time>
      </trkpt>
      <trkpt lat="49.26388" lon="1.08325">
        <ele>131.3</ele>
        <time>2025-03-26T14:32:26.000Z</time>
      </trkpt>
      <trkpt lat="49.26395" lon="1.08312">
        <ele>131.3</ele>
        <time>2025-03-26T14:32:29.000Z</time>
      </trkpt>
      <trkpt lat="49.26407" lon="1.08316">
        <ele>131.2</ele>
        <time>2025-03-26T14:32:34.000Z</time>
      </trkpt>
      <trkpt lat="49.26416" lon="1.0832">
        <ele>131.2</ele>
        <time>2025-03-26T14:32:36.000Z</time>
      </trkpt>
      <trkpt lat="49.26425" lon="1.08325">
        <ele>131.2</ele>
        <time>2025-03-26T14:32:38.000Z</time>
      </trkpt>
      <trkpt lat="49.26435" lon="1.08329">
        <ele>131.2</ele>
        <time>2025-03-26T14:32:40.000Z</time>
      </trkpt>
      <trkpt lat="49.26447" lon="1.08334">
        <ele>131.2</ele>
        <time>2025-03-26T14:32:43.000Z</time>
      </trkpt>
      <trkpt lat="49.26455" lon="1.08339">
        <ele>131.1</ele>
        <time>2025-03-26T14:32:45.000Z</time>
      </trkpt>
      <trkpt lat="49.26464" lon="1.08345">
        <ele>131</ele>
        <time>2025-03-26T14:32:47.000Z</time>
      </trkpt>
      <trkpt lat="49.26473" lon="1.08351">
        <ele>130.9</ele>
        <time>2025-03-26T14:32:49.000Z</time>
      </trkpt>
      <trkpt lat="49.26485" lon="1.08358">
        <ele>130.6</ele>
        <time>2025-03-26T14:32:52.000Z</time>
      </trkpt>
      <trkpt lat="49.26497" lon="1.08366">
        <ele>130.5</ele>
        <time>2025-03-26T14:32:55.000Z</time>
      </trkpt>
      <trkpt lat="49.26508" lon="1.08373">
        <ele>130.3</ele>
        <time>2025-03-26T14:32:58.000Z</time>
      </trkpt>
      <trkpt lat="49.26516" lon="1.08381">
        <ele>130.1</ele>
        <time>2025-03-26T14:33:00.000Z</time>
      </trkpt>
      <trkpt lat="49.26524" lon="1.0839">
        <ele>129.8</ele>
        <time>2025-03-26T14:33:02.000Z</time>
      </trkpt>
      <trkpt lat="49.26531" lon="1.08399">
        <ele>129.6</ele>
        <time>2025-03-26T14:33:04.000Z</time>
      </trkpt>
      <trkpt lat="49.26539" lon="1.08406">
        <ele>129.4</ele>
        <time>2025-03-26T14:33:06.000Z</time>
      </trkpt>
      <trkpt lat="49.2655" lon="1.08415">
        <ele>129.2</ele>
        <time>2025-03-26T14:33:09.000Z</time>
      </trkpt>
      <trkpt lat="49.26563" lon="1.0842">
        <ele>129</ele>
        <time>2025-03-26T14:33:12.000Z</time>
      </trkpt>
      <trkpt lat="49.26572" lon="1.08425">
        <ele>128.9</ele>
        <time>2025-03-26T14:33:15.000Z</time>
      </trkpt>
      <trkpt lat="49.26581" lon="1.08431">
        <ele>128.8</ele>
        <time>2025-03-26T14:33:18.000Z</time>
      </trkpt>
      <trkpt lat="49.2659" lon="1.08441">
        <ele>128.6</ele>
        <time>2025-03-26T14:33:21.000Z</time>
      </trkpt>
      <trkpt lat="49.26602" lon="1.0845">
        <ele>128.4</ele>
        <time>2025-03-26T14:33:24.000Z</time>
      </trkpt>
      <trkpt lat="49.26613" lon="1.08455">
        <ele>128.1</ele>
        <time>2025-03-26T14:33:26.000Z</time>
      </trkpt>
      <trkpt lat="49.26625" lon="1.08459">
        <ele>127.7</ele>
        <time>2025-03-26T14:33:28.000Z</time>
      </trkpt>
      <trkpt lat="49.26636" lon="1.08462">
        <ele>127.6</ele>
        <time>2025-03-26T14:33:30.000Z</time>
      </trkpt>
      <trkpt lat="49.26645" lon="1.08466">
        <ele>127.2</ele>
        <time>2025-03-26T14:33:32.000Z</time>
      </trkpt>
      <trkpt lat="49.26653" lon="1.08479">
        <ele>126.6</ele>
        <time>2025-03-26T14:33:35.000Z</time>
      </trkpt>
      <trkpt lat="49.26654" lon="1.08493">
        <ele>126.2</ele>
        <time>2025-03-26T14:33:38.000Z</time>
      </trkpt>
      <trkpt lat="49.26647" lon="1.08505">
        <ele>125.9</ele>
        <time>2025-03-26T14:33:41.000Z</time>
      </trkpt>
      <trkpt lat="49.26641" lon="1.08518">
        <ele>125.6</ele>
        <time>2025-03-26T14:33:44.000Z</time>
      </trkpt>
      <trkpt lat="49.26632" lon="1.08535">
        <ele>125.6</ele>
        <time>2025-03-26T14:33:47.000Z</time>
      </trkpt>
      <trkpt lat="49.26623" lon="1.0855">
        <ele>125.7</ele>
        <time>2025-03-26T14:33:50.000Z</time>
      </trkpt>
      <trkpt lat="49.26617" lon="1.0856">
        <ele>125.8</ele>
        <time>2025-03-26T14:33:52.000Z</time>
      </trkpt>
      <trkpt lat="49.2661" lon="1.08574">
        <ele>125.8</ele>
        <time>2025-03-26T14:33:55.000Z</time>
      </trkpt>
      <trkpt lat="49.26606" lon="1.08588">
        <ele>125.8</ele>
        <time>2025-03-26T14:34:00.000Z</time>
      </trkpt>
      <trkpt lat="49.2661" lon="1.08604">
        <ele>125.8</ele>
        <time>2025-03-26T14:34:06.000Z</time>
      </trkpt>
      <trkpt lat="49.26616" lon="1.08618">
        <ele>125.8</ele>
        <time>2025-03-26T14:34:09.000Z</time>
      </trkpt>
      <trkpt lat="49.26625" lon="1.08628">
        <ele>125.8</ele>
        <time>2025-03-26T14:34:11.000Z</time>
      </trkpt>
      <trkpt lat="49.26633" lon="1.08637">
        <ele>125.7</ele>
        <time>2025-03-26T14:34:13.000Z</time>
      </trkpt>
      <trkpt lat="49.26641" lon="1.08648">
        <ele>125.7</ele>
        <time>2025-03-26T14:34:15.000Z</time>
      </trkpt>
      <trkpt lat="49.26648" lon="1.0866">
        <ele>125.6</ele>
        <time>2025-03-26T14:34:17.000Z</time>
      </trkpt>
      <trkpt lat="49.26656" lon="1.08672">
        <ele>125.6</ele>
        <time>2025-03-26T14:34:19.000Z</time>
      </trkpt>
      <trkpt lat="49.26663" lon="1.08684">
        <ele>125.4</ele>
        <time>2025-03-26T14:34:21.000Z</time>
      </trkpt>
      <trkpt lat="49.26672" lon="1.08695">
        <ele>125.1</ele>
        <time>2025-03-26T14:34:23.000Z</time>
      </trkpt>
      <trkpt lat="49.26681" lon="1.08708">
        <ele>124.6</ele>
        <time>2025-03-26T14:34:25.000Z</time>
      </trkpt>
      <trkpt lat="49.2669" lon="1.08723">
        <ele>124</ele>
        <time>2025-03-26T14:34:27.000Z</time>
      </trkpt>
      <trkpt lat="49.267" lon="1.08739">
        <ele>123.1</ele>
        <time>2025-03-26T14:34:29.000Z</time>
      </trkpt>
      <trkpt lat="49.26708" lon="1.08754">
        <ele>122.1</ele>
        <time>2025-03-26T14:34:31.000Z</time>
      </trkpt>
      <trkpt lat="49.26717" lon="1.0877">
        <ele>121</ele>
        <time>2025-03-26T14:34:33.000Z</time>
      </trkpt>
      <trkpt lat="49.26727" lon="1.08786">
        <ele>119.7</ele>
        <time>2025-03-26T14:34:35.000Z</time>
      </trkpt>
      <trkpt lat="49.26736" lon="1.088">
        <ele>118.3</ele>
        <time>2025-03-26T14:34:37.000Z</time>
      </trkpt>
      <trkpt lat="49.26743" lon="1.08811">
        <ele>117.2</ele>
        <time>2025-03-26T14:34:39.000Z</time>
      </trkpt>
      <trkpt lat="49.26751" lon="1.08823">
        <ele>116.5</ele>
        <time>2025-03-26T14:34:41.000Z</time>
      </trkpt>
      <trkpt lat="49.26759" lon="1.08834">
        <ele>115.5</ele>
        <time>2025-03-26T14:34:43.000Z</time>
      </trkpt>
      <trkpt lat="49.26768" lon="1.08839">
        <ele>113.3</ele>
        <time>2025-03-26T14:34:47.000Z</time>
      </trkpt>
      <trkpt lat="49.26776" lon="1.08827">
        <ele>112.2</ele>
        <time>2025-03-26T14:34:50.000Z</time>
      </trkpt>
      <trkpt lat="49.26783" lon="1.08811">
        <ele>111.7</ele>
        <time>2025-03-26T14:34:53.000Z</time>
      </trkpt>
      <trkpt lat="49.26789" lon="1.08799">
        <ele>111.5</ele>
        <time>2025-03-26T14:34:55.000Z</time>
      </trkpt>
      <trkpt lat="49.26795" lon="1.08787">
        <ele>111.5</ele>
        <time>2025-03-26T14:34:57.000Z</time>
      </trkpt>
      <trkpt lat="49.26801" lon="1.08775">
        <ele>111.6</ele>
        <time>2025-03-26T14:34:59.000Z</time>
      </trkpt>
      <trkpt lat="49.26808" lon="1.08763">
        <ele>111.8</ele>
        <time>2025-03-26T14:35:01.000Z</time>
      </trkpt>
      <trkpt lat="49.26815" lon="1.08749">
        <ele>111.8</ele>
        <time>2025-03-26T14:35:03.000Z</time>
      </trkpt>
      <trkpt lat="49.26823" lon="1.08736">
        <ele>111.9</ele>
        <time>2025-03-26T14:35:05.000Z</time>
      </trkpt>
      <trkpt lat="49.2683" lon="1.08723">
        <ele>112</ele>
        <time>2025-03-26T14:35:07.000Z</time>
      </trkpt>
      <trkpt lat="49.26836" lon="1.0871">
        <ele>112</ele>
        <time>2025-03-26T14:35:09.000Z</time>
      </trkpt>
      <trkpt lat="49.26843" lon="1.08698">
        <ele>112.1</ele>
        <time>2025-03-26T14:35:11.000Z</time>
      </trkpt>
      <trkpt lat="49.26849" lon="1.08685">
        <ele>112.2</ele>
        <time>2025-03-26T14:35:13.000Z</time>
      </trkpt>
      <trkpt lat="49.26854" lon="1.08674">
        <ele>112.1</ele>
        <time>2025-03-26T14:35:15.000Z</time>
      </trkpt>
      <trkpt lat="49.2686" lon="1.08662">
        <ele>112</ele>
        <time>2025-03-26T14:35:17.000Z</time>
      </trkpt>
      <trkpt lat="49.26869" lon="1.08645">
        <ele>111.9</ele>
        <time>2025-03-26T14:35:20.000Z</time>
      </trkpt>
      <trkpt lat="49.26874" lon="1.08633">
        <ele>111.9</ele>
        <time>2025-03-26T14:35:22.000Z</time>
      </trkpt>
      <trkpt lat="49.26879" lon="1.08621">
        <ele>111.8</ele>
        <time>2025-03-26T14:35:24.000Z</time>
      </trkpt>
      <trkpt lat="49.26885" lon="1.08608">
        <ele>111.6</ele>
        <time>2025-03-26T14:35:26.000Z</time>
      </trkpt>
      <trkpt lat="49.26893" lon="1.08593">
        <ele>111.3</ele>
        <time>2025-03-26T14:35:28.000Z</time>
      </trkpt>
      <trkpt lat="49.269" lon="1.0858">
        <ele>110.7</ele>
        <time>2025-03-26T14:35:30.000Z</time>
      </trkpt>
      <trkpt lat="49.26905" lon="1.08568">
        <ele>109.3</ele>
        <time>2025-03-26T14:35:33.000Z</time>
      </trkpt>
      <trkpt lat="49.26901" lon="1.08552">
        <ele>107.1</ele>
        <time>2025-03-26T14:35:38.000Z</time>
      </trkpt>
      <trkpt lat="49.26892" lon="1.08543">
        <ele>106.4</ele>
        <time>2025-03-26T14:35:41.000Z</time>
      </trkpt>
      <trkpt lat="49.26883" lon="1.0853">
        <ele>106.1</ele>
        <time>2025-03-26T14:35:44.000Z</time>
      </trkpt>
      <trkpt lat="49.26875" lon="1.08521">
        <ele>106.2</ele>
        <time>2025-03-26T14:35:46.000Z</time>
      </trkpt>
      <trkpt lat="49.26867" lon="1.08512">
        <ele>106.2</ele>
        <time>2025-03-26T14:35:48.000Z</time>
      </trkpt>
      <trkpt lat="49.2686" lon="1.08503">
        <ele>106.3</ele>
        <time>2025-03-26T14:35:50.000Z</time>
      </trkpt>
      <trkpt lat="49.26852" lon="1.08493">
        <ele>106.5</ele>
        <time>2025-03-26T14:35:52.000Z</time>
      </trkpt>
      <trkpt lat="49.26844" lon="1.08483">
        <ele>106.7</ele>
        <time>2025-03-26T14:35:54.000Z</time>
      </trkpt>
      <trkpt lat="49.26836" lon="1.08473">
        <ele>107</ele>
        <time>2025-03-26T14:35:56.000Z</time>
      </trkpt>
      <trkpt lat="49.26828" lon="1.08463">
        <ele>107.3</ele>
        <time>2025-03-26T14:35:58.000Z</time>
      </trkpt>
      <trkpt lat="49.2682" lon="1.08454">
        <ele>107.7</ele>
        <time>2025-03-26T14:36:00.000Z</time>
      </trkpt>
      <trkpt lat="49.26812" lon="1.08444">
        <ele>108.2</ele>
        <time>2025-03-26T14:36:02.000Z</time>
      </trkpt>
      <trkpt lat="49.26804" lon="1.08434">
        <ele>108.8</ele>
        <time>2025-03-26T14:36:04.000Z</time>
      </trkpt>
      <trkpt lat="49.26796" lon="1.08425">
        <ele>109.3</ele>
        <time>2025-03-26T14:36:06.000Z</time>
      </trkpt>
      <trkpt lat="49.26788" lon="1.08414">
        <ele>109.6</ele>
        <time>2025-03-26T14:36:08.000Z</time>
      </trkpt>
      <trkpt lat="49.2678" lon="1.08403">
        <ele>109.9</ele>
        <time>2025-03-26T14:36:10.000Z</time>
      </trkpt>
      <trkpt lat="49.26772" lon="1.08392">
        <ele>110.5</ele>
        <time>2025-03-26T14:36:12.000Z</time>
      </trkpt>
      <trkpt lat="49.26763" lon="1.08382">
        <ele>111</ele>
        <time>2025-03-26T14:36:14.000Z</time>
      </trkpt>
      <trkpt lat="49.26754" lon="1.08372">
        <ele>111.5</ele>
        <time>2025-03-26T14:36:16.000Z</time>
      </trkpt>
      <trkpt lat="49.26746" lon="1.08361">
        <ele>112</ele>
        <time>2025-03-26T14:36:18.000Z</time>
      </trkpt>
      <trkpt lat="49.26737" lon="1.0835">
        <ele>112.4</ele>
        <time>2025-03-26T14:36:20.000Z</time>
      </trkpt>
      <trkpt lat="49.26729" lon="1.08339">
        <ele>112.7</ele>
        <time>2025-03-26T14:36:22.000Z</time>
      </trkpt>
      <trkpt lat="49.2672" lon="1.08327">
        <ele>113.1</ele>
        <time>2025-03-26T14:36:24.000Z</time>
      </trkpt>
      <trkpt lat="49.2671" lon="1.08315">
        <ele>113.4</ele>
        <time>2025-03-26T14:36:26.000Z</time>
      </trkpt>
      <trkpt lat="49.26701" lon="1.08305">
        <ele>113.6</ele>
        <time>2025-03-26T14:36:28.000Z</time>
      </trkpt>
      <trkpt lat="49.26692" lon="1.08292">
        <ele>113.9</ele>
        <time>2025-03-26T14:36:30.000Z</time>
      </trkpt>
      <trkpt lat="49.26683" lon="1.0828">
        <ele>114</ele>
        <time>2025-03-26T14:36:32.000Z</time>
      </trkpt>
      <trkpt lat="49.26674" lon="1.08268">
        <ele>114.1</ele>
        <time>2025-03-26T14:36:34.000Z</time>
      </trkpt>
      <trkpt lat="49.26664" lon="1.08256">
        <ele>114.4</ele>
        <time>2025-03-26T14:36:36.000Z</time>
      </trkpt>
      <trkpt lat="49.26655" lon="1.08244">
        <ele>114.6</ele>
        <time>2025-03-26T14:36:38.000Z</time>
      </trkpt>
      <trkpt lat="49.26646" lon="1.08232">
        <ele>114.8</ele>
        <time>2025-03-26T14:36:40.000Z</time>
      </trkpt>
      <trkpt lat="49.26636" lon="1.0822">
        <ele>115</ele>
        <time>2025-03-26T14:36:42.000Z</time>
      </trkpt>
      <trkpt lat="49.26627" lon="1.08209">
        <ele>115.2</ele>
        <time>2025-03-26T14:36:44.000Z</time>
      </trkpt>
      <trkpt lat="49.26618" lon="1.08197">
        <ele>115.5</ele>
        <time>2025-03-26T14:36:46.000Z</time>
      </trkpt>
      <trkpt lat="49.26609" lon="1.08185">
        <ele>115.9</ele>
        <time>2025-03-26T14:36:48.000Z</time>
      </trkpt>
      <trkpt lat="49.266" lon="1.08173">
        <ele>116.2</ele>
        <time>2025-03-26T14:36:50.000Z</time>
      </trkpt>
      <trkpt lat="49.26591" lon="1.08161">
        <ele>116.4</ele>
        <time>2025-03-26T14:36:52.000Z</time>
      </trkpt>
      <trkpt lat="49.26581" lon="1.08149">
        <ele>116.5</ele>
        <time>2025-03-26T14:36:54.000Z</time>
      </trkpt>
      <trkpt lat="49.26571" lon="1.08137">
        <ele>116.8</ele>
        <time>2025-03-26T14:36:56.000Z</time>
      </trkpt>
      <trkpt lat="49.26562" lon="1.08126">
        <ele>116.8</ele>
        <time>2025-03-26T14:36:58.000Z</time>
      </trkpt>
      <trkpt lat="49.26554" lon="1.08117">
        <ele>116.8</ele>
        <time>2025-03-26T14:37:00.000Z</time>
      </trkpt>
      <trkpt lat="49.26545" lon="1.08105">
        <ele>117</ele>
        <time>2025-03-26T14:37:03.000Z</time>
      </trkpt>
      <trkpt lat="49.26539" lon="1.08095">
        <ele>117.3</ele>
        <time>2025-03-26T14:37:06.000Z</time>
      </trkpt>
      <trkpt lat="49.26531" lon="1.08086">
        <ele>117.6</ele>
        <time>2025-03-26T14:37:09.000Z</time>
      </trkpt>
      <trkpt lat="49.26522" lon="1.08075">
        <ele>118.1</ele>
        <time>2025-03-26T14:37:12.000Z</time>
      </trkpt>
      <trkpt lat="49.26513" lon="1.08062">
        <ele>118.3</ele>
        <time>2025-03-26T14:37:15.000Z</time>
      </trkpt>
      <trkpt lat="49.26502" lon="1.0805">
        <ele>118.7</ele>
        <time>2025-03-26T14:37:18.000Z</time>
      </trkpt>
      <trkpt lat="49.26492" lon="1.08037">
        <ele>119</ele>
        <time>2025-03-26T14:37:21.000Z</time>
      </trkpt>
      <trkpt lat="49.26482" lon="1.08025">
        <ele>119.2</ele>
        <time>2025-03-26T14:37:24.000Z</time>
      </trkpt>
      <trkpt lat="49.26475" lon="1.08016">
        <ele>119.3</ele>
        <time>2025-03-26T14:37:26.000Z</time>
      </trkpt>
      <trkpt lat="49.26468" lon="1.08007">
        <ele>119.4</ele>
        <time>2025-03-26T14:37:28.000Z</time>
      </trkpt>
      <trkpt lat="49.2646" lon="1.07998">
        <ele>119.6</ele>
        <time>2025-03-26T14:37:30.000Z</time>
      </trkpt>
      <trkpt lat="49.26453" lon="1.07989">
        <ele>119.7</ele>
        <time>2025-03-26T14:37:32.000Z</time>
      </trkpt>
      <trkpt lat="49.26446" lon="1.07979">
        <ele>119.8</ele>
        <time>2025-03-26T14:37:34.000Z</time>
      </trkpt>
      <trkpt lat="49.26439" lon="1.0797">
        <ele>119.9</ele>
        <time>2025-03-26T14:37:36.000Z</time>
      </trkpt>
      <trkpt lat="49.26431" lon="1.07961">
        <ele>119.9</ele>
        <time>2025-03-26T14:37:38.000Z</time>
      </trkpt>
      <trkpt lat="49.26424" lon="1.07951">
        <ele>120</ele>
        <time>2025-03-26T14:37:40.000Z</time>
      </trkpt>
      <trkpt lat="49.26416" lon="1.07941">
        <ele>120</ele>
        <time>2025-03-26T14:37:42.000Z</time>
      </trkpt>
      <trkpt lat="49.26408" lon="1.07931">
        <ele>120</ele>
        <time>2025-03-26T14:37:44.000Z</time>
      </trkpt>
      <trkpt lat="49.264" lon="1.0792">
        <ele>120.1</ele>
        <time>2025-03-26T14:37:46.000Z</time>
      </trkpt>
      <trkpt lat="49.26392" lon="1.07909">
        <ele>120.2</ele>
        <time>2025-03-26T14:37:48.000Z</time>
      </trkpt>
      <trkpt lat="49.26383" lon="1.07898">
        <ele>120.3</ele>
        <time>2025-03-26T14:37:50.000Z</time>
      </trkpt>
      <trkpt lat="49.26374" lon="1.07887">
        <ele>120.3</ele>
        <time>2025-03-26T14:37:52.000Z</time>
      </trkpt>
      <trkpt lat="49.26365" lon="1.07876">
        <ele>120.3</ele>
        <time>2025-03-26T14:37:54.000Z</time>
      </trkpt>
      <trkpt lat="49.26356" lon="1.07864">
        <ele>120.3</ele>
        <time>2025-03-26T14:37:56.000Z</time>
      </trkpt>
      <trkpt lat="49.26347" lon="1.07852">
        <ele>120.4</ele>
        <time>2025-03-26T14:37:58.000Z</time>
      </trkpt>
      <trkpt lat="49.26338" lon="1.07841">
        <ele>120.5</ele>
        <time>2025-03-26T14:38:00.000Z</time>
      </trkpt>
      <trkpt lat="49.26329" lon="1.07829">
        <ele>120.5</ele>
        <time>2025-03-26T14:38:02.000Z</time>
      </trkpt>
      <trkpt lat="49.26319" lon="1.07818">
        <ele>120.5</ele>
        <time>2025-03-26T14:38:04.000Z</time>
      </trkpt>
      <trkpt lat="49.2631" lon="1.07807">
        <ele>120.6</ele>
        <time>2025-03-26T14:38:06.000Z</time>
      </trkpt>
      <trkpt lat="49.26302" lon="1.07796">
        <ele>120.7</ele>
        <time>2025-03-26T14:38:08.000Z</time>
      </trkpt>
      <trkpt lat="49.26293" lon="1.07784">
        <ele>120.8</ele>
        <time>2025-03-26T14:38:10.000Z</time>
      </trkpt>
      <trkpt lat="49.26284" lon="1.07774">
        <ele>120.9</ele>
        <time>2025-03-26T14:38:12.000Z</time>
      </trkpt>
      <trkpt lat="49.26276" lon="1.07764">
        <ele>121</ele>
        <time>2025-03-26T14:38:14.000Z</time>
      </trkpt>
      <trkpt lat="49.26267" lon="1.07753">
        <ele>121.2</ele>
        <time>2025-03-26T14:38:16.000Z</time>
      </trkpt>
      <trkpt lat="49.26259" lon="1.07743">
        <ele>121.4</ele>
        <time>2025-03-26T14:38:18.000Z</time>
      </trkpt>
      <trkpt lat="49.26251" lon="1.07733">
        <ele>121.8</ele>
        <time>2025-03-26T14:38:20.000Z</time>
      </trkpt>
      <trkpt lat="49.26243" lon="1.07724">
        <ele>122.1</ele>
        <time>2025-03-26T14:38:22.000Z</time>
      </trkpt>
      <trkpt lat="49.26235" lon="1.07713">
        <ele>122.5</ele>
        <time>2025-03-26T14:38:24.000Z</time>
      </trkpt>
      <trkpt lat="49.26226" lon="1.07701">
        <ele>123</ele>
        <time>2025-03-26T14:38:26.000Z</time>
      </trkpt>
      <trkpt lat="49.26217" lon="1.0769">
        <ele>123.5</ele>
        <time>2025-03-26T14:38:28.000Z</time>
      </trkpt>
      <trkpt lat="49.26208" lon="1.07678">
        <ele>123.9</ele>
        <time>2025-03-26T14:38:30.000Z</time>
      </trkpt>
      <trkpt lat="49.262" lon="1.07667">
        <ele>124.3</ele>
        <time>2025-03-26T14:38:32.000Z</time>
      </trkpt>
      <trkpt lat="49.26191" lon="1.07655">
        <ele>124.6</ele>
        <time>2025-03-26T14:38:34.000Z</time>
      </trkpt>
      <trkpt lat="49.26183" lon="1.07644">
        <ele>125</ele>
        <time>2025-03-26T14:38:36.000Z</time>
      </trkpt>
      <trkpt lat="49.26174" lon="1.07634">
        <ele>125.5</ele>
        <time>2025-03-26T14:38:38.000Z</time>
      </trkpt>
      <trkpt lat="49.26166" lon="1.07623">
        <ele>125.8</ele>
        <time>2025-03-26T14:38:40.000Z</time>
      </trkpt>
      <trkpt lat="49.26159" lon="1.07613">
        <ele>126.2</ele>
        <time>2025-03-26T14:38:42.000Z</time>
      </trkpt>
      <trkpt lat="49.26151" lon="1.07601">
        <ele>126.8</ele>
        <time>2025-03-26T14:38:45.000Z</time>
      </trkpt>
      <trkpt lat="49.26144" lon="1.07591">
        <ele>127.3</ele>
        <time>2025-03-26T14:38:49.000Z</time>
      </trkpt>
      <trkpt lat="49.26134" lon="1.07582">
        <ele>127.7</ele>
        <time>2025-03-26T14:38:53.000Z</time>
      </trkpt>
      <trkpt lat="49.26127" lon="1.07571">
        <ele>127.9</ele>
        <time>2025-03-26T14:38:56.000Z</time>
      </trkpt>
      <trkpt lat="49.26118" lon="1.0756">
        <ele>128.3</ele>
        <time>2025-03-26T14:38:59.000Z</time>
      </trkpt>
      <trkpt lat="49.2611" lon="1.07549">
        <ele>128.7</ele>
        <time>2025-03-26T14:39:02.000Z</time>
      </trkpt>
      <trkpt lat="49.26103" lon="1.07538">
        <ele>129</ele>
        <time>2025-03-26T14:39:05.000Z</time>
      </trkpt>
      <trkpt lat="49.26094" lon="1.07527">
        <ele>129.1</ele>
        <time>2025-03-26T14:39:08.000Z</time>
      </trkpt>
      <trkpt lat="49.26087" lon="1.07516">
        <ele>129.1</ele>
        <time>2025-03-26T14:39:11.000Z</time>
      </trkpt>
      <trkpt lat="49.26078" lon="1.07507">
        <ele>129.3</ele>
        <time>2025-03-26T14:39:16.000Z</time>
      </trkpt>
      <trkpt lat="49.26069" lon="1.075">
        <ele>129.5</ele>
        <time>2025-03-26T14:39:19.000Z</time>
      </trkpt>
      <trkpt lat="49.26059" lon="1.07488">
        <ele>129.6</ele>
        <time>2025-03-26T14:39:22.000Z</time>
      </trkpt>
      <trkpt lat="49.26052" lon="1.07479">
        <ele>129.7</ele>
        <time>2025-03-26T14:39:24.000Z</time>
      </trkpt>
      <trkpt lat="49.26044" lon="1.07469">
        <ele>129.8</ele>
        <time>2025-03-26T14:39:26.000Z</time>
      </trkpt>
      <trkpt lat="49.26036" lon="1.07459">
        <ele>129.9</ele>
        <time>2025-03-26T14:39:28.000Z</time>
      </trkpt>
      <trkpt lat="49.26028" lon="1.07449">
        <ele>130.1</ele>
        <time>2025-03-26T14:39:30.000Z</time>
      </trkpt>
      <trkpt lat="49.2602" lon="1.07438">
        <ele>130.2</ele>
        <time>2025-03-26T14:39:32.000Z</time>
      </trkpt>
      <trkpt lat="49.26011" lon="1.07427">
        <ele>130.3</ele>
        <time>2025-03-26T14:39:34.000Z</time>
      </trkpt>
      <trkpt lat="49.26003" lon="1.07416">
        <ele>130.4</ele>
        <time>2025-03-26T14:39:36.000Z</time>
      </trkpt>
      <trkpt lat="49.25993" lon="1.07405">
        <ele>130.6</ele>
        <time>2025-03-26T14:39:38.000Z</time>
      </trkpt>
      <trkpt lat="49.25984" lon="1.07393">
        <ele>130.8</ele>
        <time>2025-03-26T14:39:40.000Z</time>
      </trkpt>
      <trkpt lat="49.25975" lon="1.0738">
        <ele>131</ele>
        <time>2025-03-26T14:39:42.000Z</time>
      </trkpt>
      <trkpt lat="49.25965" lon="1.07368">
        <ele>131.1</ele>
        <time>2025-03-26T14:39:44.000Z</time>
      </trkpt>
      <trkpt lat="49.25957" lon="1.07358">
        <ele>131.1</ele>
        <time>2025-03-26T14:39:46.000Z</time>
      </trkpt>
      <trkpt lat="49.25949" lon="1.07348">
        <ele>131.2</ele>
        <time>2025-03-26T14:39:48.000Z</time>
      </trkpt>
      <trkpt lat="49.25941" lon="1.07339">
        <ele>131.3</ele>
        <time>2025-03-26T14:39:50.000Z</time>
      </trkpt>
      <trkpt lat="49.25934" lon="1.0733">
        <ele>131.3</ele>
        <time>2025-03-26T14:39:52.000Z</time>
      </trkpt>
      <trkpt lat="49.25925" lon="1.07317">
        <ele>131.4</ele>
        <time>2025-03-26T14:39:55.000Z</time>
      </trkpt>
      <trkpt lat="49.25916" lon="1.07306">
        <ele>131.4</ele>
        <time>2025-03-26T14:39:58.000Z</time>
      </trkpt>
      <trkpt lat="49.25908" lon="1.07297">
        <ele>131.4</ele>
        <time>2025-03-26T14:40:00.000Z</time>
      </trkpt>
      <trkpt lat="49.25901" lon="1.07288">
        <ele>131.5</ele>
        <time>2025-03-26T14:40:02.000Z</time>
      </trkpt>
      <trkpt lat="49.25893" lon="1.07278">
        <ele>131.4</ele>
        <time>2025-03-26T14:40:04.000Z</time>
      </trkpt>
      <trkpt lat="49.25885" lon="1.07268">
        <ele>131.5</ele>
        <time>2025-03-26T14:40:06.000Z</time>
      </trkpt>
      <trkpt lat="49.25877" lon="1.07258">
        <ele>131.5</ele>
        <time>2025-03-26T14:40:08.000Z</time>
      </trkpt>
      <trkpt lat="49.25869" lon="1.07248">
        <ele>131.5</ele>
        <time>2025-03-26T14:40:10.000Z</time>
      </trkpt>
      <trkpt lat="49.25861" lon="1.07237">
        <ele>131.6</ele>
        <time>2025-03-26T14:40:12.000Z</time>
      </trkpt>
      <trkpt lat="49.25853" lon="1.07228">
        <ele>131.6</ele>
        <time>2025-03-26T14:40:14.000Z</time>
      </trkpt>
      <trkpt lat="49.25846" lon="1.07219">
        <ele>131.6</ele>
        <time>2025-03-26T14:40:16.000Z</time>
      </trkpt>
      <trkpt lat="49.25837" lon="1.07207">
        <ele>131.7</ele>
        <time>2025-03-26T14:40:19.000Z</time>
      </trkpt>
      <trkpt lat="49.25829" lon="1.07197">
        <ele>131.7</ele>
        <time>2025-03-26T14:40:22.000Z</time>
      </trkpt>
      <trkpt lat="49.25821" lon="1.07184">
        <ele>131.8</ele>
        <time>2025-03-26T14:40:26.000Z</time>
      </trkpt>
      <trkpt lat="49.25819" lon="1.0717">
        <ele>131.8</ele>
        <time>2025-03-26T14:40:30.000Z</time>
      </trkpt>
      <trkpt lat="49.25824" lon="1.07158">
        <ele>131.7</ele>
        <time>2025-03-26T14:40:34.000Z</time>
      </trkpt>
      <trkpt lat="49.25831" lon="1.07142">
        <ele>131.7</ele>
        <time>2025-03-26T14:40:38.000Z</time>
      </trkpt>
      <trkpt lat="49.25837" lon="1.07131">
        <ele>131.7</ele>
        <time>2025-03-26T14:40:40.000Z</time>
      </trkpt>
      <trkpt lat="49.25844" lon="1.07117">
        <ele>131.7</ele>
        <time>2025-03-26T14:40:42.000Z</time>
      </trkpt>
      <trkpt lat="49.25851" lon="1.07102">
        <ele>131.7</ele>
        <time>2025-03-26T14:40:44.000Z</time>
      </trkpt>
      <trkpt lat="49.25858" lon="1.07086">
        <ele>131.7</ele>
        <time>2025-03-26T14:40:46.000Z</time>
      </trkpt>
      <trkpt lat="49.25865" lon="1.0707">
        <ele>131.6</ele>
        <time>2025-03-26T14:40:48.000Z</time>
      </trkpt>
      <trkpt lat="49.25872" lon="1.07055">
        <ele>131.6</ele>
        <time>2025-03-26T14:40:50.000Z</time>
      </trkpt>
      <trkpt lat="49.25879" lon="1.0704">
        <ele>131.5</ele>
        <time>2025-03-26T14:40:52.000Z</time>
      </trkpt>
      <trkpt lat="49.25885" lon="1.07025">
        <ele>131.5</ele>
        <time>2025-03-26T14:40:54.000Z</time>
      </trkpt>
      <trkpt lat="49.25891" lon="1.0701">
        <ele>131.3</ele>
        <time>2025-03-26T14:40:56.000Z</time>
      </trkpt>
      <trkpt lat="49.25897" lon="1.06996">
        <ele>131.2</ele>
        <time>2025-03-26T14:40:58.000Z</time>
      </trkpt>
      <trkpt lat="49.25902" lon="1.06982">
        <ele>131.1</ele>
        <time>2025-03-26T14:41:00.000Z</time>
      </trkpt>
      <trkpt lat="49.25908" lon="1.06968">
        <ele>130.9</ele>
        <time>2025-03-26T14:41:02.000Z</time>
      </trkpt>
      <trkpt lat="49.25915" lon="1.06953">
        <ele>130.6</ele>
        <time>2025-03-26T14:41:04.000Z</time>
      </trkpt>
      <trkpt lat="49.25922" lon="1.06938">
        <ele>130.3</ele>
        <time>2025-03-26T14:41:06.000Z</time>
      </trkpt>
      <trkpt lat="49.25928" lon="1.06921">
        <ele>129.9</ele>
        <time>2025-03-26T14:41:08.000Z</time>
      </trkpt>
      <trkpt lat="49.25935" lon="1.06904">
        <ele>129.3</ele>
        <time>2025-03-26T14:41:10.000Z</time>
      </trkpt>
      <trkpt lat="49.25943" lon="1.06886">
        <ele>128.6</ele>
        <time>2025-03-26T14:41:12.000Z</time>
      </trkpt>
      <trkpt lat="49.25952" lon="1.06866">
        <ele>127.7</ele>
        <time>2025-03-26T14:41:14.000Z</time>
      </trkpt>
      <trkpt lat="49.25961" lon="1.06844">
        <ele>126.7</ele>
        <time>2025-03-26T14:41:16.000Z</time>
      </trkpt>
      <trkpt lat="49.25969" lon="1.06821">
        <ele>126</ele>
        <time>2025-03-26T14:41:18.000Z</time>
      </trkpt>
      <trkpt lat="49.25974" lon="1.06809">
        <ele>125.5</ele>
        <time>2025-03-26T14:41:19.000Z</time>
      </trkpt>
      <trkpt lat="49.25983" lon="1.06785">
        <ele>124.4</ele>
        <time>2025-03-26T14:41:21.000Z</time>
      </trkpt>
      <trkpt lat="49.25988" lon="1.06773">
        <ele>123.8</ele>
        <time>2025-03-26T14:41:22.000Z</time>
      </trkpt>
      <trkpt lat="49.25992" lon="1.06761">
        <ele>123.3</ele>
        <time>2025-03-26T14:41:23.000Z</time>
      </trkpt>
      <trkpt lat="49.26001" lon="1.06742">
        <ele>122.2</ele>
        <time>2025-03-26T14:41:25.000Z</time>
      </trkpt>
      <trkpt lat="49.2601" lon="1.06735">
        <ele>120.1</ele>
        <time>2025-03-26T14:41:28.000Z</time>
      </trkpt>
      <trkpt lat="49.26018" lon="1.06743">
        <ele>118.7</ele>
        <time>2025-03-26T14:41:31.000Z</time>
      </trkpt>
      <trkpt lat="49.26026" lon="1.06753">
        <ele>117.8</ele>
        <time>2025-03-26T14:41:33.000Z</time>
      </trkpt>
      <trkpt lat="49.26035" lon="1.06766">
        <ele>117</ele>
        <time>2025-03-26T14:41:35.000Z</time>
      </trkpt>
      <trkpt lat="49.26044" lon="1.0678">
        <ele>116.4</ele>
        <time>2025-03-26T14:41:37.000Z</time>
      </trkpt>
      <trkpt lat="49.26054" lon="1.06793">
        <ele>115.9</ele>
        <time>2025-03-26T14:41:39.000Z</time>
      </trkpt>
      <trkpt lat="49.26064" lon="1.06806">
        <ele>115.5</ele>
        <time>2025-03-26T14:41:41.000Z</time>
      </trkpt>
      <trkpt lat="49.26074" lon="1.06819">
        <ele>115.3</ele>
        <time>2025-03-26T14:41:43.000Z</time>
      </trkpt>
      <trkpt lat="49.26084" lon="1.06832">
        <ele>115</ele>
        <time>2025-03-26T14:41:45.000Z</time>
      </trkpt>
      <trkpt lat="49.26094" lon="1.06845">
        <ele>114.6</ele>
        <time>2025-03-26T14:41:47.000Z</time>
      </trkpt>
      <trkpt lat="49.26104" lon="1.06858">
        <ele>114.2</ele>
        <time>2025-03-26T14:41:49.000Z</time>
      </trkpt>
      <trkpt lat="49.26114" lon="1.06872">
        <ele>113.8</ele>
        <time>2025-03-26T14:41:51.000Z</time>
      </trkpt>
      <trkpt lat="49.26125" lon="1.06887">
        <ele>113</ele>
        <time>2025-03-26T14:41:53.000Z</time>
      </trkpt>
      <trkpt lat="49.26137" lon="1.06903">
        <ele>111.8</ele>
        <time>2025-03-26T14:41:55.000Z</time>
      </trkpt>
      <trkpt lat="49.2615" lon="1.06921">
        <ele>110.3</ele>
        <time>2025-03-26T14:41:57.000Z</time>
      </trkpt>
      <trkpt lat="49.26162" lon="1.06938">
        <ele>108.7</ele>
        <time>2025-03-26T14:41:59.000Z</time>
      </trkpt>
      <trkpt lat="49.26175" lon="1.06953">
        <ele>106.7</ele>
        <time>2025-03-26T14:42:01.000Z</time>
      </trkpt>
      <trkpt lat="49.26185" lon="1.06968">
        <ele>105.6</ele>
        <time>2025-03-26T14:42:03.000Z</time>
      </trkpt>
      <trkpt lat="49.26195" lon="1.06981">
        <ele>105.2</ele>
        <time>2025-03-26T14:42:05.000Z</time>
      </trkpt>
      <trkpt lat="49.26204" lon="1.06993">
        <ele>104.3</ele>
        <time>2025-03-26T14:42:07.000Z</time>
      </trkpt>
      <trkpt lat="49.26213" lon="1.07004">
        <ele>103.5</ele>
        <time>2025-03-26T14:42:09.000Z</time>
      </trkpt>
      <trkpt lat="49.2622" lon="1.07014">
        <ele>102.7</ele>
        <time>2025-03-26T14:42:11.000Z</time>
      </trkpt>
      <trkpt lat="49.26227" lon="1.07023">
        <ele>101.8</ele>
        <time>2025-03-26T14:42:13.000Z</time>
      </trkpt>
      <trkpt lat="49.26238" lon="1.07036">
        <ele>100.7</ele>
        <time>2025-03-26T14:42:15.000Z</time>
      </trkpt>
      <trkpt lat="49.2625" lon="1.07052">
        <ele>99.2</ele>
        <time>2025-03-26T14:42:17.000Z</time>
      </trkpt>
      <trkpt lat="49.26261" lon="1.07068">
        <ele>97.4</ele>
        <time>2025-03-26T14:42:19.000Z</time>
      </trkpt>
      <trkpt lat="49.26269" lon="1.0708">
        <ele>95.9</ele>
        <time>2025-03-26T14:42:21.000Z</time>
      </trkpt>
      <trkpt lat="49.26279" lon="1.07087">
        <ele>94.8</ele>
        <time>2025-03-26T14:42:24.000Z</time>
      </trkpt>
      <trkpt lat="49.26288" lon="1.07094">
        <ele>93.5</ele>
        <time>2025-03-26T14:42:27.000Z</time>
      </trkpt>
      <trkpt lat="49.26294" lon="1.07106">
        <ele>92.7</ele>
        <time>2025-03-26T14:42:30.000Z</time>
      </trkpt>
      <trkpt lat="49.26299" lon="1.07118">
        <ele>92</ele>
        <time>2025-03-26T14:42:33.000Z</time>
      </trkpt>
      <trkpt lat="49.26307" lon="1.07129">
        <ele>91.2</ele>
        <time>2025-03-26T14:42:37.000Z</time>
      </trkpt>
      <trkpt lat="49.26315" lon="1.07139">
        <ele>90.5</ele>
        <time>2025-03-26T14:42:40.000Z</time>
      </trkpt>
      <trkpt lat="49.26323" lon="1.07148">
        <ele>89.4</ele>
        <time>2025-03-26T14:42:43.000Z</time>
      </trkpt>
      <trkpt lat="49.26333" lon="1.07161">
        <ele>88.1</ele>
        <time>2025-03-26T14:42:46.000Z</time>
      </trkpt>
      <trkpt lat="49.26342" lon="1.07173">
        <ele>87.1</ele>
        <time>2025-03-26T14:42:48.000Z</time>
      </trkpt>
      <trkpt lat="49.26349" lon="1.07186">
        <ele>85.1</ele>
        <time>2025-03-26T14:42:51.000Z</time>
      </trkpt>
      <trkpt lat="49.26353" lon="1.07199">
        <ele>83</ele>
        <time>2025-03-26T14:42:55.000Z</time>
      </trkpt>
      <trkpt lat="49.26348" lon="1.07212">
        <ele>82.2</ele>
        <time>2025-03-26T14:42:58.000Z</time>
      </trkpt>
      <trkpt lat="49.26339" lon="1.07222">
        <ele>81.8</ele>
        <time>2025-03-26T14:43:01.000Z</time>
      </trkpt>
      <trkpt lat="49.26333" lon="1.07234">
        <ele>82.1</ele>
        <time>2025-03-26T14:43:06.000Z</time>
      </trkpt>
      <trkpt lat="49.26326" lon="1.07247">
        <ele>82.8</ele>
        <time>2025-03-26T14:43:11.000Z</time>
      </trkpt>
      <trkpt lat="49.26319" lon="1.07257">
        <ele>83.5</ele>
        <time>2025-03-26T14:43:14.000Z</time>
      </trkpt>
      <trkpt lat="49.26313" lon="1.07268">
        <ele>84.5</ele>
        <time>2025-03-26T14:43:17.000Z</time>
      </trkpt>
      <trkpt lat="49.26307" lon="1.0728">
        <ele>86.3</ele>
        <time>2025-03-26T14:43:21.000Z</time>
      </trkpt>
      <trkpt lat="49.26309" lon="1.07294">
        <ele>88.9</ele>
        <time>2025-03-26T14:43:26.000Z</time>
      </trkpt>
      <trkpt lat="49.26316" lon="1.07303">
        <ele>90.1</ele>
        <time>2025-03-26T14:43:29.000Z</time>
      </trkpt>
      <trkpt lat="49.26325" lon="1.07316">
        <ele>91</ele>
        <time>2025-03-26T14:43:33.000Z</time>
      </trkpt>
      <trkpt lat="49.26332" lon="1.07327">
        <ele>91.4</ele>
        <time>2025-03-26T14:43:36.000Z</time>
      </trkpt>
      <trkpt lat="49.2634" lon="1.07337">
        <ele>91.5</ele>
        <time>2025-03-26T14:43:39.000Z</time>
      </trkpt>
      <trkpt lat="49.26349" lon="1.07346">
        <ele>91.5</ele>
        <time>2025-03-26T14:43:42.000Z</time>
      </trkpt>
      <trkpt lat="49.26357" lon="1.07354">
        <ele>91.5</ele>
        <time>2025-03-26T14:43:45.000Z</time>
      </trkpt>
      <trkpt lat="49.26365" lon="1.07364">
        <ele>91.6</ele>
        <time>2025-03-26T14:43:48.000Z</time>
      </trkpt>
      <trkpt lat="49.26373" lon="1.07375">
        <ele>91.6</ele>
        <time>2025-03-26T14:43:51.000Z</time>
      </trkpt>
      <trkpt lat="49.26381" lon="1.07385">
        <ele>91.6</ele>
        <time>2025-03-26T14:43:53.000Z</time>
      </trkpt>
      <trkpt lat="49.26386" lon="1.07396">
        <ele>91.6</ele>
        <time>2025-03-26T14:43:55.000Z</time>
      </trkpt>
      <trkpt lat="49.26394" lon="1.07406">
        <ele>91.5</ele>
        <time>2025-03-26T14:43:57.000Z</time>
      </trkpt>
      <trkpt lat="49.26402" lon="1.07415">
        <ele>91.2</ele>
        <time>2025-03-26T14:43:59.000Z</time>
      </trkpt>
      <trkpt lat="49.26411" lon="1.07425">
        <ele>91</ele>
        <time>2025-03-26T14:44:01.000Z</time>
      </trkpt>
      <trkpt lat="49.26419" lon="1.07435">
        <ele>90.8</ele>
        <time>2025-03-26T14:44:03.000Z</time>
      </trkpt>
      <trkpt lat="49.26426" lon="1.07444">
        <ele>90.5</ele>
        <time>2025-03-26T14:44:05.000Z</time>
      </trkpt>
      <trkpt lat="49.26433" lon="1.07453">
        <ele>90.3</ele>
        <time>2025-03-26T14:44:07.000Z</time>
      </trkpt>
      <trkpt lat="49.26445" lon="1.07465">
        <ele>90</ele>
        <time>2025-03-26T14:44:10.000Z</time>
      </trkpt>
      <trkpt lat="49.26453" lon="1.07475">
        <ele>89.6</ele>
        <time>2025-03-26T14:44:12.000Z</time>
      </trkpt>
      <trkpt lat="49.26462" lon="1.07486">
        <ele>89.2</ele>
        <time>2025-03-26T14:44:14.000Z</time>
      </trkpt>
      <trkpt lat="49.26471" lon="1.07498">
        <ele>88.8</ele>
        <time>2025-03-26T14:44:16.000Z</time>
      </trkpt>
      <trkpt lat="49.2648" lon="1.0751">
        <ele>88.2</ele>
        <time>2025-03-26T14:44:18.000Z</time>
      </trkpt>
      <trkpt lat="49.26489" lon="1.07521">
        <ele>87.6</ele>
        <time>2025-03-26T14:44:21.000Z</time>
      </trkpt>
      <trkpt lat="49.26497" lon="1.07533">
        <ele>86.8</ele>
        <time>2025-03-26T14:44:24.000Z</time>
      </trkpt>
      <trkpt lat="49.26507" lon="1.07544">
        <ele>86.3</ele>
        <time>2025-03-26T14:44:27.000Z</time>
      </trkpt>
      <trkpt lat="49.26517" lon="1.07556">
        <ele>85.8</ele>
        <time>2025-03-26T14:44:30.000Z</time>
      </trkpt>
      <trkpt lat="49.26526" lon="1.07567">
        <ele>85.5</ele>
        <time>2025-03-26T14:44:33.000Z</time>
      </trkpt>
      <trkpt lat="49.26537" lon="1.0758">
        <ele>85.3</ele>
        <time>2025-03-26T14:44:36.000Z</time>
      </trkpt>
      <trkpt lat="49.26546" lon="1.07591">
        <ele>85</ele>
        <time>2025-03-26T14:44:39.000Z</time>
      </trkpt>
      <trkpt lat="49.26553" lon="1.07601">
        <ele>85</ele>
        <time>2025-03-26T14:44:42.000Z</time>
      </trkpt>
      <trkpt lat="49.26561" lon="1.07611">
        <ele>85</ele>
        <time>2025-03-26T14:44:46.000Z</time>
      </trkpt>
      <trkpt lat="49.2657" lon="1.07619">
        <ele>85</ele>
        <time>2025-03-26T14:44:50.000Z</time>
      </trkpt>
      <trkpt lat="49.26576" lon="1.07631">
        <ele>85</ele>
        <time>2025-03-26T14:44:55.000Z</time>
      </trkpt>
      <trkpt lat="49.26583" lon="1.07642">
        <ele>85</ele>
        <time>2025-03-26T14:45:00.000Z</time>
      </trkpt>
      <trkpt lat="49.26592" lon="1.07654">
        <ele>85</ele>
        <time>2025-03-26T14:45:03.000Z</time>
      </trkpt>
      <trkpt lat="49.26601" lon="1.07663">
        <ele>84.9</ele>
        <time>2025-03-26T14:45:06.000Z</time>
      </trkpt>
      <trkpt lat="49.26607" lon="1.07672">
        <ele>84.8</ele>
        <time>2025-03-26T14:45:09.000Z</time>
      </trkpt>
      <trkpt lat="49.26617" lon="1.07682">
        <ele>84.7</ele>
        <time>2025-03-26T14:45:12.000Z</time>
      </trkpt>
      <trkpt lat="49.26625" lon="1.0769">
        <ele>84.6</ele>
        <time>2025-03-26T14:45:14.000Z</time>
      </trkpt>
      <trkpt lat="49.26633" lon="1.07699">
        <ele>84.5</ele>
        <time>2025-03-26T14:45:16.000Z</time>
      </trkpt>
      <trkpt lat="49.26641" lon="1.07712">
        <ele>84.2</ele>
        <time>2025-03-26T14:45:19.000Z</time>
      </trkpt>
      <trkpt lat="49.26648" lon="1.07722">
        <ele>83.9</ele>
        <time>2025-03-26T14:45:22.000Z</time>
      </trkpt>
      <trkpt lat="49.26656" lon="1.07731">
        <ele>83.7</ele>
        <time>2025-03-26T14:45:25.000Z</time>
      </trkpt>
      <trkpt lat="49.26665" lon="1.07741">
        <ele>83.3</ele>
        <time>2025-03-26T14:45:29.000Z</time>
      </trkpt>
      <trkpt lat="49.26673" lon="1.07753">
        <ele>83</ele>
        <time>2025-03-26T14:45:33.000Z</time>
      </trkpt>
      <trkpt lat="49.2668" lon="1.07762">
        <ele>82.9</ele>
        <time>2025-03-26T14:45:35.000Z</time>
      </trkpt>
      <trkpt lat="49.26688" lon="1.07773">
        <ele>82.8</ele>
        <time>2025-03-26T14:45:37.000Z</time>
      </trkpt>
      <trkpt lat="49.26696" lon="1.07784">
        <ele>82.8</ele>
        <time>2025-03-26T14:45:40.000Z</time>
      </trkpt>
      <trkpt lat="49.26703" lon="1.07794">
        <ele>82.7</ele>
        <time>2025-03-26T14:45:43.000Z</time>
      </trkpt>
      <trkpt lat="49.26711" lon="1.07803">
        <ele>82.6</ele>
        <time>2025-03-26T14:45:46.000Z</time>
      </trkpt>
      <trkpt lat="49.26719" lon="1.07811">
        <ele>82.4</ele>
        <time>2025-03-26T14:45:50.000Z</time>
      </trkpt>
      <trkpt lat="49.26726" lon="1.0782">
        <ele>82.3</ele>
        <time>2025-03-26T14:45:54.000Z</time>
      </trkpt>
      <trkpt lat="49.26733" lon="1.07829">
        <ele>82.2</ele>
        <time>2025-03-26T14:45:57.000Z</time>
      </trkpt>
      <trkpt lat="49.26743" lon="1.07839">
        <ele>82.2</ele>
        <time>2025-03-26T14:46:00.000Z</time>
      </trkpt>
      <trkpt lat="49.26751" lon="1.07849">
        <ele>82.1</ele>
        <time>2025-03-26T14:46:02.000Z</time>
      </trkpt>
      <trkpt lat="49.26759" lon="1.0786">
        <ele>82</ele>
        <time>2025-03-26T14:46:04.000Z</time>
      </trkpt>
      <trkpt lat="49.26766" lon="1.07869">
        <ele>82</ele>
        <time>2025-03-26T14:46:06.000Z</time>
      </trkpt>
      <trkpt lat="49.26775" lon="1.0788">
        <ele>82</ele>
        <time>2025-03-26T14:46:09.000Z</time>
      </trkpt>
      <trkpt lat="49.26782" lon="1.07891">
        <ele>82</ele>
        <time>2025-03-26T14:46:13.000Z</time>
      </trkpt>
      <trkpt lat="49.26789" lon="1.07903">
        <ele>81.9</ele>
        <time>2025-03-26T14:46:17.000Z</time>
      </trkpt>
      <trkpt lat="49.26796" lon="1.07914">
        <ele>81.8</ele>
        <time>2025-03-26T14:46:20.000Z</time>
      </trkpt>
      <trkpt lat="49.26804" lon="1.07923">
        <ele>81.8</ele>
        <time>2025-03-26T14:46:22.000Z</time>
      </trkpt>
      <trkpt lat="49.2681" lon="1.07934">
        <ele>81.8</ele>
        <time>2025-03-26T14:46:24.000Z</time>
      </trkpt>
      <trkpt lat="49.26817" lon="1.07945">
        <ele>81.8</ele>
        <time>2025-03-26T14:46:26.000Z</time>
      </trkpt>
      <trkpt lat="49.26824" lon="1.07955">
        <ele>81.7</ele>
        <time>2025-03-26T14:46:28.000Z</time>
      </trkpt>
      <trkpt lat="49.26833" lon="1.07963">
        <ele>81.6</ele>
        <time>2025-03-26T14:46:30.000Z</time>
      </trkpt>
      <trkpt lat="49.26842" lon="1.07972">
        <ele>81.7</ele>
        <time>2025-03-26T14:46:33.000Z</time>
      </trkpt>
      <trkpt lat="49.26852" lon="1.07984">
        <ele>81.7</ele>
        <time>2025-03-26T14:46:36.000Z</time>
      </trkpt>
      <trkpt lat="49.26861" lon="1.07997">
        <ele>81.8</ele>
        <time>2025-03-26T14:46:39.000Z</time>
      </trkpt>
      <trkpt lat="49.26871" lon="1.08008">
        <ele>81.8</ele>
        <time>2025-03-26T14:46:42.000Z</time>
      </trkpt>
      <trkpt lat="49.26881" lon="1.08021">
        <ele>81.8</ele>
        <time>2025-03-26T14:46:45.000Z</time>
      </trkpt>
      <trkpt lat="49.26889" lon="1.08031">
        <ele>81.9</ele>
        <time>2025-03-26T14:46:47.000Z</time>
      </trkpt>
      <trkpt lat="49.26899" lon="1.08041">
        <ele>81.9</ele>
        <time>2025-03-26T14:46:50.000Z</time>
      </trkpt>
      <trkpt lat="49.26905" lon="1.08052">
        <ele>82</ele>
        <time>2025-03-26T14:46:55.000Z</time>
      </trkpt>
      <trkpt lat="49.26916" lon="1.08061">
        <ele>82.2</ele>
        <time>2025-03-26T14:46:58.000Z</time>
      </trkpt>
      <trkpt lat="49.26924" lon="1.08075">
        <ele>82.4</ele>
        <time>2025-03-26T14:47:01.000Z</time>
      </trkpt>
      <trkpt lat="49.26931" lon="1.08085">
        <ele>82.4</ele>
        <time>2025-03-26T14:47:03.000Z</time>
      </trkpt>
      <trkpt lat="49.26939" lon="1.08095">
        <ele>82.5</ele>
        <time>2025-03-26T14:47:05.000Z</time>
      </trkpt>
      <trkpt lat="49.26948" lon="1.08105">
        <ele>82.5</ele>
        <time>2025-03-26T14:47:07.000Z</time>
      </trkpt>
      <trkpt lat="49.26958" lon="1.08119">
        <ele>82.6</ele>
        <time>2025-03-26T14:47:10.000Z</time>
      </trkpt>
      <trkpt lat="49.26967" lon="1.08132">
        <ele>82.6</ele>
        <time>2025-03-26T14:47:13.000Z</time>
      </trkpt>
      <trkpt lat="49.26975" lon="1.08143">
        <ele>82.6</ele>
        <time>2025-03-26T14:47:15.000Z</time>
      </trkpt>
      <trkpt lat="49.26982" lon="1.08152">
        <ele>82.6</ele>
        <time>2025-03-26T14:47:17.000Z</time>
      </trkpt>
      <trkpt lat="49.26991" lon="1.08164">
        <ele>82.5</ele>
        <time>2025-03-26T14:47:20.000Z</time>
      </trkpt>
      <trkpt lat="49.26999" lon="1.08173">
        <ele>82.5</ele>
        <time>2025-03-26T14:47:22.000Z</time>
      </trkpt>
      <trkpt lat="49.27009" lon="1.08185">
        <ele>82.6</ele>
        <time>2025-03-26T14:47:25.000Z</time>
      </trkpt>
      <trkpt lat="49.27018" lon="1.08193">
        <ele>82.8</ele>
        <time>2025-03-26T14:47:28.000Z</time>
      </trkpt>
      <trkpt lat="49.27027" lon="1.08203">
        <ele>83.2</ele>
        <time>2025-03-26T14:47:31.000Z</time>
      </trkpt>
      <trkpt lat="49.27044" lon="1.08226">
        <ele>86.2</ele>
        <time>2025-03-26T14:47:43.000Z</time>
      </trkpt>
      <trkpt lat="49.27044" lon="1.08226">
        <ele>86.4</ele>
        <time>2025-03-26T14:47:44.000Z</time>
      </trkpt>
      <trkpt lat="49.27043" lon="1.08226">
        <ele>87.3</ele>
        <time>2025-03-26T14:47:55.000Z</time>
      </trkpt>
      <trkpt lat="49.27043" lon="1.08226">
        <ele>87.2</ele>
        <time>2025-03-26T14:47:56.000Z</time>
      </trkpt>
      <trkpt lat="49.27044" lon="1.08225">
        <ele>87.2</ele>
        <time>2025-03-26T14:48:01.000Z</time>
      </trkpt>
      <trkpt lat="49.27036" lon="1.08217">
        <ele>87.1</ele>
        <time>2025-03-26T14:48:22.000Z</time>
      </trkpt>
      <trkpt lat="49.27036" lon="1.08217">
        <ele>87.1</ele>
        <time>2025-03-26T14:48:23.000Z</time>
      </trkpt>
      <trkpt lat="49.27036" lon="1.08217">
        <ele>87</ele>
        <time>2025-03-26T14:48:24.000Z</time>
      </trkpt>
      <trkpt lat="49.27051" lon="1.08235">
        <ele>85.9</ele>
        <time>2025-03-26T14:53:33.000Z</time>
      </trkpt>
      <trkpt lat="49.27059" lon="1.08244">
        <ele>86.1</ele>
        <time>2025-03-26T14:53:36.000Z</time>
      </trkpt>
      <trkpt lat="49.27066" lon="1.08253">
        <ele>86.2</ele>
        <time>2025-03-26T14:53:39.000Z</time>
      </trkpt>
      <trkpt lat="49.27075" lon="1.08264">
        <ele>86.5</ele>
        <time>2025-03-26T14:53:43.000Z</time>
      </trkpt>
      <trkpt lat="49.27083" lon="1.08272">
        <ele>86.6</ele>
        <time>2025-03-26T14:53:47.000Z</time>
      </trkpt>
      <trkpt lat="49.27092" lon="1.08284">
        <ele>86.8</ele>
        <time>2025-03-26T14:53:52.000Z</time>
      </trkpt>
      <trkpt lat="49.27099" lon="1.08294">
        <ele>86.9</ele>
        <time>2025-03-26T14:53:55.000Z</time>
      </trkpt>
      <trkpt lat="49.27108" lon="1.08306">
        <ele>87</ele>
        <time>2025-03-26T14:53:58.000Z</time>
      </trkpt>
      <trkpt lat="49.27117" lon="1.08319">
        <ele>87</ele>
        <time>2025-03-26T14:54:01.000Z</time>
      </trkpt>
      <trkpt lat="49.27126" lon="1.08332">
        <ele>87.1</ele>
        <time>2025-03-26T14:54:04.000Z</time>
      </trkpt>
      <trkpt lat="49.27134" lon="1.0834">
        <ele>87.2</ele>
        <time>2025-03-26T14:54:06.000Z</time>
      </trkpt>
      <trkpt lat="49.27141" lon="1.08349">
        <ele>87.3</ele>
        <time>2025-03-26T14:54:08.000Z</time>
      </trkpt>
      <trkpt lat="49.27148" lon="1.08358">
        <ele>87.4</ele>
        <time>2025-03-26T14:54:10.000Z</time>
      </trkpt>
      <trkpt lat="49.27155" lon="1.08368">
        <ele>87.6</ele>
        <time>2025-03-26T14:54:12.000Z</time>
      </trkpt>
      <trkpt lat="49.27162" lon="1.08377">
        <ele>87.8</ele>
        <time>2025-03-26T14:54:14.000Z</time>
      </trkpt>
      <trkpt lat="49.27172" lon="1.08389">
        <ele>88.1</ele>
        <time>2025-03-26T14:54:17.000Z</time>
      </trkpt>
      <trkpt lat="49.2718" lon="1.08401">
        <ele>88.4</ele>
        <time>2025-03-26T14:54:20.000Z</time>
      </trkpt>
      <trkpt lat="49.27188" lon="1.08411">
        <ele>88.5</ele>
        <time>2025-03-26T14:54:24.000Z</time>
      </trkpt>
      <trkpt lat="49.27195" lon="1.08421">
        <ele>88.5</ele>
        <time>2025-03-26T14:54:27.000Z</time>
      </trkpt>
      <trkpt lat="49.27205" lon="1.08434">
        <ele>88.6</ele>
        <time>2025-03-26T14:54:30.000Z</time>
      </trkpt>
      <trkpt lat="49.27212" lon="1.08443">
        <ele>88.6</ele>
        <time>2025-03-26T14:54:32.000Z</time>
      </trkpt>
      <trkpt lat="49.27222" lon="1.08455">
        <ele>88.7</ele>
        <time>2025-03-26T14:54:35.000Z</time>
      </trkpt>
      <trkpt lat="49.27231" lon="1.08468">
        <ele>88.6</ele>
        <time>2025-03-26T14:54:38.000Z</time>
      </trkpt>
      <trkpt lat="49.27242" lon="1.08481">
        <ele>88.5</ele>
        <time>2025-03-26T14:54:41.000Z</time>
      </trkpt>
      <trkpt lat="49.27249" lon="1.0849">
        <ele>88.4</ele>
        <time>2025-03-26T14:54:43.000Z</time>
      </trkpt>
      <trkpt lat="49.27257" lon="1.08498">
        <ele>88.2</ele>
        <time>2025-03-26T14:54:45.000Z</time>
      </trkpt>
      <trkpt lat="49.27264" lon="1.08506">
        <ele>88</ele>
        <time>2025-03-26T14:54:47.000Z</time>
      </trkpt>
      <trkpt lat="49.27271" lon="1.08516">
        <ele>87.7</ele>
        <time>2025-03-26T14:54:49.000Z</time>
      </trkpt>
      <trkpt lat="49.27279" lon="1.08526">
        <ele>87.3</ele>
        <time>2025-03-26T14:54:51.000Z</time>
      </trkpt>
      <trkpt lat="49.27286" lon="1.08535">
        <ele>86.8</ele>
        <time>2025-03-26T14:54:53.000Z</time>
      </trkpt>
      <trkpt lat="49.27296" lon="1.08546">
        <ele>85.8</ele>
        <time>2025-03-26T14:54:56.000Z</time>
      </trkpt>
      <trkpt lat="49.27304" lon="1.08555">
        <ele>85.3</ele>
        <time>2025-03-26T14:54:58.000Z</time>
      </trkpt>
      <trkpt lat="49.27313" lon="1.08566">
        <ele>84.5</ele>
        <time>2025-03-26T14:55:00.000Z</time>
      </trkpt>
      <trkpt lat="49.27322" lon="1.08578">
        <ele>83.4</ele>
        <time>2025-03-26T14:55:02.000Z</time>
      </trkpt>
      <trkpt lat="49.27332" lon="1.08591">
        <ele>82.3</ele>
        <time>2025-03-26T14:55:04.000Z</time>
      </trkpt>
      <trkpt lat="49.27344" lon="1.08605">
        <ele>80.9</ele>
        <time>2025-03-26T14:55:06.000Z</time>
      </trkpt>
      <trkpt lat="49.27357" lon="1.08621">
        <ele>79.1</ele>
        <time>2025-03-26T14:55:08.000Z</time>
      </trkpt>
      <trkpt lat="49.27368" lon="1.08633">
        <ele>77.6</ele>
        <time>2025-03-26T14:55:10.000Z</time>
      </trkpt>
      <trkpt lat="49.27378" lon="1.08645">
        <ele>75.6</ele>
        <time>2025-03-26T14:55:13.000Z</time>
      </trkpt>
      <trkpt lat="49.27386" lon="1.08655">
        <ele>73.8</ele>
        <time>2025-03-26T14:55:17.000Z</time>
      </trkpt>
      <trkpt lat="49.27392" lon="1.08665">
        <ele>72.8</ele>
        <time>2025-03-26T14:55:21.000Z</time>
      </trkpt>
      <trkpt lat="49.274" lon="1.08675">
        <ele>72.4</ele>
        <time>2025-03-26T14:55:24.000Z</time>
      </trkpt>
      <trkpt lat="49.2741" lon="1.08685">
        <ele>71.6</ele>
        <time>2025-03-26T14:55:27.000Z</time>
      </trkpt>
      <trkpt lat="49.27419" lon="1.08698">
        <ele>70.2</ele>
        <time>2025-03-26T14:55:30.000Z</time>
      </trkpt>
      <trkpt lat="49.27429" lon="1.08709">
        <ele>69.4</ele>
        <time>2025-03-26T14:55:33.000Z</time>
      </trkpt>
      <trkpt lat="49.27437" lon="1.08722">
        <ele>68.7</ele>
        <time>2025-03-26T14:55:36.000Z</time>
      </trkpt>
      <trkpt lat="49.27447" lon="1.08734">
        <ele>68</ele>
        <time>2025-03-26T14:55:39.000Z</time>
      </trkpt>
      <trkpt lat="49.27457" lon="1.08744">
        <ele>67.3</ele>
        <time>2025-03-26T14:55:42.000Z</time>
      </trkpt>
      <trkpt lat="49.27464" lon="1.08754">
        <ele>66.9</ele>
        <time>2025-03-26T14:55:45.000Z</time>
      </trkpt>
      <trkpt lat="49.27473" lon="1.08764">
        <ele>66.7</ele>
        <time>2025-03-26T14:55:49.000Z</time>
      </trkpt>
      <trkpt lat="49.27481" lon="1.08775">
        <ele>66.8</ele>
        <time>2025-03-26T14:55:52.000Z</time>
      </trkpt>
      <trkpt lat="49.27487" lon="1.08785">
        <ele>67.1</ele>
        <time>2025-03-26T14:55:55.000Z</time>
      </trkpt>
      <trkpt lat="49.27495" lon="1.08796">
        <ele>67.6</ele>
        <time>2025-03-26T14:55:58.000Z</time>
      </trkpt>
      <trkpt lat="49.27503" lon="1.08807">
        <ele>68.6</ele>
        <time>2025-03-26T14:56:02.000Z</time>
      </trkpt>
      <trkpt lat="49.27511" lon="1.08817">
        <ele>69.3</ele>
        <time>2025-03-26T14:56:05.000Z</time>
      </trkpt>
      <trkpt lat="49.27519" lon="1.08828">
        <ele>70</ele>
        <time>2025-03-26T14:56:08.000Z</time>
      </trkpt>
      <trkpt lat="49.27526" lon="1.08837">
        <ele>70.6</ele>
        <time>2025-03-26T14:56:11.000Z</time>
      </trkpt>
      <trkpt lat="49.27533" lon="1.08847">
        <ele>71.4</ele>
        <time>2025-03-26T14:56:14.000Z</time>
      </trkpt>
      <trkpt lat="49.27541" lon="1.08857">
        <ele>72.2</ele>
        <time>2025-03-26T14:56:17.000Z</time>
      </trkpt>
      <trkpt lat="49.2755" lon="1.08867">
        <ele>73.1</ele>
        <time>2025-03-26T14:56:20.000Z</time>
      </trkpt>
      <trkpt lat="49.27558" lon="1.08877">
        <ele>73.6</ele>
        <time>2025-03-26T14:56:23.000Z</time>
      </trkpt>
      <trkpt lat="49.27565" lon="1.08887">
        <ele>74.1</ele>
        <time>2025-03-26T14:56:26.000Z</time>
      </trkpt>
      <trkpt lat="49.27573" lon="1.08897">
        <ele>74.5</ele>
        <time>2025-03-26T14:56:29.000Z</time>
      </trkpt>
      <trkpt lat="49.2758" lon="1.08908">
        <ele>75</ele>
        <time>2025-03-26T14:56:32.000Z</time>
      </trkpt>
      <trkpt lat="49.27588" lon="1.08918">
        <ele>75.4</ele>
        <time>2025-03-26T14:56:35.000Z</time>
      </trkpt>
      <trkpt lat="49.27595" lon="1.08928">
        <ele>75.7</ele>
        <time>2025-03-26T14:56:38.000Z</time>
      </trkpt>
      <trkpt lat="49.27604" lon="1.08939">
        <ele>76.1</ele>
        <time>2025-03-26T14:56:41.000Z</time>
      </trkpt>
      <trkpt lat="49.27612" lon="1.08951">
        <ele>76.5</ele>
        <time>2025-03-26T14:56:44.000Z</time>
      </trkpt>
      <trkpt lat="49.27623" lon="1.08962">
        <ele>76.9</ele>
        <time>2025-03-26T14:56:47.000Z</time>
      </trkpt>
      <trkpt lat="49.2763" lon="1.08971">
        <ele>77</ele>
        <time>2025-03-26T14:56:49.000Z</time>
      </trkpt>
      <trkpt lat="49.2764" lon="1.08983">
        <ele>77.1</ele>
        <time>2025-03-26T14:56:52.000Z</time>
      </trkpt>
      <trkpt lat="49.27647" lon="1.08992">
        <ele>77.2</ele>
        <time>2025-03-26T14:56:55.000Z</time>
      </trkpt>
      <trkpt lat="49.27654" lon="1.09002">
        <ele>77.2</ele>
        <time>2025-03-26T14:56:58.000Z</time>
      </trkpt>
      <trkpt lat="49.27663" lon="1.09014">
        <ele>77.2</ele>
        <time>2025-03-26T14:57:01.000Z</time>
      </trkpt>
      <trkpt lat="49.27673" lon="1.09026">
        <ele>77.2</ele>
        <time>2025-03-26T14:57:04.000Z</time>
      </trkpt>
      <trkpt lat="49.27679" lon="1.09036">
        <ele>77.2</ele>
        <time>2025-03-26T14:57:06.000Z</time>
      </trkpt>
      <trkpt lat="49.27687" lon="1.09045">
        <ele>77.1</ele>
        <time>2025-03-26T14:57:08.000Z</time>
      </trkpt>
      <trkpt lat="49.27694" lon="1.09055">
        <ele>77.1</ele>
        <time>2025-03-26T14:57:10.000Z</time>
      </trkpt>
      <trkpt lat="49.27703" lon="1.09066">
        <ele>77</ele>
        <time>2025-03-26T14:57:12.000Z</time>
      </trkpt>
      <trkpt lat="49.27712" lon="1.09076">
        <ele>77</ele>
        <time>2025-03-26T14:57:14.000Z</time>
      </trkpt>
      <trkpt lat="49.2772" lon="1.09087">
        <ele>76.9</ele>
        <time>2025-03-26T14:57:16.000Z</time>
      </trkpt>
      <trkpt lat="49.27729" lon="1.09099">
        <ele>76.8</ele>
        <time>2025-03-26T14:57:18.000Z</time>
      </trkpt>
      <trkpt lat="49.27738" lon="1.09111">
        <ele>76.7</ele>
        <time>2025-03-26T14:57:20.000Z</time>
      </trkpt>
      <trkpt lat="49.27747" lon="1.09121">
        <ele>76.4</ele>
        <time>2025-03-26T14:57:22.000Z</time>
      </trkpt>
      <trkpt lat="49.27756" lon="1.09131">
        <ele>75.9</ele>
        <time>2025-03-26T14:57:24.000Z</time>
      </trkpt>
      <trkpt lat="49.27765" lon="1.09142">
        <ele>75.3</ele>
        <time>2025-03-26T14:57:26.000Z</time>
      </trkpt>
      <trkpt lat="49.27774" lon="1.09154">
        <ele>74.7</ele>
        <time>2025-03-26T14:57:28.000Z</time>
      </trkpt>
      <trkpt lat="49.27782" lon="1.09164">
        <ele>74.2</ele>
        <time>2025-03-26T14:57:30.000Z</time>
      </trkpt>
      <trkpt lat="49.27792" lon="1.09176">
        <ele>73.7</ele>
        <time>2025-03-26T14:57:33.000Z</time>
      </trkpt>
      <trkpt lat="49.27802" lon="1.09188">
        <ele>73.2</ele>
        <time>2025-03-26T14:57:36.000Z</time>
      </trkpt>
      <trkpt lat="49.2781" lon="1.09198">
        <ele>72.8</ele>
        <time>2025-03-26T14:57:39.000Z</time>
      </trkpt>
      <trkpt lat="49.27819" lon="1.09209">
        <ele>72.4</ele>
        <time>2025-03-26T14:57:43.000Z</time>
      </trkpt>
      <trkpt lat="49.27828" lon="1.0922">
        <ele>72.2</ele>
        <time>2025-03-26T14:57:47.000Z</time>
      </trkpt>
      <trkpt lat="49.27837" lon="1.09231">
        <ele>72</ele>
        <time>2025-03-26T14:57:50.000Z</time>
      </trkpt>
      <trkpt lat="49.27845" lon="1.09243">
        <ele>72.1</ele>
        <time>2025-03-26T14:57:53.000Z</time>
      </trkpt>
      <trkpt lat="49.27855" lon="1.09256">
        <ele>72</ele>
        <time>2025-03-26T14:57:56.000Z</time>
      </trkpt>
      <trkpt lat="49.27865" lon="1.09268">
        <ele>72</ele>
        <time>2025-03-26T14:57:59.000Z</time>
      </trkpt>
      <trkpt lat="49.27874" lon="1.0928">
        <ele>71.9</ele>
        <time>2025-03-26T14:58:02.000Z</time>
      </trkpt>
      <trkpt lat="49.27884" lon="1.09293">
        <ele>71.9</ele>
        <time>2025-03-26T14:58:05.000Z</time>
      </trkpt>
      <trkpt lat="49.27892" lon="1.09302">
        <ele>71.9</ele>
        <time>2025-03-26T14:58:07.000Z</time>
      </trkpt>
      <trkpt lat="49.27899" lon="1.0931">
        <ele>71.9</ele>
        <time>2025-03-26T14:58:09.000Z</time>
      </trkpt>
      <trkpt lat="49.27911" lon="1.0932">
        <ele>71.9</ele>
        <time>2025-03-26T14:58:12.000Z</time>
      </trkpt>
      <trkpt lat="49.2792" lon="1.09333">
        <ele>72</ele>
        <time>2025-03-26T14:58:15.000Z</time>
      </trkpt>
      <trkpt lat="49.27925" lon="1.09349">
        <ele>72.2</ele>
        <time>2025-03-26T14:58:18.000Z</time>
      </trkpt>
      <trkpt lat="49.27923" lon="1.09368">
        <ele>72.4</ele>
        <time>2025-03-26T14:58:21.000Z</time>
      </trkpt>
      <trkpt lat="49.27921" lon="1.09385">
        <ele>72.7</ele>
        <time>2025-03-26T14:58:24.000Z</time>
      </trkpt>
      <trkpt lat="49.27918" lon="1.09403">
        <ele>72.9</ele>
        <time>2025-03-26T14:58:27.000Z</time>
      </trkpt>
      <trkpt lat="49.27915" lon="1.0942">
        <ele>73.3</ele>
        <time>2025-03-26T14:58:30.000Z</time>
      </trkpt>
      <trkpt lat="49.27913" lon="1.09434">
        <ele>73.9</ele>
        <time>2025-03-26T14:58:34.000Z</time>
      </trkpt>
      <trkpt lat="49.27911" lon="1.09449">
        <ele>74.7</ele>
        <time>2025-03-26T14:58:39.000Z</time>
      </trkpt>
      <trkpt lat="49.27911" lon="1.09452">
        <ele>75.3</ele>
        <time>2025-03-26T14:58:45.000Z</time>
      </trkpt>
      <trkpt lat="49.27911" lon="1.09452">
        <ele>75.4</ele>
        <time>2025-03-26T14:58:46.000Z</time>
      </trkpt>
      <trkpt lat="49.27911" lon="1.09452">
        <ele>75.4</ele>
        <time>2025-03-26T14:58:47.000Z</time>
      </trkpt>
      <trkpt lat="49.27915" lon="1.09457">
        <ele>76.3</ele>
        <time>2025-03-26T14:59:23.000Z</time>
      </trkpt>
      <trkpt lat="49.27915" lon="1.09456">
        <ele>76.3</ele>
        <time>2025-03-26T14:59:24.000Z</time>
      </trkpt>
      <trkpt lat="49.27925" lon="1.09457">
        <ele>76.1</ele>
        <time>2025-03-26T14:59:42.000Z</time>
      </trkpt>
      <trkpt lat="49.27934" lon="1.09463">
        <ele>76</ele>
        <time>2025-03-26T14:59:47.000Z</time>
      </trkpt>
      <trkpt lat="49.27943" lon="1.0947">
        <ele>75.9</ele>
        <time>2025-03-26T14:59:51.000Z</time>
      </trkpt>
      <trkpt lat="49.2795" lon="1.09479">
        <ele>75.8</ele>
        <time>2025-03-26T14:59:54.000Z</time>
      </trkpt>
      <trkpt lat="49.27958" lon="1.09489">
        <ele>75.7</ele>
        <time>2025-03-26T14:59:58.000Z</time>
      </trkpt>
      <trkpt lat="49.27968" lon="1.09497">
        <ele>75.7</ele>
        <time>2025-03-26T15:00:02.000Z</time>
      </trkpt>
      <trkpt lat="49.27978" lon="1.09503">
        <ele>75.7</ele>
        <time>2025-03-26T15:00:05.000Z</time>
      </trkpt>
      <trkpt lat="49.27988" lon="1.09508">
        <ele>75.7</ele>
        <time>2025-03-26T15:00:08.000Z</time>
      </trkpt>
      <trkpt lat="49.27997" lon="1.09513">
        <ele>75.7</ele>
        <time>2025-03-26T15:00:12.000Z</time>
      </trkpt>
      <trkpt lat="49.28007" lon="1.09519">
        <ele>75.7</ele>
        <time>2025-03-26T15:00:15.000Z</time>
      </trkpt>
      <trkpt lat="49.28016" lon="1.09523">
        <ele>75.6</ele>
        <time>2025-03-26T15:00:19.000Z</time>
      </trkpt>
      <trkpt lat="49.28028" lon="1.09527">
        <ele>75.5</ele>
        <time>2025-03-26T15:00:23.000Z</time>
      </trkpt>
      <trkpt lat="49.28038" lon="1.09532">
        <ele>75.5</ele>
        <time>2025-03-26T15:00:26.000Z</time>
      </trkpt>
      <trkpt lat="49.28042" lon="1.09544">
        <ele>75.3</ele>
        <time>2025-03-26T15:00:33.000Z</time>
      </trkpt>
      <trkpt lat="49.28039" lon="1.09557">
        <ele>75.2</ele>
        <time>2025-03-26T15:00:37.000Z</time>
      </trkpt>
      <trkpt lat="49.28048" lon="1.0957">
        <ele>75.2</ele>
        <time>2025-03-26T15:00:41.000Z</time>
      </trkpt>
      <trkpt lat="49.28056" lon="1.09581">
        <ele>75.2</ele>
        <time>2025-03-26T15:00:44.000Z</time>
      </trkpt>
      <trkpt lat="49.28064" lon="1.09592">
        <ele>75.2</ele>
        <time>2025-03-26T15:00:47.000Z</time>
      </trkpt>
      <trkpt lat="49.28074" lon="1.09607">
        <ele>75.2</ele>
        <time>2025-03-26T15:00:50.000Z</time>
      </trkpt>
      <trkpt lat="49.28081" lon="1.09617">
        <ele>75.2</ele>
        <time>2025-03-26T15:00:52.000Z</time>
      </trkpt>
      <trkpt lat="49.2809" lon="1.09629">
        <ele>75.2</ele>
        <time>2025-03-26T15:00:55.000Z</time>
      </trkpt>
      <trkpt lat="49.28099" lon="1.0964">
        <ele>75.2</ele>
        <time>2025-03-26T15:00:58.000Z</time>
      </trkpt>
      <trkpt lat="49.2811" lon="1.09654">
        <ele>75.2</ele>
        <time>2025-03-26T15:01:01.000Z</time>
      </trkpt>
      <trkpt lat="49.28118" lon="1.09665">
        <ele>75.3</ele>
        <time>2025-03-26T15:01:03.000Z</time>
      </trkpt>
      <trkpt lat="49.28126" lon="1.09677">
        <ele>75.3</ele>
        <time>2025-03-26T15:01:05.000Z</time>
      </trkpt>
      <trkpt lat="49.28134" lon="1.09688">
        <ele>75.2</ele>
        <time>2025-03-26T15:01:07.000Z</time>
      </trkpt>
      <trkpt lat="49.28142" lon="1.097">
        <ele>75.2</ele>
        <time>2025-03-26T15:01:09.000Z</time>
      </trkpt>
      <trkpt lat="49.28151" lon="1.09711">
        <ele>75.2</ele>
        <time>2025-03-26T15:01:11.000Z</time>
      </trkpt>
      <trkpt lat="49.28159" lon="1.09722">
        <ele>75.2</ele>
        <time>2025-03-26T15:01:13.000Z</time>
      </trkpt>
      <trkpt lat="49.28165" lon="1.09735">
        <ele>75.1</ele>
        <time>2025-03-26T15:01:15.000Z</time>
      </trkpt>
      <trkpt lat="49.28167" lon="1.09752">
        <ele>75</ele>
        <time>2025-03-26T15:01:18.000Z</time>
      </trkpt>
      <trkpt lat="49.28167" lon="1.09769">
        <ele>74.8</ele>
        <time>2025-03-26T15:01:22.000Z</time>
      </trkpt>
      <trkpt lat="49.28167" lon="1.09789">
        <ele>74.8</ele>
        <time>2025-03-26T15:01:25.000Z</time>
      </trkpt>
      <trkpt lat="49.28167" lon="1.09804">
        <ele>74.7</ele>
        <time>2025-03-26T15:01:27.000Z</time>
      </trkpt>
      <trkpt lat="49.28168" lon="1.09821">
        <ele>74.7</ele>
        <time>2025-03-26T15:01:29.000Z</time>
      </trkpt>
      <trkpt lat="49.28169" lon="1.09837">
        <ele>74.7</ele>
        <time>2025-03-26T15:01:31.000Z</time>
      </trkpt>
      <trkpt lat="49.28172" lon="1.09853">
        <ele>74.7</ele>
        <time>2025-03-26T15:01:33.000Z</time>
      </trkpt>
      <trkpt lat="49.28176" lon="1.09866">
        <ele>74.7</ele>
        <time>2025-03-26T15:01:35.000Z</time>
      </trkpt>
      <trkpt lat="49.28182" lon="1.09881">
        <ele>74.8</ele>
        <time>2025-03-26T15:01:38.000Z</time>
      </trkpt>
      <trkpt lat="49.28187" lon="1.09894">
        <ele>74.8</ele>
        <time>2025-03-26T15:01:40.000Z</time>
      </trkpt>
      <trkpt lat="49.28191" lon="1.09909">
        <ele>74.8</ele>
        <time>2025-03-26T15:01:42.000Z</time>
      </trkpt>
      <trkpt lat="49.28195" lon="1.09924">
        <ele>74.9</ele>
        <time>2025-03-26T15:01:44.000Z</time>
      </trkpt>
      <trkpt lat="49.282" lon="1.09942">
        <ele>74.9</ele>
        <time>2025-03-26T15:01:47.000Z</time>
      </trkpt>
      <trkpt lat="49.28204" lon="1.09955">
        <ele>74.9</ele>
        <time>2025-03-26T15:01:49.000Z</time>
      </trkpt>
      <trkpt lat="49.28206" lon="1.09969">
        <ele>74.9</ele>
        <time>2025-03-26T15:01:51.000Z</time>
      </trkpt>
      <trkpt lat="49.28208" lon="1.09984">
        <ele>74.9</ele>
        <time>2025-03-26T15:01:53.000Z</time>
      </trkpt>
      <trkpt lat="49.28211" lon="1.10002">
        <ele>75</ele>
        <time>2025-03-26T15:01:56.000Z</time>
      </trkpt>
      <trkpt lat="49.28215" lon="1.10016">
        <ele>75.1</ele>
        <time>2025-03-26T15:01:59.000Z</time>
      </trkpt>
      <trkpt lat="49.28217" lon="1.10034">
        <ele>75.1</ele>
        <time>2025-03-26T15:02:03.000Z</time>
      </trkpt>
      <trkpt lat="49.28214" lon="1.10048">
        <ele>75.2</ele>
        <time>2025-03-26T15:02:05.000Z</time>
      </trkpt>
      <trkpt lat="49.28208" lon="1.10059">
        <ele>75.2</ele>
        <time>2025-03-26T15:02:07.000Z</time>
      </trkpt>
      <trkpt lat="49.28208" lon="1.10077">
        <ele>75.3</ele>
        <time>2025-03-26T15:02:11.000Z</time>
      </trkpt>
      <trkpt lat="49.28214" lon="1.10092">
        <ele>75.5</ele>
        <time>2025-03-26T15:02:15.000Z</time>
      </trkpt>
      <trkpt lat="49.28221" lon="1.10102">
        <ele>75.8</ele>
        <time>2025-03-26T15:02:19.000Z</time>
      </trkpt>
      <trkpt lat="49.2823" lon="1.10099">
        <ele>75.8</ele>
        <time>2025-03-26T15:02:22.000Z</time>
      </trkpt>
      <trkpt lat="49.28237" lon="1.10107">
        <ele>75.7</ele>
        <time>2025-03-26T15:02:26.000Z</time>
      </trkpt>
      <trkpt lat="49.28245" lon="1.10116">
        <ele>75.7</ele>
        <time>2025-03-26T15:02:29.000Z</time>
      </trkpt>
      <trkpt lat="49.28255" lon="1.1012">
        <ele>75.6</ele>
        <time>2025-03-26T15:02:31.000Z</time>
      </trkpt>
      <trkpt lat="49.28263" lon="1.10128">
        <ele>75.5</ele>
        <time>2025-03-26T15:02:33.000Z</time>
      </trkpt>
      <trkpt lat="49.28274" lon="1.10133">
        <ele>75.3</ele>
        <time>2025-03-26T15:02:36.000Z</time>
      </trkpt>
      <trkpt lat="49.28283" lon="1.10144">
        <ele>74.9</ele>
        <time>2025-03-26T15:02:40.000Z</time>
      </trkpt>
      <trkpt lat="49.28295" lon="1.10144">
        <ele>74.7</ele>
        <time>2025-03-26T15:02:44.000Z</time>
      </trkpt>
      <trkpt lat="49.283" lon="1.10157">
        <ele>74.5</ele>
        <time>2025-03-26T15:02:48.000Z</time>
      </trkpt>
      <trkpt lat="49.28304" lon="1.10171">
        <ele>74.4</ele>
        <time>2025-03-26T15:02:51.000Z</time>
      </trkpt>
      <trkpt lat="49.28313" lon="1.10176">
        <ele>74.2</ele>
        <time>2025-03-26T15:02:56.000Z</time>
      </trkpt>
      <trkpt lat="49.28322" lon="1.10183">
        <ele>74.1</ele>
        <time>2025-03-26T15:03:00.000Z</time>
      </trkpt>
      <trkpt lat="49.28331" lon="1.10196">
        <ele>74.2</ele>
        <time>2025-03-26T15:03:03.000Z</time>
      </trkpt>
      <trkpt lat="49.28337" lon="1.10208">
        <ele>74.1</ele>
        <time>2025-03-26T15:03:05.000Z</time>
      </trkpt>
      <trkpt lat="49.28343" lon="1.1022">
        <ele>74.1</ele>
        <time>2025-03-26T15:03:08.000Z</time>
      </trkpt>
      <trkpt lat="49.2835" lon="1.10234">
        <ele>74.2</ele>
        <time>2025-03-26T15:03:12.000Z</time>
      </trkpt>
      <trkpt lat="49.28356" lon="1.10247">
        <ele>74.1</ele>
        <time>2025-03-26T15:03:15.000Z</time>
      </trkpt>
      <trkpt lat="49.28366" lon="1.10254">
        <ele>74.2</ele>
        <time>2025-03-26T15:03:19.000Z</time>
      </trkpt>
      <trkpt lat="49.28376" lon="1.10254">
        <ele>74.2</ele>
        <time>2025-03-26T15:03:22.000Z</time>
      </trkpt>
      <trkpt lat="49.28382" lon="1.10271">
        <ele>74.2</ele>
        <time>2025-03-26T15:03:25.000Z</time>
      </trkpt>
      <trkpt lat="49.28379" lon="1.10284">
        <ele>74.1</ele>
        <time>2025-03-26T15:03:28.000Z</time>
      </trkpt>
      <trkpt lat="49.28376" lon="1.10298">
        <ele>74</ele>
        <time>2025-03-26T15:03:31.000Z</time>
      </trkpt>
      <trkpt lat="49.28382" lon="1.10311">
        <ele>74</ele>
        <time>2025-03-26T15:03:34.000Z</time>
      </trkpt>
      <trkpt lat="49.28388" lon="1.10327">
        <ele>74</ele>
        <time>2025-03-26T15:03:37.000Z</time>
      </trkpt>
      <trkpt lat="49.28396" lon="1.10339">
        <ele>73.9</ele>
        <time>2025-03-26T15:03:40.000Z</time>
      </trkpt>
      <trkpt lat="49.28403" lon="1.10349">
        <ele>73.9</ele>
        <time>2025-03-26T15:03:43.000Z</time>
      </trkpt>
      <trkpt lat="49.28408" lon="1.10363">
        <ele>73.8</ele>
        <time>2025-03-26T15:03:47.000Z</time>
      </trkpt>
      <trkpt lat="49.28417" lon="1.10356">
        <ele>73.6</ele>
        <time>2025-03-26T15:03:52.000Z</time>
      </trkpt>
      <trkpt lat="49.28421" lon="1.10372">
        <ele>73</ele>
        <time>2025-03-26T15:04:02.000Z</time>
      </trkpt>
      <trkpt lat="49.28426" lon="1.10386">
        <ele>72.9</ele>
        <time>2025-03-26T15:04:05.000Z</time>
      </trkpt>
      <trkpt lat="49.28423" lon="1.104">
        <ele>72.7</ele>
        <time>2025-03-26T15:04:10.000Z</time>
      </trkpt>
      <trkpt lat="49.28432" lon="1.10406">
        <ele>72.4</ele>
        <time>2025-03-26T15:04:18.000Z</time>
      </trkpt>
      <trkpt lat="49.28441" lon="1.10402">
        <ele>72.2</ele>
        <time>2025-03-26T15:04:21.000Z</time>
      </trkpt>
      <trkpt lat="49.28449" lon="1.10411">
        <ele>72</ele>
        <time>2025-03-26T15:04:24.000Z</time>
      </trkpt>
      <trkpt lat="49.28448" lon="1.10427">
        <ele>71.8</ele>
        <time>2025-03-26T15:04:27.000Z</time>
      </trkpt>
      <trkpt lat="49.28452" lon="1.1044">
        <ele>71.6</ele>
        <time>2025-03-26T15:04:31.000Z</time>
      </trkpt>
      <trkpt lat="49.28461" lon="1.10446">
        <ele>71.6</ele>
        <time>2025-03-26T15:04:34.000Z</time>
      </trkpt>
      <trkpt lat="49.28464" lon="1.10462">
        <ele>71.5</ele>
        <time>2025-03-26T15:04:38.000Z</time>
      </trkpt>
      <trkpt lat="49.28473" lon="1.10469">
        <ele>71.3</ele>
        <time>2025-03-26T15:04:42.000Z</time>
      </trkpt>
      <trkpt lat="49.2848" lon="1.10483">
        <ele>71.2</ele>
        <time>2025-03-26T15:04:46.000Z</time>
      </trkpt>
      <trkpt lat="49.28489" lon="1.10492">
        <ele>71</ele>
        <time>2025-03-26T15:04:50.000Z</time>
      </trkpt>
      <trkpt lat="49.28491" lon="1.10507">
        <ele>70.9</ele>
        <time>2025-03-26T15:04:54.000Z</time>
      </trkpt>
      <trkpt lat="49.28497" lon="1.10518">
        <ele>70.8</ele>
        <time>2025-03-26T15:04:59.000Z</time>
      </trkpt>
      <trkpt lat="49.28503" lon="1.1053">
        <ele>70.8</ele>
        <time>2025-03-26T15:05:05.000Z</time>
      </trkpt>
      <trkpt lat="49.2851" lon="1.1054">
        <ele>70.6</ele>
        <time>2025-03-26T15:05:09.000Z</time>
      </trkpt>
      <trkpt lat="49.28519" lon="1.10552">
        <ele>70.6</ele>
        <time>2025-03-26T15:05:13.000Z</time>
      </trkpt>
      <trkpt lat="49.28528" lon="1.10558">
        <ele>70.6</ele>
        <time>2025-03-26T15:05:17.000Z</time>
      </trkpt>
      <trkpt lat="49.28535" lon="1.10573">
        <ele>70.5</ele>
        <time>2025-03-26T15:05:21.000Z</time>
      </trkpt>
      <trkpt lat="49.28541" lon="1.10587">
        <ele>70.5</ele>
        <time>2025-03-26T15:05:24.000Z</time>
      </trkpt>
      <trkpt lat="49.28541" lon="1.10602">
        <ele>70.4</ele>
        <time>2025-03-26T15:05:27.000Z</time>
      </trkpt>
      <trkpt lat="49.28537" lon="1.10616">
        <ele>70.3</ele>
        <time>2025-03-26T15:05:31.000Z</time>
      </trkpt>
      <trkpt lat="49.28536" lon="1.10632">
        <ele>70.2</ele>
        <time>2025-03-26T15:05:37.000Z</time>
      </trkpt>
      <trkpt lat="49.28544" lon="1.10643">
        <ele>70.2</ele>
        <time>2025-03-26T15:05:40.000Z</time>
      </trkpt>
      <trkpt lat="49.28552" lon="1.10659">
        <ele>70.2</ele>
        <time>2025-03-26T15:05:43.000Z</time>
      </trkpt>
      <trkpt lat="49.28556" lon="1.10676">
        <ele>70.1</ele>
        <time>2025-03-26T15:05:46.000Z</time>
      </trkpt>
      <trkpt lat="49.28556" lon="1.10692">
        <ele>70.1</ele>
        <time>2025-03-26T15:05:50.000Z</time>
      </trkpt>
      <trkpt lat="49.28554" lon="1.1071">
        <ele>70</ele>
        <time>2025-03-26T15:05:55.000Z</time>
      </trkpt>
      <trkpt lat="49.28553" lon="1.10728">
        <ele>70</ele>
        <time>2025-03-26T15:05:58.000Z</time>
      </trkpt>
      <trkpt lat="49.28551" lon="1.10743">
        <ele>70</ele>
        <time>2025-03-26T15:06:01.000Z</time>
      </trkpt>
      <trkpt lat="49.28549" lon="1.10758">
        <ele>70</ele>
        <time>2025-03-26T15:06:05.000Z</time>
      </trkpt>
      <trkpt lat="49.28549" lon="1.10763">
        <ele>70.1</ele>
        <time>2025-03-26T15:06:10.000Z</time>
      </trkpt>
      <trkpt lat="49.28549" lon="1.10763">
        <ele>70.1</ele>
        <time>2025-03-26T15:06:11.000Z</time>
      </trkpt>
      <trkpt lat="49.28549" lon="1.10763">
        <ele>70.1</ele>
        <time>2025-03-26T15:06:12.000Z</time>
      </trkpt>
      <trkpt lat="49.28548" lon="1.10766">
        <ele>70.1</ele>
        <time>2025-03-26T15:06:22.000Z</time>
      </trkpt>
      <trkpt lat="49.28548" lon="1.10769">
        <ele>70.2</ele>
        <time>2025-03-26T15:06:23.000Z</time>
      </trkpt>
      <trkpt lat="49.28548" lon="1.10773">
        <ele>70.2</ele>
        <time>2025-03-26T15:06:24.000Z</time>
      </trkpt>
      <trkpt lat="49.28546" lon="1.10792">
        <ele>70.2</ele>
        <time>2025-03-26T15:06:27.000Z</time>
      </trkpt>
      <trkpt lat="49.28545" lon="1.10807">
        <ele>70.3</ele>
        <time>2025-03-26T15:06:29.000Z</time>
      </trkpt>
      <trkpt lat="49.28543" lon="1.10824">
        <ele>70.3</ele>
        <time>2025-03-26T15:06:31.000Z</time>
      </trkpt>
      <trkpt lat="49.28541" lon="1.10841">
        <ele>70.3</ele>
        <time>2025-03-26T15:06:33.000Z</time>
      </trkpt>
      <trkpt lat="49.28539" lon="1.10859">
        <ele>70.4</ele>
        <time>2025-03-26T15:06:35.000Z</time>
      </trkpt>
      <trkpt lat="49.28538" lon="1.10876">
        <ele>70.4</ele>
        <time>2025-03-26T15:06:37.000Z</time>
      </trkpt>
      <trkpt lat="49.28536" lon="1.10894">
        <ele>70.5</ele>
        <time>2025-03-26T15:06:39.000Z</time>
      </trkpt>
      <trkpt lat="49.28535" lon="1.10908">
        <ele>70.6</ele>
        <time>2025-03-26T15:06:41.000Z</time>
      </trkpt>
      <trkpt lat="49.28534" lon="1.10929">
        <ele>70.8</ele>
        <time>2025-03-26T15:06:44.000Z</time>
      </trkpt>
      <trkpt lat="49.28532" lon="1.10943">
        <ele>70.9</ele>
        <time>2025-03-26T15:06:46.000Z</time>
      </trkpt>
      <trkpt lat="49.2853" lon="1.10958">
        <ele>71.1</ele>
        <time>2025-03-26T15:06:48.000Z</time>
      </trkpt>
      <trkpt lat="49.28529" lon="1.10975">
        <ele>71.4</ele>
        <time>2025-03-26T15:06:50.000Z</time>
      </trkpt>
      <trkpt lat="49.28527" lon="1.10992">
        <ele>71.6</ele>
        <time>2025-03-26T15:06:52.000Z</time>
      </trkpt>
      <trkpt lat="49.28526" lon="1.11011">
        <ele>71.7</ele>
        <time>2025-03-26T15:06:54.000Z</time>
      </trkpt>
      <trkpt lat="49.28523" lon="1.11029">
        <ele>72</ele>
        <time>2025-03-26T15:06:56.000Z</time>
      </trkpt>
      <trkpt lat="49.28522" lon="1.11047">
        <ele>72.1</ele>
        <time>2025-03-26T15:06:58.000Z</time>
      </trkpt>
      <trkpt lat="49.28517" lon="1.11059">
        <ele>72.3</ele>
        <time>2025-03-26T15:07:02.000Z</time>
      </trkpt>
      <trkpt lat="49.28507" lon="1.11057">
        <ele>72.6</ele>
        <time>2025-03-26T15:07:06.000Z</time>
      </trkpt>
      <trkpt lat="49.28496" lon="1.11055">
        <ele>72.8</ele>
        <time>2025-03-26T15:07:09.000Z</time>
      </trkpt>
      <trkpt lat="49.28483" lon="1.11053">
        <ele>72.8</ele>
        <time>2025-03-26T15:07:12.000Z</time>
      </trkpt>
      <trkpt lat="49.28473" lon="1.11052">
        <ele>73</ele>
        <time>2025-03-26T15:07:14.000Z</time>
      </trkpt>
      <trkpt lat="49.28461" lon="1.11051">
        <ele>73.3</ele>
        <time>2025-03-26T15:07:16.000Z</time>
      </trkpt>
      <trkpt lat="49.28452" lon="1.11051">
        <ele>73.7</ele>
        <time>2025-03-26T15:07:18.000Z</time>
      </trkpt>
      <trkpt lat="49.28442" lon="1.11049">
        <ele>74.4</ele>
        <time>2025-03-26T15:07:20.000Z</time>
      </trkpt>
      <trkpt lat="49.28433" lon="1.11046">
        <ele>75</ele>
        <time>2025-03-26T15:07:22.000Z</time>
      </trkpt>
      <trkpt lat="49.28424" lon="1.11046">
        <ele>75.6</ele>
        <time>2025-03-26T15:07:24.000Z</time>
      </trkpt>
      <trkpt lat="49.28415" lon="1.11046">
        <ele>76.2</ele>
        <time>2025-03-26T15:07:26.000Z</time>
      </trkpt>
      <trkpt lat="49.28404" lon="1.11055">
        <ele>77</ele>
        <time>2025-03-26T15:07:29.000Z</time>
      </trkpt>
      <trkpt lat="49.284" lon="1.1107">
        <ele>77.6</ele>
        <time>2025-03-26T15:07:31.000Z</time>
      </trkpt>
      <trkpt lat="49.28398" lon="1.11087">
        <ele>77.8</ele>
        <time>2025-03-26T15:07:33.000Z</time>
      </trkpt>
      <trkpt lat="49.28395" lon="1.11102">
        <ele>78.1</ele>
        <time>2025-03-26T15:07:35.000Z</time>
      </trkpt>
      <trkpt lat="49.28392" lon="1.11116">
        <ele>78.5</ele>
        <time>2025-03-26T15:07:37.000Z</time>
      </trkpt>
      <trkpt lat="49.28388" lon="1.11135">
        <ele>79.1</ele>
        <time>2025-03-26T15:07:40.000Z</time>
      </trkpt>
      <trkpt lat="49.28385" lon="1.11151">
        <ele>79.5</ele>
        <time>2025-03-26T15:07:43.000Z</time>
      </trkpt>
      <trkpt lat="49.28383" lon="1.11169">
        <ele>79.9</ele>
        <time>2025-03-26T15:07:46.000Z</time>
      </trkpt>
      <trkpt lat="49.28381" lon="1.11191">
        <ele>80</ele>
        <time>2025-03-26T15:07:49.000Z</time>
      </trkpt>
      <trkpt lat="49.28379" lon="1.11208">
        <ele>80.2</ele>
        <time>2025-03-26T15:07:51.000Z</time>
      </trkpt>
      <trkpt lat="49.2838" lon="1.11224">
        <ele>80.2</ele>
        <time>2025-03-26T15:07:53.000Z</time>
      </trkpt>
      <trkpt lat="49.2838" lon="1.11241">
        <ele>80.2</ele>
        <time>2025-03-26T15:07:55.000Z</time>
      </trkpt>
      <trkpt lat="49.28379" lon="1.11259">
        <ele>80.1</ele>
        <time>2025-03-26T15:07:57.000Z</time>
      </trkpt>
      <trkpt lat="49.28377" lon="1.11276">
        <ele>79.7</ele>
        <time>2025-03-26T15:07:59.000Z</time>
      </trkpt>
      <trkpt lat="49.28373" lon="1.11289">
        <ele>79.5</ele>
        <time>2025-03-26T15:08:01.000Z</time>
      </trkpt>
      <trkpt lat="49.28365" lon="1.11298">
        <ele>78.9</ele>
        <time>2025-03-26T15:08:04.000Z</time>
      </trkpt>
      <trkpt lat="49.28357" lon="1.11307">
        <ele>78.6</ele>
        <time>2025-03-26T15:08:07.000Z</time>
      </trkpt>
      <trkpt lat="49.28346" lon="1.11319">
        <ele>78.5</ele>
        <time>2025-03-26T15:08:10.000Z</time>
      </trkpt>
      <trkpt lat="49.28339" lon="1.11328">
        <ele>78.7</ele>
        <time>2025-03-26T15:08:12.000Z</time>
      </trkpt>
      <trkpt lat="49.28329" lon="1.11341">
        <ele>79.1</ele>
        <time>2025-03-26T15:08:15.000Z</time>
      </trkpt>
      <trkpt lat="49.28322" lon="1.11351">
        <ele>79.6</ele>
        <time>2025-03-26T15:08:17.000Z</time>
      </trkpt>
      <trkpt lat="49.28318" lon="1.11363">
        <ele>80.1</ele>
        <time>2025-03-26T15:08:19.000Z</time>
      </trkpt>
      <trkpt lat="49.28317" lon="1.11378">
        <ele>80.9</ele>
        <time>2025-03-26T15:08:21.000Z</time>
      </trkpt>
      <trkpt lat="49.28315" lon="1.11395">
        <ele>82.3</ele>
        <time>2025-03-26T15:08:24.000Z</time>
      </trkpt>
      <trkpt lat="49.28313" lon="1.11411">
        <ele>83.1</ele>
        <time>2025-03-26T15:08:28.000Z</time>
      </trkpt>
      <trkpt lat="49.28313" lon="1.11429">
        <ele>83.5</ele>
        <time>2025-03-26T15:08:32.000Z</time>
      </trkpt>
      <trkpt lat="49.28312" lon="1.11446">
        <ele>83.5</ele>
        <time>2025-03-26T15:08:36.000Z</time>
      </trkpt>
      <trkpt lat="49.2831" lon="1.11461">
        <ele>83.5</ele>
        <time>2025-03-26T15:08:39.000Z</time>
      </trkpt>
      <trkpt lat="49.2831" lon="1.11479">
        <ele>83.2</ele>
        <time>2025-03-26T15:08:43.000Z</time>
      </trkpt>
      <trkpt lat="49.2831" lon="1.11496">
        <ele>83</ele>
        <time>2025-03-26T15:08:46.000Z</time>
      </trkpt>
      <trkpt lat="49.28312" lon="1.1151">
        <ele>82.9</ele>
        <time>2025-03-26T15:08:48.000Z</time>
      </trkpt>
      <trkpt lat="49.28313" lon="1.11524">
        <ele>82.7</ele>
        <time>2025-03-26T15:08:50.000Z</time>
      </trkpt>
      <trkpt lat="49.28312" lon="1.11539">
        <ele>82.6</ele>
        <time>2025-03-26T15:08:52.000Z</time>
      </trkpt>
      <trkpt lat="49.28309" lon="1.11558">
        <ele>82.4</ele>
        <time>2025-03-26T15:08:55.000Z</time>
      </trkpt>
      <trkpt lat="49.28307" lon="1.11578">
        <ele>82.3</ele>
        <time>2025-03-26T15:08:58.000Z</time>
      </trkpt>
      <trkpt lat="49.28306" lon="1.11592">
        <ele>82.2</ele>
        <time>2025-03-26T15:09:00.000Z</time>
      </trkpt>
      <trkpt lat="49.28306" lon="1.11608">
        <ele>82.1</ele>
        <time>2025-03-26T15:09:02.000Z</time>
      </trkpt>
      <trkpt lat="49.28306" lon="1.11624">
        <ele>81.6</ele>
        <time>2025-03-26T15:09:06.000Z</time>
      </trkpt>
      <trkpt lat="49.28308" lon="1.1164">
        <ele>81.1</ele>
        <time>2025-03-26T15:09:12.000Z</time>
      </trkpt>
      <trkpt lat="49.28309" lon="1.11656">
        <ele>80.7</ele>
        <time>2025-03-26T15:09:16.000Z</time>
      </trkpt>
      <trkpt lat="49.28313" lon="1.11672">
        <ele>80.3</ele>
        <time>2025-03-26T15:09:20.000Z</time>
      </trkpt>
      <trkpt lat="49.28318" lon="1.11687">
        <ele>79.9</ele>
        <time>2025-03-26T15:09:23.000Z</time>
      </trkpt>
      <trkpt lat="49.28322" lon="1.11703">
        <ele>79.4</ele>
        <time>2025-03-26T15:09:26.000Z</time>
      </trkpt>
      <trkpt lat="49.28324" lon="1.11722">
        <ele>78.9</ele>
        <time>2025-03-26T15:09:30.000Z</time>
      </trkpt>
      <trkpt lat="49.28327" lon="1.11738">
        <ele>78.5</ele>
        <time>2025-03-26T15:09:33.000Z</time>
      </trkpt>
      <trkpt lat="49.28332" lon="1.11756">
        <ele>78</ele>
        <time>2025-03-26T15:09:36.000Z</time>
      </trkpt>
      <trkpt lat="49.28335" lon="1.11775">
        <ele>77.4</ele>
        <time>2025-03-26T15:09:39.000Z</time>
      </trkpt>
      <trkpt lat="49.28337" lon="1.11793">
        <ele>77</ele>
        <time>2025-03-26T15:09:42.000Z</time>
      </trkpt>
      <trkpt lat="49.2834" lon="1.11812">
        <ele>76.5</ele>
        <time>2025-03-26T15:09:45.000Z</time>
      </trkpt>
      <trkpt lat="49.28344" lon="1.1183">
        <ele>76.3</ele>
        <time>2025-03-26T15:09:48.000Z</time>
      </trkpt>
      <trkpt lat="49.28345" lon="1.11847">
        <ele>75.8</ele>
        <time>2025-03-26T15:09:51.000Z</time>
      </trkpt>
      <trkpt lat="49.28349" lon="1.11861">
        <ele>75.2</ele>
        <time>2025-03-26T15:09:54.000Z</time>
      </trkpt>
      <trkpt lat="49.28352" lon="1.11879">
        <ele>74.7</ele>
        <time>2025-03-26T15:09:57.000Z</time>
      </trkpt>
      <trkpt lat="49.28355" lon="1.11895">
        <ele>74.1</ele>
        <time>2025-03-26T15:10:01.000Z</time>
      </trkpt>
      <trkpt lat="49.28357" lon="1.1191">
        <ele>73.3</ele>
        <time>2025-03-26T15:10:05.000Z</time>
      </trkpt>
      <trkpt lat="49.28354" lon="1.11924">
        <ele>72.5</ele>
        <time>2025-03-26T15:10:09.000Z</time>
      </trkpt>
      <trkpt lat="49.28347" lon="1.11935">
        <ele>72.1</ele>
        <time>2025-03-26T15:10:13.000Z</time>
      </trkpt>
      <trkpt lat="49.28337" lon="1.11944">
        <ele>71.9</ele>
        <time>2025-03-26T15:10:17.000Z</time>
      </trkpt>
      <trkpt lat="49.28327" lon="1.11943">
        <ele>71.9</ele>
        <time>2025-03-26T15:10:20.000Z</time>
      </trkpt>
      <trkpt lat="49.28317" lon="1.11943">
        <ele>72.1</ele>
        <time>2025-03-26T15:10:23.000Z</time>
      </trkpt>
      <trkpt lat="49.28308" lon="1.11949">
        <ele>72.2</ele>
        <time>2025-03-26T15:10:26.000Z</time>
      </trkpt>
      <trkpt lat="49.28304" lon="1.11963">
        <ele>72.2</ele>
        <time>2025-03-26T15:10:31.000Z</time>
      </trkpt>
      <trkpt lat="49.28305" lon="1.11973">
        <ele>71.9</ele>
        <time>2025-03-26T15:10:48.000Z</time>
      </trkpt>
      <trkpt lat="49.28305" lon="1.11972">
        <ele>71.9</ele>
        <time>2025-03-26T15:10:49.000Z</time>
      </trkpt>
      <trkpt lat="49.28304" lon="1.11972">
        <ele>71.9</ele>
        <time>2025-03-26T15:10:50.000Z</time>
      </trkpt>
      <trkpt lat="49.28304" lon="1.11971">
        <ele>71.9</ele>
        <time>2025-03-26T15:10:51.000Z</time>
      </trkpt>
      <trkpt lat="49.28295" lon="1.11969">
        <ele>71.8</ele>
        <time>2025-03-26T15:10:56.000Z</time>
      </trkpt>
      <trkpt lat="49.28289" lon="1.11985">
        <ele>71.8</ele>
        <time>2025-03-26T15:11:00.000Z</time>
      </trkpt>
      <trkpt lat="49.28285" lon="1.11998">
        <ele>71.7</ele>
        <time>2025-03-26T15:11:03.000Z</time>
      </trkpt>
      <trkpt lat="49.28281" lon="1.12016">
        <ele>71.8</ele>
        <time>2025-03-26T15:11:06.000Z</time>
      </trkpt>
      <trkpt lat="49.28279" lon="1.12034">
        <ele>71.8</ele>
        <time>2025-03-26T15:11:09.000Z</time>
      </trkpt>
      <trkpt lat="49.28278" lon="1.12051">
        <ele>72.1</ele>
        <time>2025-03-26T15:11:13.000Z</time>
      </trkpt>
      <trkpt lat="49.28278" lon="1.12069">
        <ele>72.8</ele>
        <time>2025-03-26T15:11:18.000Z</time>
      </trkpt>
      <trkpt lat="49.28276" lon="1.12085">
        <ele>73.6</ele>
        <time>2025-03-26T15:11:21.000Z</time>
      </trkpt>
      <trkpt lat="49.28272" lon="1.121">
        <ele>74.6</ele>
        <time>2025-03-26T15:11:24.000Z</time>
      </trkpt>
      <trkpt lat="49.28269" lon="1.12118">
        <ele>75.8</ele>
        <time>2025-03-26T15:11:27.000Z</time>
      </trkpt>
      <trkpt lat="49.2827" lon="1.12136">
        <ele>76.7</ele>
        <time>2025-03-26T15:11:30.000Z</time>
      </trkpt>
      <trkpt lat="49.28268" lon="1.12154">
        <ele>77.8</ele>
        <time>2025-03-26T15:11:33.000Z</time>
      </trkpt>
      <trkpt lat="49.28268" lon="1.12171">
        <ele>78.8</ele>
        <time>2025-03-26T15:11:36.000Z</time>
      </trkpt>
      <trkpt lat="49.28267" lon="1.12185">
        <ele>79.5</ele>
        <time>2025-03-26T15:11:39.000Z</time>
      </trkpt>
      <trkpt lat="49.28264" lon="1.122">
        <ele>79.9</ele>
        <time>2025-03-26T15:11:42.000Z</time>
      </trkpt>
      <trkpt lat="49.28264" lon="1.12219">
        <ele>80.2</ele>
        <time>2025-03-26T15:11:45.000Z</time>
      </trkpt>
      <trkpt lat="49.28263" lon="1.12236">
        <ele>80.5</ele>
        <time>2025-03-26T15:11:48.000Z</time>
      </trkpt>
      <trkpt lat="49.28261" lon="1.12253">
        <ele>80.8</ele>
        <time>2025-03-26T15:11:52.000Z</time>
      </trkpt>
      <trkpt lat="49.28259" lon="1.12269">
        <ele>80.9</ele>
        <time>2025-03-26T15:11:55.000Z</time>
      </trkpt>
      <trkpt lat="49.28257" lon="1.12285">
        <ele>81</ele>
        <time>2025-03-26T15:11:58.000Z</time>
      </trkpt>
      <trkpt lat="49.28256" lon="1.12299">
        <ele>81</ele>
        <time>2025-03-26T15:12:01.000Z</time>
      </trkpt>
      <trkpt lat="49.28254" lon="1.12314">
        <ele>81.1</ele>
        <time>2025-03-26T15:12:04.000Z</time>
      </trkpt>
      <trkpt lat="49.28251" lon="1.1233">
        <ele>81.2</ele>
        <time>2025-03-26T15:12:07.000Z</time>
      </trkpt>
      <trkpt lat="49.2825" lon="1.12348">
        <ele>81.4</ele>
        <time>2025-03-26T15:12:10.000Z</time>
      </trkpt>
      <trkpt lat="49.28248" lon="1.12367">
        <ele>81.6</ele>
        <time>2025-03-26T15:12:13.000Z</time>
      </trkpt>
      <trkpt lat="49.28248" lon="1.12372">
        <ele>82</ele>
        <time>2025-03-26T15:12:18.000Z</time>
      </trkpt>
      <trkpt lat="49.28248" lon="1.12372">
        <ele>82.1</ele>
        <time>2025-03-26T15:12:19.000Z</time>
      </trkpt>
      <trkpt lat="49.28249" lon="1.12374">
        <ele>82.2</ele>
        <time>2025-03-26T15:12:22.000Z</time>
      </trkpt>
      <trkpt lat="49.28249" lon="1.12375">
        <ele>82.3</ele>
        <time>2025-03-26T15:12:23.000Z</time>
      </trkpt>
      <trkpt lat="49.2825" lon="1.12376">
        <ele>82.3</ele>
        <time>2025-03-26T15:12:24.000Z</time>
      </trkpt>
      <trkpt lat="49.28258" lon="1.12383">
        <ele>82.6</ele>
        <time>2025-03-26T15:12:30.000Z</time>
      </trkpt>
      <trkpt lat="49.28267" lon="1.12391">
        <ele>82.7</ele>
        <time>2025-03-26T15:12:35.000Z</time>
      </trkpt>
      <trkpt lat="49.28273" lon="1.12402">
        <ele>82.6</ele>
        <time>2025-03-26T15:12:39.000Z</time>
      </trkpt>
      <trkpt lat="49.28281" lon="1.12413">
        <ele>82.6</ele>
        <time>2025-03-26T15:12:44.000Z</time>
      </trkpt>
      <trkpt lat="49.28288" lon="1.12421">
        <ele>82.5</ele>
        <time>2025-03-26T15:12:48.000Z</time>
      </trkpt>
      <trkpt lat="49.28297" lon="1.12429">
        <ele>82.4</ele>
        <time>2025-03-26T15:12:53.000Z</time>
      </trkpt>
      <trkpt lat="49.28308" lon="1.1243">
        <ele>82.2</ele>
        <time>2025-03-26T15:12:58.000Z</time>
      </trkpt>
      <trkpt lat="49.28319" lon="1.1243">
        <ele>81.9</ele>
        <time>2025-03-26T15:13:02.000Z</time>
      </trkpt>
      <trkpt lat="49.2833" lon="1.12426">
        <ele>81.6</ele>
        <time>2025-03-26T15:13:06.000Z</time>
      </trkpt>
      <trkpt lat="49.28341" lon="1.12422">
        <ele>81.1</ele>
        <time>2025-03-26T15:13:10.000Z</time>
      </trkpt>
      <trkpt lat="49.28352" lon="1.12416">
        <ele>80.3</ele>
        <time>2025-03-26T15:13:15.000Z</time>
      </trkpt>
      <trkpt lat="49.28361" lon="1.12412">
        <ele>79.8</ele>
        <time>2025-03-26T15:13:18.000Z</time>
      </trkpt>
      <trkpt lat="49.28371" lon="1.12408">
        <ele>79.4</ele>
        <time>2025-03-26T15:13:21.000Z</time>
      </trkpt>
      <trkpt lat="49.28381" lon="1.12406">
        <ele>79</ele>
        <time>2025-03-26T15:13:24.000Z</time>
      </trkpt>
      <trkpt lat="49.28392" lon="1.12401">
        <ele>78.5</ele>
        <time>2025-03-26T15:13:28.000Z</time>
      </trkpt>
      <trkpt lat="49.28403" lon="1.12402">
        <ele>77.8</ele>
        <time>2025-03-26T15:13:32.000Z</time>
      </trkpt>
      <trkpt lat="49.28407" lon="1.12416">
        <ele>77.3</ele>
        <time>2025-03-26T15:13:37.000Z</time>
      </trkpt>
      <trkpt lat="49.28406" lon="1.12432">
        <ele>77.1</ele>
        <time>2025-03-26T15:13:41.000Z</time>
      </trkpt>
      <trkpt lat="49.28404" lon="1.12446">
        <ele>77</ele>
        <time>2025-03-26T15:13:46.000Z</time>
      </trkpt>
      <trkpt lat="49.28404" lon="1.1246">
        <ele>76.9</ele>
        <time>2025-03-26T15:13:49.000Z</time>
      </trkpt>
      <trkpt lat="49.28405" lon="1.1248">
        <ele>76.9</ele>
        <time>2025-03-26T15:13:52.000Z</time>
      </trkpt>
      <trkpt lat="49.28406" lon="1.12495">
        <ele>76.9</ele>
        <time>2025-03-26T15:13:54.000Z</time>
      </trkpt>
      <trkpt lat="49.28409" lon="1.12509">
        <ele>76.9</ele>
        <time>2025-03-26T15:13:56.000Z</time>
      </trkpt>
      <trkpt lat="49.28411" lon="1.12523">
        <ele>76.9</ele>
        <time>2025-03-26T15:13:58.000Z</time>
      </trkpt>
      <trkpt lat="49.28413" lon="1.12537">
        <ele>77</ele>
        <time>2025-03-26T15:14:00.000Z</time>
      </trkpt>
      <trkpt lat="49.28417" lon="1.12553">
        <ele>77</ele>
        <time>2025-03-26T15:14:02.000Z</time>
      </trkpt>
      <trkpt lat="49.28421" lon="1.1257">
        <ele>76.9</ele>
        <time>2025-03-26T15:14:04.000Z</time>
      </trkpt>
      <trkpt lat="49.28424" lon="1.12587">
        <ele>76.9</ele>
        <time>2025-03-26T15:14:06.000Z</time>
      </trkpt>
      <trkpt lat="49.28427" lon="1.12603">
        <ele>76.9</ele>
        <time>2025-03-26T15:14:08.000Z</time>
      </trkpt>
      <trkpt lat="49.28428" lon="1.12617">
        <ele>76.9</ele>
        <time>2025-03-26T15:14:10.000Z</time>
      </trkpt>
      <trkpt lat="49.28432" lon="1.12637">
        <ele>76.9</ele>
        <time>2025-03-26T15:14:13.000Z</time>
      </trkpt>
      <trkpt lat="49.28437" lon="1.12652">
        <ele>76.8</ele>
        <time>2025-03-26T15:14:15.000Z</time>
      </trkpt>
      <trkpt lat="49.28438" lon="1.12666">
        <ele>76.8</ele>
        <time>2025-03-26T15:14:17.000Z</time>
      </trkpt>
      <trkpt lat="49.28442" lon="1.1268">
        <ele>76.8</ele>
        <time>2025-03-26T15:14:20.000Z</time>
      </trkpt>
      <trkpt lat="49.28445" lon="1.12697">
        <ele>76.7</ele>
        <time>2025-03-26T15:14:23.000Z</time>
      </trkpt>
      <trkpt lat="49.28448" lon="1.1271">
        <ele>76.7</ele>
        <time>2025-03-26T15:14:26.000Z</time>
      </trkpt>
      <trkpt lat="49.28457" lon="1.12723">
        <ele>76.7</ele>
        <time>2025-03-26T15:14:30.000Z</time>
      </trkpt>
      <trkpt lat="49.28469" lon="1.12728">
        <ele>76.6</ele>
        <time>2025-03-26T15:14:33.000Z</time>
      </trkpt>
      <trkpt lat="49.2848" lon="1.12721">
        <ele>76.5</ele>
        <time>2025-03-26T15:14:36.000Z</time>
      </trkpt>
      <trkpt lat="49.28491" lon="1.12711">
        <ele>76.4</ele>
        <time>2025-03-26T15:14:39.000Z</time>
      </trkpt>
      <trkpt lat="49.28502" lon="1.12701">
        <ele>76.2</ele>
        <time>2025-03-26T15:14:42.000Z</time>
      </trkpt>
      <trkpt lat="49.28514" lon="1.12692">
        <ele>75.9</ele>
        <time>2025-03-26T15:14:45.000Z</time>
      </trkpt>
      <trkpt lat="49.28526" lon="1.12683">
        <ele>75.5</ele>
        <time>2025-03-26T15:14:48.000Z</time>
      </trkpt>
      <trkpt lat="49.28535" lon="1.12678">
        <ele>75.2</ele>
        <time>2025-03-26T15:14:50.000Z</time>
      </trkpt>
      <trkpt lat="49.28544" lon="1.12674">
        <ele>74.9</ele>
        <time>2025-03-26T15:14:52.000Z</time>
      </trkpt>
      <trkpt lat="49.28553" lon="1.1267">
        <ele>74.4</ele>
        <time>2025-03-26T15:14:54.000Z</time>
      </trkpt>
      <trkpt lat="49.28562" lon="1.12665">
        <ele>74</ele>
        <time>2025-03-26T15:14:56.000Z</time>
      </trkpt>
      <trkpt lat="49.28571" lon="1.12661">
        <ele>73.5</ele>
        <time>2025-03-26T15:14:58.000Z</time>
      </trkpt>
      <trkpt lat="49.2858" lon="1.12655">
        <ele>73</ele>
        <time>2025-03-26T15:15:00.000Z</time>
      </trkpt>
      <trkpt lat="49.28589" lon="1.12651">
        <ele>72.5</ele>
        <time>2025-03-26T15:15:02.000Z</time>
      </trkpt>
      <trkpt lat="49.28599" lon="1.12647">
        <ele>72.1</ele>
        <time>2025-03-26T15:15:04.000Z</time>
      </trkpt>
      <trkpt lat="49.28607" lon="1.12642">
        <ele>71.8</ele>
        <time>2025-03-26T15:15:06.000Z</time>
      </trkpt>
      <trkpt lat="49.28616" lon="1.12638">
        <ele>71.6</ele>
        <time>2025-03-26T15:15:08.000Z</time>
      </trkpt>
      <trkpt lat="49.28628" lon="1.12632">
        <ele>71.1</ele>
        <time>2025-03-26T15:15:11.000Z</time>
      </trkpt>
      <trkpt lat="49.28639" lon="1.12626">
        <ele>70.8</ele>
        <time>2025-03-26T15:15:14.000Z</time>
      </trkpt>
      <trkpt lat="49.28652" lon="1.1262">
        <ele>70.6</ele>
        <time>2025-03-26T15:15:17.000Z</time>
      </trkpt>
      <trkpt lat="49.28662" lon="1.12615">
        <ele>70.5</ele>
        <time>2025-03-26T15:15:19.000Z</time>
      </trkpt>
      <trkpt lat="49.28671" lon="1.12611">
        <ele>70.4</ele>
        <time>2025-03-26T15:15:21.000Z</time>
      </trkpt>
      <trkpt lat="49.28683" lon="1.12606">
        <ele>70.2</ele>
        <time>2025-03-26T15:15:24.000Z</time>
      </trkpt>
      <trkpt lat="49.28694" lon="1.126">
        <ele>70.1</ele>
        <time>2025-03-26T15:15:27.000Z</time>
      </trkpt>
      <trkpt lat="49.28705" lon="1.12595">
        <ele>70.1</ele>
        <time>2025-03-26T15:15:30.000Z</time>
      </trkpt>
      <trkpt lat="49.28717" lon="1.12589">
        <ele>70.1</ele>
        <time>2025-03-26T15:15:33.000Z</time>
      </trkpt>
      <trkpt lat="49.28726" lon="1.12584">
        <ele>70</ele>
        <time>2025-03-26T15:15:35.000Z</time>
      </trkpt>
      <trkpt lat="49.28736" lon="1.12579">
        <ele>70</ele>
        <time>2025-03-26T15:15:37.000Z</time>
      </trkpt>
      <trkpt lat="49.28746" lon="1.12575">
        <ele>70</ele>
        <time>2025-03-26T15:15:39.000Z</time>
      </trkpt>
      <trkpt lat="49.28756" lon="1.1257">
        <ele>70</ele>
        <time>2025-03-26T15:15:41.000Z</time>
      </trkpt>
      <trkpt lat="49.28767" lon="1.12566">
        <ele>70</ele>
        <time>2025-03-26T15:15:43.000Z</time>
      </trkpt>
      <trkpt lat="49.28778" lon="1.12564">
        <ele>70</ele>
        <time>2025-03-26T15:15:45.000Z</time>
      </trkpt>
      <trkpt lat="49.2879" lon="1.12566">
        <ele>70.1</ele>
        <time>2025-03-26T15:15:47.000Z</time>
      </trkpt>
      <trkpt lat="49.28801" lon="1.12573">
        <ele>70.1</ele>
        <time>2025-03-26T15:15:49.000Z</time>
      </trkpt>
      <trkpt lat="49.28811" lon="1.12583">
        <ele>70.1</ele>
        <time>2025-03-26T15:15:51.000Z</time>
      </trkpt>
      <trkpt lat="49.28821" lon="1.12594">
        <ele>70.1</ele>
        <time>2025-03-26T15:15:53.000Z</time>
      </trkpt>
      <trkpt lat="49.2883" lon="1.12605">
        <ele>70.2</ele>
        <time>2025-03-26T15:15:55.000Z</time>
      </trkpt>
      <trkpt lat="49.2884" lon="1.12617">
        <ele>70.2</ele>
        <time>2025-03-26T15:15:57.000Z</time>
      </trkpt>
      <trkpt lat="49.2885" lon="1.12629">
        <ele>70.3</ele>
        <time>2025-03-26T15:15:59.000Z</time>
      </trkpt>
      <trkpt lat="49.2886" lon="1.12641">
        <ele>70.3</ele>
        <time>2025-03-26T15:16:01.000Z</time>
      </trkpt>
      <trkpt lat="49.2887" lon="1.12652">
        <ele>70.4</ele>
        <time>2025-03-26T15:16:03.000Z</time>
      </trkpt>
      <trkpt lat="49.2888" lon="1.12662">
        <ele>70.5</ele>
        <time>2025-03-26T15:16:05.000Z</time>
      </trkpt>
      <trkpt lat="49.28888" lon="1.12672">
        <ele>70.6</ele>
        <time>2025-03-26T15:16:07.000Z</time>
      </trkpt>
      <trkpt lat="49.28896" lon="1.12681">
        <ele>70.7</ele>
        <time>2025-03-26T15:16:09.000Z</time>
      </trkpt>
      <trkpt lat="49.28904" lon="1.1269">
        <ele>70.7</ele>
        <time>2025-03-26T15:16:11.000Z</time>
      </trkpt>
      <trkpt lat="49.28913" lon="1.12701">
        <ele>70.8</ele>
        <time>2025-03-26T15:16:14.000Z</time>
      </trkpt>
      <trkpt lat="49.28922" lon="1.12712">
        <ele>70.8</ele>
        <time>2025-03-26T15:16:17.000Z</time>
      </trkpt>
      <trkpt lat="49.28929" lon="1.1272">
        <ele>70.8</ele>
        <time>2025-03-26T15:16:19.000Z</time>
      </trkpt>
      <trkpt lat="49.28938" lon="1.12729">
        <ele>70.8</ele>
        <time>2025-03-26T15:16:21.000Z</time>
      </trkpt>
      <trkpt lat="49.28946" lon="1.12739">
        <ele>70.9</ele>
        <time>2025-03-26T15:16:23.000Z</time>
      </trkpt>
      <trkpt lat="49.28955" lon="1.1275">
        <ele>70.9</ele>
        <time>2025-03-26T15:16:25.000Z</time>
      </trkpt>
      <trkpt lat="49.28964" lon="1.12762">
        <ele>70.9</ele>
        <time>2025-03-26T15:16:27.000Z</time>
      </trkpt>
      <trkpt lat="49.28974" lon="1.12774">
        <ele>71</ele>
        <time>2025-03-26T15:16:29.000Z</time>
      </trkpt>
      <trkpt lat="49.28983" lon="1.12786">
        <ele>70.9</ele>
        <time>2025-03-26T15:16:31.000Z</time>
      </trkpt>
      <trkpt lat="49.28993" lon="1.12798">
        <ele>70.9</ele>
        <time>2025-03-26T15:16:33.000Z</time>
      </trkpt>
      <trkpt lat="49.29003" lon="1.1281">
        <ele>70.9</ele>
        <time>2025-03-26T15:16:35.000Z</time>
      </trkpt>
      <trkpt lat="49.29013" lon="1.12822">
        <ele>70.9</ele>
        <time>2025-03-26T15:16:37.000Z</time>
      </trkpt>
      <trkpt lat="49.29022" lon="1.12834">
        <ele>70.9</ele>
        <time>2025-03-26T15:16:39.000Z</time>
      </trkpt>
      <trkpt lat="49.29032" lon="1.12846">
        <ele>70.9</ele>
        <time>2025-03-26T15:16:41.000Z</time>
      </trkpt>
      <trkpt lat="49.29041" lon="1.12857">
        <ele>70.9</ele>
        <time>2025-03-26T15:16:43.000Z</time>
      </trkpt>
      <trkpt lat="49.2905" lon="1.12867">
        <ele>70.8</ele>
        <time>2025-03-26T15:16:45.000Z</time>
      </trkpt>
      <trkpt lat="49.29058" lon="1.12877">
        <ele>70.8</ele>
        <time>2025-03-26T15:16:47.000Z</time>
      </trkpt>
      <trkpt lat="49.29066" lon="1.12887">
        <ele>70.6</ele>
        <time>2025-03-26T15:16:49.000Z</time>
      </trkpt>
      <trkpt lat="49.29074" lon="1.12895">
        <ele>70.5</ele>
        <time>2025-03-26T15:16:51.000Z</time>
      </trkpt>
      <trkpt lat="49.29082" lon="1.12904">
        <ele>70.3</ele>
        <time>2025-03-26T15:16:53.000Z</time>
      </trkpt>
      <trkpt lat="49.29089" lon="1.12912">
        <ele>70</ele>
        <time>2025-03-26T15:16:55.000Z</time>
      </trkpt>
      <trkpt lat="49.29099" lon="1.12925">
        <ele>69.7</ele>
        <time>2025-03-26T15:16:58.000Z</time>
      </trkpt>
      <trkpt lat="49.29109" lon="1.12937">
        <ele>69.4</ele>
        <time>2025-03-26T15:17:01.000Z</time>
      </trkpt>
      <trkpt lat="49.29117" lon="1.12947">
        <ele>69.2</ele>
        <time>2025-03-26T15:17:03.000Z</time>
      </trkpt>
      <trkpt lat="49.29126" lon="1.12957">
        <ele>68.9</ele>
        <time>2025-03-26T15:17:05.000Z</time>
      </trkpt>
      <trkpt lat="49.29135" lon="1.12968">
        <ele>68.7</ele>
        <time>2025-03-26T15:17:07.000Z</time>
      </trkpt>
      <trkpt lat="49.29144" lon="1.1298">
        <ele>68.4</ele>
        <time>2025-03-26T15:17:09.000Z</time>
      </trkpt>
      <trkpt lat="49.29154" lon="1.12991">
        <ele>68.3</ele>
        <time>2025-03-26T15:17:11.000Z</time>
      </trkpt>
      <trkpt lat="49.29163" lon="1.13002">
        <ele>68.1</ele>
        <time>2025-03-26T15:17:13.000Z</time>
      </trkpt>
      <trkpt lat="49.29172" lon="1.13013">
        <ele>67.6</ele>
        <time>2025-03-26T15:17:15.000Z</time>
      </trkpt>
      <trkpt lat="49.2918" lon="1.13023">
        <ele>67.4</ele>
        <time>2025-03-26T15:17:17.000Z</time>
      </trkpt>
      <trkpt lat="49.29188" lon="1.13033">
        <ele>67.2</ele>
        <time>2025-03-26T15:17:19.000Z</time>
      </trkpt>
      <trkpt lat="49.29195" lon="1.13042">
        <ele>66.9</ele>
        <time>2025-03-26T15:17:21.000Z</time>
      </trkpt>
      <trkpt lat="49.29203" lon="1.13051">
        <ele>66.8</ele>
        <time>2025-03-26T15:17:23.000Z</time>
      </trkpt>
      <trkpt lat="49.2921" lon="1.13059">
        <ele>66.6</ele>
        <time>2025-03-26T15:17:25.000Z</time>
      </trkpt>
      <trkpt lat="49.2922" lon="1.13072">
        <ele>66.5</ele>
        <time>2025-03-26T15:17:28.000Z</time>
      </trkpt>
      <trkpt lat="49.2923" lon="1.13083">
        <ele>66.3</ele>
        <time>2025-03-26T15:17:31.000Z</time>
      </trkpt>
      <trkpt lat="49.29239" lon="1.13093">
        <ele>66.1</ele>
        <time>2025-03-26T15:17:34.000Z</time>
      </trkpt>
      <trkpt lat="49.2925" lon="1.1309">
        <ele>65.8</ele>
        <time>2025-03-26T15:17:37.000Z</time>
      </trkpt>
      <trkpt lat="49.29256" lon="1.13075">
        <ele>65.6</ele>
        <time>2025-03-26T15:17:40.000Z</time>
      </trkpt>
      <trkpt lat="49.29258" lon="1.13058">
        <ele>65.3</ele>
        <time>2025-03-26T15:17:43.000Z</time>
      </trkpt>
      <trkpt lat="49.2926" lon="1.13044">
        <ele>65.1</ele>
        <time>2025-03-26T15:17:45.000Z</time>
      </trkpt>
      <trkpt lat="49.29261" lon="1.13028">
        <ele>64.9</ele>
        <time>2025-03-26T15:17:47.000Z</time>
      </trkpt>
      <trkpt lat="49.29263" lon="1.13011">
        <ele>64.8</ele>
        <time>2025-03-26T15:17:49.000Z</time>
      </trkpt>
      <trkpt lat="49.29265" lon="1.12993">
        <ele>64.6</ele>
        <time>2025-03-26T15:17:51.000Z</time>
      </trkpt>
      <trkpt lat="49.29266" lon="1.12974">
        <ele>64.5</ele>
        <time>2025-03-26T15:17:53.000Z</time>
      </trkpt>
      <trkpt lat="49.29268" lon="1.12956">
        <ele>64.3</ele>
        <time>2025-03-26T15:17:55.000Z</time>
      </trkpt>
      <trkpt lat="49.2927" lon="1.12937">
        <ele>64.2</ele>
        <time>2025-03-26T15:17:57.000Z</time>
      </trkpt>
      <trkpt lat="49.29271" lon="1.12918">
        <ele>64</ele>
        <time>2025-03-26T15:17:59.000Z</time>
      </trkpt>
      <trkpt lat="49.29273" lon="1.12899">
        <ele>63.9</ele>
        <time>2025-03-26T15:18:01.000Z</time>
      </trkpt>
      <trkpt lat="49.29275" lon="1.1288">
        <ele>63.8</ele>
        <time>2025-03-26T15:18:03.000Z</time>
      </trkpt>
      <trkpt lat="49.29276" lon="1.12862">
        <ele>63.7</ele>
        <time>2025-03-26T15:18:05.000Z</time>
      </trkpt>
      <trkpt lat="49.29278" lon="1.12844">
        <ele>63.6</ele>
        <time>2025-03-26T15:18:07.000Z</time>
      </trkpt>
      <trkpt lat="49.2928" lon="1.12827">
        <ele>63.5</ele>
        <time>2025-03-26T15:18:09.000Z</time>
      </trkpt>
      <trkpt lat="49.29282" lon="1.12811">
        <ele>63.3</ele>
        <time>2025-03-26T15:18:11.000Z</time>
      </trkpt>
      <trkpt lat="49.29283" lon="1.12796">
        <ele>63.2</ele>
        <time>2025-03-26T15:18:13.000Z</time>
      </trkpt>
      <trkpt lat="49.29285" lon="1.12781">
        <ele>63.1</ele>
        <time>2025-03-26T15:18:15.000Z</time>
      </trkpt>
      <trkpt lat="49.29287" lon="1.12766">
        <ele>62.9</ele>
        <time>2025-03-26T15:18:17.000Z</time>
      </trkpt>
      <trkpt lat="49.29289" lon="1.1275">
        <ele>62.8</ele>
        <time>2025-03-26T15:18:19.000Z</time>
      </trkpt>
      <trkpt lat="49.2929" lon="1.12734">
        <ele>62.7</ele>
        <time>2025-03-26T15:18:21.000Z</time>
      </trkpt>
      <trkpt lat="49.29292" lon="1.12716">
        <ele>62.5</ele>
        <time>2025-03-26T15:18:23.000Z</time>
      </trkpt>
      <trkpt lat="49.29295" lon="1.12697">
        <ele>62.4</ele>
        <time>2025-03-26T15:18:25.000Z</time>
      </trkpt>
      <trkpt lat="49.29297" lon="1.12678">
        <ele>62.2</ele>
        <time>2025-03-26T15:18:27.000Z</time>
      </trkpt>
      <trkpt lat="49.29299" lon="1.12659">
        <ele>62.1</ele>
        <time>2025-03-26T15:18:29.000Z</time>
      </trkpt>
      <trkpt lat="49.29301" lon="1.1264">
        <ele>61.9</ele>
        <time>2025-03-26T15:18:31.000Z</time>
      </trkpt>
      <trkpt lat="49.29303" lon="1.1262">
        <ele>61.8</ele>
        <time>2025-03-26T15:18:33.000Z</time>
      </trkpt>
      <trkpt lat="49.29305" lon="1.12601">
        <ele>61.7</ele>
        <time>2025-03-26T15:18:35.000Z</time>
      </trkpt>
      <trkpt lat="49.29307" lon="1.12582">
        <ele>61.5</ele>
        <time>2025-03-26T15:18:37.000Z</time>
      </trkpt>
      <trkpt lat="49.29309" lon="1.12563">
        <ele>61.3</ele>
        <time>2025-03-26T15:18:39.000Z</time>
      </trkpt>
      <trkpt lat="49.29311" lon="1.12543">
        <ele>61.1</ele>
        <time>2025-03-26T15:18:41.000Z</time>
      </trkpt>
      <trkpt lat="49.29314" lon="1.12525">
        <ele>60.8</ele>
        <time>2025-03-26T15:18:43.000Z</time>
      </trkpt>
      <trkpt lat="49.29317" lon="1.12506">
        <ele>60.4</ele>
        <time>2025-03-26T15:18:45.000Z</time>
      </trkpt>
      <trkpt lat="49.29321" lon="1.1249">
        <ele>60</ele>
        <time>2025-03-26T15:18:47.000Z</time>
      </trkpt>
      <trkpt lat="49.29332" lon="1.12487">
        <ele>59.7</ele>
        <time>2025-03-26T15:18:50.000Z</time>
      </trkpt>
      <trkpt lat="49.29342" lon="1.12499">
        <ele>59.2</ele>
        <time>2025-03-26T15:18:53.000Z</time>
      </trkpt>
      <trkpt lat="49.29352" lon="1.1251">
        <ele>58.7</ele>
        <time>2025-03-26T15:18:56.000Z</time>
      </trkpt>
      <trkpt lat="49.29361" lon="1.12523">
        <ele>58.3</ele>
        <time>2025-03-26T15:18:59.000Z</time>
      </trkpt>
      <trkpt lat="49.29372" lon="1.12536">
        <ele>58</ele>
        <time>2025-03-26T15:19:02.000Z</time>
      </trkpt>
      <trkpt lat="49.29381" lon="1.12547">
        <ele>58</ele>
        <time>2025-03-26T15:19:04.000Z</time>
      </trkpt>
      <trkpt lat="49.2939" lon="1.12558">
        <ele>57.9</ele>
        <time>2025-03-26T15:19:06.000Z</time>
      </trkpt>
      <trkpt lat="49.294" lon="1.1257">
        <ele>57.8</ele>
        <time>2025-03-26T15:19:08.000Z</time>
      </trkpt>
      <trkpt lat="49.2941" lon="1.12582">
        <ele>57.7</ele>
        <time>2025-03-26T15:19:10.000Z</time>
      </trkpt>
      <trkpt lat="49.29419" lon="1.12594">
        <ele>57.6</ele>
        <time>2025-03-26T15:19:12.000Z</time>
      </trkpt>
      <trkpt lat="49.2943" lon="1.12607">
        <ele>57.4</ele>
        <time>2025-03-26T15:19:14.000Z</time>
      </trkpt>
      <trkpt lat="49.29439" lon="1.12619">
        <ele>57.4</ele>
        <time>2025-03-26T15:19:16.000Z</time>
      </trkpt>
      <trkpt lat="49.29449" lon="1.12631">
        <ele>57.4</ele>
        <time>2025-03-26T15:19:18.000Z</time>
      </trkpt>
      <trkpt lat="49.29458" lon="1.12643">
        <ele>57.5</ele>
        <time>2025-03-26T15:19:20.000Z</time>
      </trkpt>
      <trkpt lat="49.29467" lon="1.12652">
        <ele>57.5</ele>
        <time>2025-03-26T15:19:22.000Z</time>
      </trkpt>
      <trkpt lat="49.29475" lon="1.1266">
        <ele>57.4</ele>
        <time>2025-03-26T15:19:24.000Z</time>
      </trkpt>
      <trkpt lat="49.29484" lon="1.12669">
        <ele>57.2</ele>
        <time>2025-03-26T15:19:26.000Z</time>
      </trkpt>
      <trkpt lat="49.29493" lon="1.12679">
        <ele>57.1</ele>
        <time>2025-03-26T15:19:28.000Z</time>
      </trkpt>
      <trkpt lat="49.29503" lon="1.12692">
        <ele>57.1</ele>
        <time>2025-03-26T15:19:30.000Z</time>
      </trkpt>
      <trkpt lat="49.29513" lon="1.12705">
        <ele>56.9</ele>
        <time>2025-03-26T15:19:32.000Z</time>
      </trkpt>
      <trkpt lat="49.29522" lon="1.12717">
        <ele>56.7</ele>
        <time>2025-03-26T15:19:34.000Z</time>
      </trkpt>
      <trkpt lat="49.29531" lon="1.12727">
        <ele>56.5</ele>
        <time>2025-03-26T15:19:36.000Z</time>
      </trkpt>
      <trkpt lat="49.2954" lon="1.12737">
        <ele>56.3</ele>
        <time>2025-03-26T15:19:38.000Z</time>
      </trkpt>
      <trkpt lat="49.29548" lon="1.12746">
        <ele>56.1</ele>
        <time>2025-03-26T15:19:40.000Z</time>
      </trkpt>
      <trkpt lat="49.29557" lon="1.12756">
        <ele>55.8</ele>
        <time>2025-03-26T15:19:42.000Z</time>
      </trkpt>
      <trkpt lat="49.29568" lon="1.12769">
        <ele>55.5</ele>
        <time>2025-03-26T15:19:44.000Z</time>
      </trkpt>
      <trkpt lat="49.29578" lon="1.12781">
        <ele>55.2</ele>
        <time>2025-03-26T15:19:46.000Z</time>
      </trkpt>
      <trkpt lat="49.29587" lon="1.12792">
        <ele>54.9</ele>
        <time>2025-03-26T15:19:48.000Z</time>
      </trkpt>
      <trkpt lat="49.29598" lon="1.12803">
        <ele>54.6</ele>
        <time>2025-03-26T15:19:50.000Z</time>
      </trkpt>
      <trkpt lat="49.29608" lon="1.12816">
        <ele>54.4</ele>
        <time>2025-03-26T15:19:52.000Z</time>
      </trkpt>
      <trkpt lat="49.29619" lon="1.12827">
        <ele>54.2</ele>
        <time>2025-03-26T15:19:54.000Z</time>
      </trkpt>
      <trkpt lat="49.29628" lon="1.12837">
        <ele>54</ele>
        <time>2025-03-26T15:19:56.000Z</time>
      </trkpt>
      <trkpt lat="49.29638" lon="1.12849">
        <ele>53.7</ele>
        <time>2025-03-26T15:19:58.000Z</time>
      </trkpt>
      <trkpt lat="49.29647" lon="1.1286">
        <ele>53.3</ele>
        <time>2025-03-26T15:20:00.000Z</time>
      </trkpt>
      <trkpt lat="49.29656" lon="1.12871">
        <ele>53</ele>
        <time>2025-03-26T15:20:02.000Z</time>
      </trkpt>
      <trkpt lat="49.29665" lon="1.12882">
        <ele>52.7</ele>
        <time>2025-03-26T15:20:04.000Z</time>
      </trkpt>
      <trkpt lat="49.29674" lon="1.12891">
        <ele>52.2</ele>
        <time>2025-03-26T15:20:06.000Z</time>
      </trkpt>
      <trkpt lat="49.29683" lon="1.12902">
        <ele>51.5</ele>
        <time>2025-03-26T15:20:09.000Z</time>
      </trkpt>
      <trkpt lat="49.2969" lon="1.12913">
        <ele>51</ele>
        <time>2025-03-26T15:20:12.000Z</time>
      </trkpt>
      <trkpt lat="49.29701" lon="1.12924">
        <ele>50.7</ele>
        <time>2025-03-26T15:20:15.000Z</time>
      </trkpt>
      <trkpt lat="49.29707" lon="1.12934">
        <ele>50.6</ele>
        <time>2025-03-26T15:20:17.000Z</time>
      </trkpt>
      <trkpt lat="49.29714" lon="1.12943">
        <ele>50.6</ele>
        <time>2025-03-26T15:20:19.000Z</time>
      </trkpt>
      <trkpt lat="49.29723" lon="1.12953">
        <ele>50.5</ele>
        <time>2025-03-26T15:20:21.000Z</time>
      </trkpt>
      <trkpt lat="49.29733" lon="1.12963">
        <ele>50.6</ele>
        <time>2025-03-26T15:20:23.000Z</time>
      </trkpt>
      <trkpt lat="49.29742" lon="1.12973">
        <ele>50.6</ele>
        <time>2025-03-26T15:20:25.000Z</time>
      </trkpt>
      <trkpt lat="49.2975" lon="1.12982">
        <ele>50.5</ele>
        <time>2025-03-26T15:20:27.000Z</time>
      </trkpt>
      <trkpt lat="49.29758" lon="1.1299">
        <ele>50.5</ele>
        <time>2025-03-26T15:20:29.000Z</time>
      </trkpt>
      <trkpt lat="49.29767" lon="1.13001">
        <ele>50.5</ele>
        <time>2025-03-26T15:20:32.000Z</time>
      </trkpt>
      <trkpt lat="49.29774" lon="1.13011">
        <ele>50.5</ele>
        <time>2025-03-26T15:20:35.000Z</time>
      </trkpt>
      <trkpt lat="49.29783" lon="1.13023">
        <ele>50.4</ele>
        <time>2025-03-26T15:20:38.000Z</time>
      </trkpt>
      <trkpt lat="49.29791" lon="1.13031">
        <ele>50.3</ele>
        <time>2025-03-26T15:20:40.000Z</time>
      </trkpt>
      <trkpt lat="49.29799" lon="1.13039">
        <ele>50.3</ele>
        <time>2025-03-26T15:20:42.000Z</time>
      </trkpt>
      <trkpt lat="49.29807" lon="1.13048">
        <ele>50.1</ele>
        <time>2025-03-26T15:20:44.000Z</time>
      </trkpt>
      <trkpt lat="49.29815" lon="1.13057">
        <ele>49.9</ele>
        <time>2025-03-26T15:20:46.000Z</time>
      </trkpt>
      <trkpt lat="49.29822" lon="1.13066">
        <ele>49.7</ele>
        <time>2025-03-26T15:20:48.000Z</time>
      </trkpt>
      <trkpt lat="49.29829" lon="1.13076">
        <ele>49.5</ele>
        <time>2025-03-26T15:20:50.000Z</time>
      </trkpt>
      <trkpt lat="49.29836" lon="1.13085">
        <ele>49.3</ele>
        <time>2025-03-26T15:20:52.000Z</time>
      </trkpt>
      <trkpt lat="49.29844" lon="1.13095">
        <ele>49.1</ele>
        <time>2025-03-26T15:20:54.000Z</time>
      </trkpt>
      <trkpt lat="49.29854" lon="1.13107">
        <ele>48.7</ele>
        <time>2025-03-26T15:20:57.000Z</time>
      </trkpt>
      <trkpt lat="49.29862" lon="1.13115">
        <ele>48.4</ele>
        <time>2025-03-26T15:20:59.000Z</time>
      </trkpt>
      <trkpt lat="49.29869" lon="1.13125">
        <ele>48.1</ele>
        <time>2025-03-26T15:21:01.000Z</time>
      </trkpt>
      <trkpt lat="49.29876" lon="1.13133">
        <ele>47.8</ele>
        <time>2025-03-26T15:21:03.000Z</time>
      </trkpt>
      <trkpt lat="49.29884" lon="1.13143">
        <ele>47.7</ele>
        <time>2025-03-26T15:21:05.000Z</time>
      </trkpt>
      <trkpt lat="49.29894" lon="1.13155">
        <ele>47.4</ele>
        <time>2025-03-26T15:21:08.000Z</time>
      </trkpt>
      <trkpt lat="49.29905" lon="1.13165">
        <ele>47.1</ele>
        <time>2025-03-26T15:21:11.000Z</time>
      </trkpt>
      <trkpt lat="49.29914" lon="1.13177">
        <ele>46.8</ele>
        <time>2025-03-26T15:21:14.000Z</time>
      </trkpt>
      <trkpt lat="49.29925" lon="1.13188">
        <ele>46.5</ele>
        <time>2025-03-26T15:21:17.000Z</time>
      </trkpt>
      <trkpt lat="49.29934" lon="1.13198">
        <ele>46.3</ele>
        <time>2025-03-26T15:21:20.000Z</time>
      </trkpt>
      <trkpt lat="49.29942" lon="1.13209">
        <ele>46.1</ele>
        <time>2025-03-26T15:21:23.000Z</time>
      </trkpt>
      <trkpt lat="49.29951" lon="1.13222">
        <ele>45.7</ele>
        <time>2025-03-26T15:21:26.000Z</time>
      </trkpt>
      <trkpt lat="49.29959" lon="1.13231">
        <ele>45.4</ele>
        <time>2025-03-26T15:21:29.000Z</time>
      </trkpt>
      <trkpt lat="49.29965" lon="1.13243">
        <ele>44.8</ele>
        <time>2025-03-26T15:21:33.000Z</time>
      </trkpt>
      <trkpt lat="49.29962" lon="1.13257">
        <ele>44.3</ele>
        <time>2025-03-26T15:21:36.000Z</time>
      </trkpt>
      <trkpt lat="49.29955" lon="1.13274">
        <ele>43.9</ele>
        <time>2025-03-26T15:21:39.000Z</time>
      </trkpt>
      <trkpt lat="49.29948" lon="1.13286">
        <ele>43.8</ele>
        <time>2025-03-26T15:21:41.000Z</time>
      </trkpt>
      <trkpt lat="49.29942" lon="1.13299">
        <ele>43.8</ele>
        <time>2025-03-26T15:21:43.000Z</time>
      </trkpt>
      <trkpt lat="49.29936" lon="1.13312">
        <ele>44</ele>
        <time>2025-03-26T15:21:45.000Z</time>
      </trkpt>
      <trkpt lat="49.29929" lon="1.13326">
        <ele>44.1</ele>
        <time>2025-03-26T15:21:47.000Z</time>
      </trkpt>
      <trkpt lat="49.29921" lon="1.1334">
        <ele>44.4</ele>
        <time>2025-03-26T15:21:49.000Z</time>
      </trkpt>
      <trkpt lat="49.29913" lon="1.13354">
        <ele>44.8</ele>
        <time>2025-03-26T15:21:51.000Z</time>
      </trkpt>
      <trkpt lat="49.29904" lon="1.13369">
        <ele>45.3</ele>
        <time>2025-03-26T15:21:53.000Z</time>
      </trkpt>
      <trkpt lat="49.29895" lon="1.13385">
        <ele>45.7</ele>
        <time>2025-03-26T15:21:55.000Z</time>
      </trkpt>
      <trkpt lat="49.29886" lon="1.13401">
        <ele>46</ele>
        <time>2025-03-26T15:21:57.000Z</time>
      </trkpt>
      <trkpt lat="49.29878" lon="1.13415">
        <ele>46.2</ele>
        <time>2025-03-26T15:21:59.000Z</time>
      </trkpt>
      <trkpt lat="49.2987" lon="1.1343">
        <ele>46.4</ele>
        <time>2025-03-26T15:22:01.000Z</time>
      </trkpt>
      <trkpt lat="49.29863" lon="1.13445">
        <ele>46.6</ele>
        <time>2025-03-26T15:22:03.000Z</time>
      </trkpt>
      <trkpt lat="49.29857" lon="1.13459">
        <ele>46.8</ele>
        <time>2025-03-26T15:22:05.000Z</time>
      </trkpt>
      <trkpt lat="49.29851" lon="1.13471">
        <ele>46.9</ele>
        <time>2025-03-26T15:22:07.000Z</time>
      </trkpt>
      <trkpt lat="49.29844" lon="1.13486">
        <ele>47.2</ele>
        <time>2025-03-26T15:22:10.000Z</time>
      </trkpt>
      <trkpt lat="49.29838" lon="1.13498">
        <ele>47.3</ele>
        <time>2025-03-26T15:22:13.000Z</time>
      </trkpt>
      <trkpt lat="49.29831" lon="1.13512">
        <ele>47.3</ele>
        <time>2025-03-26T15:22:16.000Z</time>
      </trkpt>
      <trkpt lat="49.29825" lon="1.13523">
        <ele>47.4</ele>
        <time>2025-03-26T15:22:18.000Z</time>
      </trkpt>
      <trkpt lat="49.2982" lon="1.13535">
        <ele>47.5</ele>
        <time>2025-03-26T15:22:20.000Z</time>
      </trkpt>
      <trkpt lat="49.29811" lon="1.1355">
        <ele>47.6</ele>
        <time>2025-03-26T15:22:23.000Z</time>
      </trkpt>
      <trkpt lat="49.29802" lon="1.13563">
        <ele>47.7</ele>
        <time>2025-03-26T15:22:26.000Z</time>
      </trkpt>
      <trkpt lat="49.29794" lon="1.13577">
        <ele>47.7</ele>
        <time>2025-03-26T15:22:29.000Z</time>
      </trkpt>
      <trkpt lat="49.29786" lon="1.13592">
        <ele>47.7</ele>
        <time>2025-03-26T15:22:32.000Z</time>
      </trkpt>
      <trkpt lat="49.2978" lon="1.13606">
        <ele>47.7</ele>
        <time>2025-03-26T15:22:35.000Z</time>
      </trkpt>
      <trkpt lat="49.29774" lon="1.1362">
        <ele>47.7</ele>
        <time>2025-03-26T15:22:38.000Z</time>
      </trkpt>
      <trkpt lat="49.29767" lon="1.13632">
        <ele>47.6</ele>
        <time>2025-03-26T15:22:41.000Z</time>
      </trkpt>
      <trkpt lat="49.2976" lon="1.13643">
        <ele>47.6</ele>
        <time>2025-03-26T15:22:44.000Z</time>
      </trkpt>
      <trkpt lat="49.29754" lon="1.13654">
        <ele>47.6</ele>
        <time>2025-03-26T15:22:46.000Z</time>
      </trkpt>
      <trkpt lat="49.29747" lon="1.13665">
        <ele>47.6</ele>
        <time>2025-03-26T15:22:48.000Z</time>
      </trkpt>
      <trkpt lat="49.29741" lon="1.13682">
        <ele>47.6</ele>
        <time>2025-03-26T15:22:51.000Z</time>
      </trkpt>
      <trkpt lat="49.29746" lon="1.13693">
        <ele>47.6</ele>
        <time>2025-03-26T15:22:53.000Z</time>
      </trkpt>
      <trkpt lat="49.29754" lon="1.13703">
        <ele>47.5</ele>
        <time>2025-03-26T15:22:55.000Z</time>
      </trkpt>
      <trkpt lat="49.29765" lon="1.13711">
        <ele>47.5</ele>
        <time>2025-03-26T15:22:57.000Z</time>
      </trkpt>
      <trkpt lat="49.29777" lon="1.13723">
        <ele>47.4</ele>
        <time>2025-03-26T15:22:59.000Z</time>
      </trkpt>
      <trkpt lat="49.2979" lon="1.13738">
        <ele>47.1</ele>
        <time>2025-03-26T15:23:01.000Z</time>
      </trkpt>
      <trkpt lat="49.29803" lon="1.13756">
        <ele>46.8</ele>
        <time>2025-03-26T15:23:03.000Z</time>
      </trkpt>
      <trkpt lat="49.29814" lon="1.13769">
        <ele>45.7</ele>
        <time>2025-03-26T15:23:05.000Z</time>
      </trkpt>
      <trkpt lat="49.29823" lon="1.13781">
        <ele>43.4</ele>
        <time>2025-03-26T15:23:08.000Z</time>
      </trkpt>
      <trkpt lat="49.29832" lon="1.13792">
        <ele>41.6</ele>
        <time>2025-03-26T15:23:11.000Z</time>
      </trkpt>
      <trkpt lat="49.29841" lon="1.13792">
        <ele>40</ele>
        <time>2025-03-26T15:23:14.000Z</time>
      </trkpt>
      <trkpt lat="49.29848" lon="1.13783">
        <ele>39.3</ele>
        <time>2025-03-26T15:23:16.000Z</time>
      </trkpt>
      <trkpt lat="49.29855" lon="1.1377">
        <ele>38.9</ele>
        <time>2025-03-26T15:23:18.000Z</time>
      </trkpt>
      <trkpt lat="49.29862" lon="1.13756">
        <ele>38.6</ele>
        <time>2025-03-26T15:23:20.000Z</time>
      </trkpt>
      <trkpt lat="49.29869" lon="1.13741">
        <ele>38.5</ele>
        <time>2025-03-26T15:23:22.000Z</time>
      </trkpt>
      <trkpt lat="49.29876" lon="1.13728">
        <ele>38.4</ele>
        <time>2025-03-26T15:23:24.000Z</time>
      </trkpt>
      <trkpt lat="49.29884" lon="1.13716">
        <ele>38.5</ele>
        <time>2025-03-26T15:23:26.000Z</time>
      </trkpt>
      <trkpt lat="49.29893" lon="1.1371">
        <ele>38.6</ele>
        <time>2025-03-26T15:23:29.000Z</time>
      </trkpt>
      <trkpt lat="49.29902" lon="1.13719">
        <ele>38.6</ele>
        <time>2025-03-26T15:23:32.000Z</time>
      </trkpt>
      <trkpt lat="49.29922" lon="1.13744">
        <ele>38.6</ele>
        <time>2025-03-26T15:23:37.000Z</time>
      </trkpt>
      <trkpt lat="49.29929" lon="1.1374">
        <ele>38.4</ele>
        <time>2025-03-26T15:23:40.000Z</time>
      </trkpt>
      <trkpt lat="49.2993" lon="1.13737">
        <ele>38.4</ele>
        <time>2025-03-26T15:23:41.000Z</time>
      </trkpt>
      <trkpt lat="49.29933" lon="1.1372">
        <ele>38.1</ele>
        <time>2025-03-26T15:23:47.000Z</time>
      </trkpt>
      <trkpt lat="49.29939" lon="1.13703">
        <ele>38.1</ele>
        <time>2025-03-26T15:23:50.000Z</time>
      </trkpt>
      <trkpt lat="49.29946" lon="1.13693">
        <ele>38.1</ele>
        <time>2025-03-26T15:23:52.000Z</time>
      </trkpt>
      <trkpt lat="49.29952" lon="1.13683">
        <ele>38.2</ele>
        <time>2025-03-26T15:23:54.000Z</time>
      </trkpt>
      <trkpt lat="49.29962" lon="1.13669">
        <ele>38.4</ele>
        <time>2025-03-26T15:23:57.000Z</time>
      </trkpt>
      <trkpt lat="49.29969" lon="1.13659">
        <ele>38.5</ele>
        <time>2025-03-26T15:23:59.000Z</time>
      </trkpt>
      <trkpt lat="49.29977" lon="1.1365">
        <ele>38.8</ele>
        <time>2025-03-26T15:24:01.000Z</time>
      </trkpt>
      <trkpt lat="49.29988" lon="1.13644">
        <ele>39.1</ele>
        <time>2025-03-26T15:24:04.000Z</time>
      </trkpt>
      <trkpt lat="49.3" lon="1.13647">
        <ele>39.3</ele>
        <time>2025-03-26T15:24:07.000Z</time>
      </trkpt>
      <trkpt lat="49.30012" lon="1.13652">
        <ele>39.4</ele>
        <time>2025-03-26T15:24:10.000Z</time>
      </trkpt>
      <trkpt lat="49.30024" lon="1.13655">
        <ele>39.5</ele>
        <time>2025-03-26T15:24:13.000Z</time>
      </trkpt>
      <trkpt lat="49.30033" lon="1.13657">
        <ele>39.5</ele>
        <time>2025-03-26T15:24:15.000Z</time>
      </trkpt>
      <trkpt lat="49.30043" lon="1.13659">
        <ele>39.5</ele>
        <time>2025-03-26T15:24:17.000Z</time>
      </trkpt>
      <trkpt lat="49.30055" lon="1.1366">
        <ele>39.4</ele>
        <time>2025-03-26T15:24:20.000Z</time>
      </trkpt>
      <trkpt lat="49.30067" lon="1.13661">
        <ele>39.2</ele>
        <time>2025-03-26T15:24:23.000Z</time>
      </trkpt>
      <trkpt lat="49.3008" lon="1.13663">
        <ele>39</ele>
        <time>2025-03-26T15:24:26.000Z</time>
      </trkpt>
      <trkpt lat="49.3009" lon="1.13666">
        <ele>38.8</ele>
        <time>2025-03-26T15:24:28.000Z</time>
      </trkpt>
      <trkpt lat="49.301" lon="1.13669">
        <ele>38.6</ele>
        <time>2025-03-26T15:24:30.000Z</time>
      </trkpt>
      <trkpt lat="49.30109" lon="1.13671">
        <ele>38.4</ele>
        <time>2025-03-26T15:24:32.000Z</time>
      </trkpt>
      <trkpt lat="49.30119" lon="1.13672">
        <ele>38.1</ele>
        <time>2025-03-26T15:24:34.000Z</time>
      </trkpt>
      <trkpt lat="49.30132" lon="1.13673">
        <ele>37.7</ele>
        <time>2025-03-26T15:24:37.000Z</time>
      </trkpt>
      <trkpt lat="49.30141" lon="1.13673">
        <ele>37.4</ele>
        <time>2025-03-26T15:24:39.000Z</time>
      </trkpt>
      <trkpt lat="49.30154" lon="1.13672">
        <ele>37.1</ele>
        <time>2025-03-26T15:24:42.000Z</time>
      </trkpt>
      <trkpt lat="49.30164" lon="1.13672">
        <ele>36.7</ele>
        <time>2025-03-26T15:24:44.000Z</time>
      </trkpt>
      <trkpt lat="49.30175" lon="1.13674">
        <ele>36.2</ele>
        <time>2025-03-26T15:24:46.000Z</time>
      </trkpt>
      <trkpt lat="49.30183" lon="1.13681">
        <ele>35.7</ele>
        <time>2025-03-26T15:24:48.000Z</time>
      </trkpt>
      <trkpt lat="49.30188" lon="1.13695">
        <ele>35.4</ele>
        <time>2025-03-26T15:24:50.000Z</time>
      </trkpt>
      <trkpt lat="49.30192" lon="1.1371">
        <ele>35.1</ele>
        <time>2025-03-26T15:24:52.000Z</time>
      </trkpt>
      <trkpt lat="49.30195" lon="1.13726">
        <ele>34.7</ele>
        <time>2025-03-26T15:24:54.000Z</time>
      </trkpt>
      <trkpt lat="49.30198" lon="1.13745">
        <ele>34.2</ele>
        <time>2025-03-26T15:24:56.000Z</time>
      </trkpt>
      <trkpt lat="49.302" lon="1.13763">
        <ele>33.7</ele>
        <time>2025-03-26T15:24:58.000Z</time>
      </trkpt>
      <trkpt lat="49.30201" lon="1.13782">
        <ele>33.3</ele>
        <time>2025-03-26T15:25:00.000Z</time>
      </trkpt>
      <trkpt lat="49.30201" lon="1.13799">
        <ele>33</ele>
        <time>2025-03-26T15:25:02.000Z</time>
      </trkpt>
      <trkpt lat="49.30202" lon="1.13814">
        <ele>32.5</ele>
        <time>2025-03-26T15:25:04.000Z</time>
      </trkpt>
      <trkpt lat="49.30204" lon="1.13832">
        <ele>31.9</ele>
        <time>2025-03-26T15:25:07.000Z</time>
      </trkpt>
      <trkpt lat="49.30204" lon="1.13848">
        <ele>31.6</ele>
        <time>2025-03-26T15:25:10.000Z</time>
      </trkpt>
      <trkpt lat="49.30205" lon="1.13862">
        <ele>31.5</ele>
        <time>2025-03-26T15:25:12.000Z</time>
      </trkpt>
      <trkpt lat="49.30205" lon="1.13879">
        <ele>31.5</ele>
        <time>2025-03-26T15:25:14.000Z</time>
      </trkpt>
      <trkpt lat="49.30206" lon="1.13897">
        <ele>31.6</ele>
        <time>2025-03-26T15:25:16.000Z</time>
      </trkpt>
      <trkpt lat="49.30208" lon="1.13916">
        <ele>31.8</ele>
        <time>2025-03-26T15:25:18.000Z</time>
      </trkpt>
      <trkpt lat="49.30212" lon="1.13934">
        <ele>32</ele>
        <time>2025-03-26T15:25:20.000Z</time>
      </trkpt>
      <trkpt lat="49.30215" lon="1.13952">
        <ele>32.4</ele>
        <time>2025-03-26T15:25:22.000Z</time>
      </trkpt>
      <trkpt lat="49.30219" lon="1.13969">
        <ele>32.9</ele>
        <time>2025-03-26T15:25:24.000Z</time>
      </trkpt>
      <trkpt lat="49.30224" lon="1.13985">
        <ele>33.4</ele>
        <time>2025-03-26T15:25:26.000Z</time>
      </trkpt>
      <trkpt lat="49.30229" lon="1.14001">
        <ele>34.1</ele>
        <time>2025-03-26T15:25:28.000Z</time>
      </trkpt>
      <trkpt lat="49.30233" lon="1.14015">
        <ele>34.8</ele>
        <time>2025-03-26T15:25:30.000Z</time>
      </trkpt>
      <trkpt lat="49.30238" lon="1.14033">
        <ele>35.4</ele>
        <time>2025-03-26T15:25:33.000Z</time>
      </trkpt>
      <trkpt lat="49.3024" lon="1.14049">
        <ele>35.9</ele>
        <time>2025-03-26T15:25:36.000Z</time>
      </trkpt>
      <trkpt lat="49.30244" lon="1.14063">
        <ele>36.2</ele>
        <time>2025-03-26T15:25:39.000Z</time>
      </trkpt>
      <trkpt lat="49.30245" lon="1.14079">
        <ele>36.5</ele>
        <time>2025-03-26T15:25:43.000Z</time>
      </trkpt>
      <trkpt lat="49.30248" lon="1.14095">
        <ele>36.6</ele>
        <time>2025-03-26T15:25:48.000Z</time>
      </trkpt>
      <trkpt lat="49.30251" lon="1.14096">
        <ele>36.7</ele>
        <time>2025-03-26T15:25:55.000Z</time>
      </trkpt>
      <trkpt lat="49.30251" lon="1.14096">
        <ele>36.7</ele>
        <time>2025-03-26T15:25:56.000Z</time>
      </trkpt>
      <trkpt lat="49.30251" lon="1.14096">
        <ele>36.7</ele>
        <time>2025-03-26T15:25:57.000Z</time>
      </trkpt>
      <trkpt lat="49.30251" lon="1.14095">
        <ele>36.7</ele>
        <time>2025-03-26T15:25:58.000Z</time>
      </trkpt>
      <trkpt lat="49.30251" lon="1.14095">
        <ele>36.7</ele>
        <time>2025-03-26T15:25:59.000Z</time>
      </trkpt>
      <trkpt lat="49.30251" lon="1.14095">
        <ele>36.7</ele>
        <time>2025-03-26T15:26:00.000Z</time>
      </trkpt>
      <trkpt lat="49.30251" lon="1.14095">
        <ele>36.6</ele>
        <time>2025-03-26T15:26:03.000Z</time>
      </trkpt>
      <trkpt lat="49.30251" lon="1.14095">
        <ele>36.6</ele>
        <time>2025-03-26T15:26:04.000Z</time>
      </trkpt>
      <trkpt lat="49.30251" lon="1.14095">
        <ele>36.6</ele>
        <time>2025-03-26T15:26:05.000Z</time>
      </trkpt>
      <trkpt lat="49.30252" lon="1.14095">
        <ele>36.4</ele>
        <time>2025-03-26T15:26:31.000Z</time>
      </trkpt>
      <trkpt lat="49.30252" lon="1.14095">
        <ele>36.4</ele>
        <time>2025-03-26T15:26:32.000Z</time>
      </trkpt>
      <trkpt lat="49.30252" lon="1.14095">
        <ele>36.4</ele>
        <time>2025-03-26T15:26:33.000Z</time>
      </trkpt>
      <trkpt lat="49.30252" lon="1.14095">
        <ele>36.4</ele>
        <time>2025-03-26T15:26:34.000Z</time>
      </trkpt>
      <trkpt lat="49.30253" lon="1.14095">
        <ele>35.9</ele>
        <time>2025-03-26T15:27:35.000Z</time>
      </trkpt>
      <trkpt lat="49.30252" lon="1.14095">
        <ele>35.9</ele>
        <time>2025-03-26T15:27:36.000Z</time>
      </trkpt>
      <trkpt lat="49.30253" lon="1.14095">
        <ele>35.9</ele>
        <time>2025-03-26T15:27:37.000Z</time>
      </trkpt>
      <trkpt lat="49.30253" lon="1.14094">
        <ele>36</ele>
        <time>2025-03-26T15:27:41.000Z</time>
      </trkpt>
      <trkpt lat="49.30253" lon="1.14094">
        <ele>36</ele>
        <time>2025-03-26T15:27:41.100Z</time>
      </trkpt>
      <trkpt lat="49.30253" lon="1.14094">
        <ele>36</ele>
        <time>2025-03-26T15:27:42.000Z</time>
      </trkpt>
      <trkpt lat="49.30253" lon="1.14094">
        <ele>36</ele>
        <time>2025-03-26T15:27:42.000Z</time>
      </trkpt>
    </trkseg>
  </trk>
</gpx>